     2              OBSERVATION DATA    GPS                 RINEX VERSION / TYPE
teqc 2000Jul20 Karen Wendt 20030328 00:28:05UTC             PGM / RUN BY / DATE
                                                            COMMENT
L2: 1 -> 1; 150 -> 5; 250 -> 9                              COMMENT
L2: 1 -> 1; 150 -> 5; 250 -> 9                              COMMENT
L2: 1 -> 1; 150 -> 5; 250 -> 9                              COMMENT
L2: 1 -> 1; 150 -> 5; 250 -> 9                              COMMENT
L2: 1 -> 1; 150 -> 5; 250 -> 9                              COMMENT
L2: 1 -> 1; 150 -> 5; 250 -> 9                              COMMENT
L2: 1 -> 1; 150 -> 5; 250 -> 9                              COMMENT
L2: 1 -> 1; 150 -> 5; 250 -> 9                              COMMENT
L2: 1 -> 1; 150 -> 5; 250 -> 9                              COMMENT
L2: 1 -> 1; 150 -> 5; 250 -> 9                              COMMENT
L2: 1 -> 1; 150 -> 5; 250 -> 9                              COMMENT
L2: 1 -> 1; 150 -> 5; 250 -> 9                              COMMENT
L2: 1 -> 1; 150 -> 5; 250 -> 9                              COMMENT
L2: 1 -> 1; 150 -> 5; 250 -> 9                              COMMENT
Original Marker Name: wath Waterhole_1932_USC&GS            COMMENT
Campaign Name: USGS 2003                                    COMMENT
4-Character Station Name: WATH                              COMMENT
6-Character Antenna Code: DMRCHT                            COMMENT
Vertical Measurement Point: BCR                             COMMENT
Vertical Offset to Rinex Ref. Point: 0.0348                 COMMENT
Radial Measurement Point: ECF                               COMMENT
Radial Offset to Rinex Ref. Point: 0.1897                   COMMENT
Antenna Height from Field Measurement: 1.2390 m             COMMENT
Additional Antenna Identification Info.:                    COMMENT
Turborogue and Ashtech Choke Ring                           COMMENT
Original XYZ: -2614048.7592 -4478242.6736 3702237.1158      COMMENT
New XYZ position is based on association with SCEC monument COMMENT
E1F1D9V6+0011. Position of that monument is believed to be  COMMENT
valid to within 1 m horizontally; vertical accuracy         COMMENT
should be no worse than 3-times this value.                 COMMENT
                                                            COMMENT
Revised Rinex header created by UCSD GPS archive for        COMMENT
GSAC on 11-Jul-2003 (2003:192) 16:16:57 GMT                 COMMENT
For assistance contact dagnew@ucsd.edu                      COMMENT
or anderson@python.ucsd.edu                                 COMMENT
                                                            COMMENT
WATERHOLE 1932                                              MARKER NAME
CHS US GEOLOGICAL SURVEY                                    OBSERVER / AGENCY
04600 ASHTECH Z-XII3 CD00                                   REC # / TYPE / VERS
CR14330 DORNE-MARGOL. TYPE T                                ANT # / TYPE
 -2614072.6508 -4478234.4916  3702244.6955                  APPROX POSITION XYZ
        1.1896        0.0000        0.0000                  ANTENNA: DELTA H/E/N
     1     1     0                                          WAVELENGTH FACT L1/2
     5    C1    L1    L2    P1    P2                        # / TYPES OF OBSERV
    30                                                      INTERVAL
  2003     3    20    17    12    0.000000                  TIME OF FIRST OBS
  2003     3    20    23    59   30.000000                  TIME OF LAST OBS
                                                            END OF HEADER
 03  3 20 17 12  0.0000000  0  5G 7G 4G 5G24G 9
  22865952.230      414423.31549    298683.63446  22865952.061
  22865959.197      278825.45649    204167.43843
  22219626.319        9071.22449      6335.05946  22219625.773
  22219632.062       78145.91749     55502.10443
  21260036.785      246547.10749    176296.17247  21260036.393    21260042.202
 03  3 20 17 12 29.9990000  0  5G 7G 4G 5G24G 9
  22592656.296      553660.24549    407179.88946  22592655.590
  22592662.682      373076.40749     44673.34747                  20580397.329
  21919634.549        8021.86249      5517.37746  21919633.663
  21919639.918      102263.26149     11313.52647                  20790928.589
  20978646.008      343250.21749    251649.23748  20978645.956    20978651.767
 03  3 20 17 13  0.0000000  0  5G 7G 4G 5G24G 9
  22678491.164     -570694.40649   -468940.66046  22678490.488    22678497.587
  20657768.460     -795722.94049   -866079.38847  20657768.704    20657774.373
  21978793.773    -1256513.55449   -979834.87446  21978793.068    21978799.289
  20854937.342    -1136754.27949   -954154.67947  20854937.337    20854943.837
  21056486.661     -823114.42349   -657206.34448  21056486.618    21056492.412
 03  3 20 17 13 30.0000000  0  5G 7G 4G 5G24G 9
  22690909.434     -505435.91949   -418089.95346  22690908.801    22690915.896
  20661832.576     -774365.83249   -849437.48147  20661832.831    20661838.484
  21964558.375    -1331320.72449  -1038126.17146  21964557.773    21964563.970
  20845624.485    -1185694.11549   -992289.60748  20845624.415    20845630.921
  21061010.761     -799340.40749   -638681.15248  21061010.706    21061016.484
 03  3 20 17 14  0.0000000  0  5G 7G 4G 5G24G 9
  22703337.774     -440124.58449   -367198.06246  22703337.187    22703344.287
  20666009.804     -752414.42749   -832332.48848  20666010.059    20666015.730
  21950354.709    -1405961.31849  -1096287.66146  21950354.136    21950360.346
  20836409.813    -1234117.75349  -1030022.30548  20836409.754    20836416.247
  21065644.681     -774989.08949   -619706.11448  21065644.638    21065650.384
 03  3 20 17 14 30.0000000  0  5G 7G 4G 5G24G 9
  22715775.993     -374761.50949   -316265.85646  22715775.406    22715782.501
  20670299.882     -729870.02949   -814765.42348  20670300.139    20670305.781
  21936183.089    -1480433.73549  -1154318.10547  21936182.557    21936188.721
  20827293.562    -1282024.08649  -1067351.90848  20827293.475    20827299.976
  21070388.170     -750062.02649   -600282.44948  21070388.124    21070393.870
 03  3 20 17 15  0.0000000  0  5G 7G 4G 5G24G 9
  22728224.388     -309344.99149   -265292.00646  22728223.818    22728230.936
  20674702.972     -706731.83249   -796735.65348  20674703.211    20674708.845
  21922044.208    -1554734.05549  -1212214.44747  21922043.705    21922049.850
  20818276.406    -1329409.68649  -1104275.73848  20818276.327    20818282.830
  21075241.414     -724558.23549   -580409.38048  21075241.364    21075247.115
 03  3 20 17 15 30.0000000  0  5G 7G 4G 5G24G 9
  22740682.805     -243875.78949   -214277.11346  22740682.233    22740689.396
  20679218.772     -683001.24049   -778244.28248  20679219.015    20679224.635
  21907938.382    -1628860.72349  -1269975.47947  21907937.870    21907944.010
  20809358.616    -1376273.01749  -1140792.61048  20809358.531    20809365.043
  21080204.108     -698479.10249   -560087.99648  21080204.068    21080209.841
 03  3 20 17 16  0.0000000  0  5G 7G 4G 5G24G 9
  22753151.093     -178354.63749   -163221.72846  22753150.561    22753157.725
  20683847.086     -658679.37649   -759292.17348  20683847.310    20683852.920
  21893865.953    -1702812.00749  -1327599.84847  21893865.462    21893871.572
  20800540.331    -1422613.41449  -1176902.00148  20800540.236    20800546.763
  21085276.128     -671825.59949   -539319.04748  21085276.097    21085281.893
 03  3 20 17 16 30.0000000  0  5G 7G 4G 5G24G 9
  22765629.438     -112780.64749   -112125.17546  22765628.913    22765636.134
  20688587.914     -633766.35549   -739879.42848  20688588.138    20688593.732
  21879827.456    -1776584.89949  -1385085.20847  21879826.991    21879833.050
  20791822.078    -1468428.19849  -1212601.82948  20791822.001    20791828.527
  21090457.467     -644597.56449   -518102.41548  21090457.430    21090463.220
 03  3 20 17 17  0.0000000  0  5G 7G 4G 5G24G 9
  22778117.592      -47155.26049    -60988.56846  22778117.058    22778124.334
  20693440.815     -608264.19049   -720007.61048  20693441.069    20693446.648
  21865823.059    -1850178.55149  -1442430.90847  21865822.626    21865828.641
  20783203.962    -1513716.70749  -1247891.56648  20783203.877    20783210.415
  21095747.811     -616796.92649   -496439.59748  21095747.768    21095753.561
 03  3 20 17 17 30.0000000  0  5G 7G 4G 5G24G 9
  22790615.368       18520.56849     -9812.65746  22790614.846    22790622.139
  20698405.526     -582174.58449   -699678.04548  20698405.782    20698411.366
  21851853.018    -1923591.57149  -1499635.84747  21851852.598    21851858.605
  20774686.138    -1558478.20849  -1282770.64848  20774686.054    20774692.583
  21101146.796     -588425.11949   -474331.70948  21101146.760    21101152.552
 03  3 20 17 18  0.0000000  0  5G 7G 4G 5G24G 9
  22803122.447       84245.15749     41401.25846  22803121.917    22803129.214
  20703481.527     -555499.99849   -678892.65148  20703481.788    20703487.370
  21837917.540    -1996823.14949  -1556699.40247  21837917.124    21837923.106
  20766268.595    -1602712.80649  -1317239.15148  20766268.502    20766275.048
  21106654.055     -559484.57349   -451780.64848  21106654.027    21106659.802
 03  3 20 17 18 30.0000000  0  5G 7G 4G 5G24G 9
  22815638.840      150018.83649     92653.40246  22815638.272    22815645.568
  20708668.782     -528240.92249   -657651.81548  20708669.057    20708674.647
  21824017.102    -2069870.59249  -1613619.47747  21824016.688    21824022.686
  20757951.660    -1646418.54149  -1351295.55748  20757951.589    20757958.120
  21112269.473     -529975.51449   -428786.59447  21112269.450    21112275.217
 03  3 20 17 19  0.0000000  0  5G 7G 4G 5G24G 9
  22828165.026      215844.03849    143945.70246  22828164.470    22828171.768
  20713967.572     -500395.81449   -635954.33348  20713967.838    20713973.438
  21810152.598    -2142729.09849  -1670392.32847  21810152.176    21810158.175
  20749736.222    -1689590.91149  -1384936.36648  20749736.147    20749742.708
  21117993.375     -499896.50849   -405348.43048  21117993.337    21117999.098
 03  3 20 17 19 30.0000000  0  5G 7G 4G 5G24G 9
  22840700.221      281716.66249    195274.96446  22840699.682    22840706.988
  20719376.897     -471969.64949   -613804.07448  20719377.184    20719382.771
  21796323.700    -2215400.53149  -1727019.39747  21796323.279    21796329.295
  20741621.750    -1732232.65249  -1418163.68848  20741621.694    20741628.296
  21123824.778     -469252.48949   -381469.99048  21123824.730    21123830.481
 03  3 20 17 20  0.0000000  0  5G 7G 4G 5G24G 9
  22853244.449      347636.81749    246641.25546  22853243.889    22853251.227
  20724896.610     -442963.33049   -591201.75148  20724896.902    20724902.517
  21782530.859    -2287882.39649  -1783498.74947  21782530.458    21782536.437
  20733608.583    -1774342.06549  -1450976.20648  20733608.522    20733615.164
  21129763.603     -438043.93149   -357151.64848  21129763.579    21129769.312
 03  3 20 17 20 30.0000000  0  5G 7G 4G 5G24G 9
  22865797.697      413604.33049    298044.45646  22865797.168    22865804.510
  20730526.559     -413377.88149   -568148.16048  20730526.855    20730532.488
  21768774.531    -2360172.37149  -1839828.59147  21768774.141    21768780.126
  20725696.943    -1815917.90649  -1483372.95648  20725696.899    20725703.550
  21135809.671     -406271.79449   -332394.15148  21135809.663    21135815.396
 03  3 20 17 21  0.0000000  0  5G 7G 4G 5G24G 9
  22878359.935      479619.13149    349484.49846  22878359.431    22878366.791
  20736266.503     -383214.38149   -544644.14148  20736266.791    20736272.441
  21755055.081    -2432268.51949  -1896007.39447  21755054.679    21755060.676
  20717887.160    -1856958.51549  -1515352.64548  20717887.135    20717893.785
  21141962.852     -373936.90049   -307198.14948  21141962.844    21141968.573
 03  3 20 17 21 30.0000000  0  5G 7G 4G 5G24G 9
  22890930.959      545680.12549    400960.53646  22890930.518    22890937.886
  20742116.051     -352474.70749   -520691.15347  20742116.362    20742122.025
  21741372.773    -2504169.52349  -1952034.14247  21741372.371    21741378.376
  20710179.378    -1897463.40049  -1546914.88648  20710179.331    20710185.992
  21148222.735     -341041.23149   -281565.17947  21148222.720    21148228.455
 03  3 20 17 22  0.0000000  0  5G 7G 4G 5G24G 9
  22903510.834      611787.15349    452472.42846  22903510.399    22903517.718
  20748075.080     -321160.25749   -496290.28947  20748075.396    20748081.018
  21727728.038    -2575873.41849  -2007907.29747  21727727.667    21727733.640
  20702573.768    -1937431.46849  -1578058.82348  20702573.746    20702580.354
  21154589.090     -307586.30849   -255496.41847  21154589.103    21154594.816
 03  3 20 17 22 30.0000000  0  5G 7G 4G 5G24G 9
  22916099.380      677939.33649    504019.52946  22916098.905    22916106.213
  20754143.231     -289272.75149   -471442.89047  20754143.525    20754149.078
  21714121.192    -2647378.54949  -2063625.57547  21714120.777    21714126.692
  20695070.594    -1976861.64849  -1608783.63248  20695070.540    20695077.081
  21161061.663     -273573.40449   -228992.87247  21161061.642    21161067.334
 03  3 20 17 23  0.0000000  0  5G 7G 4G 5G24G 9
  22928696.456      744136.57649    555601.72246  22928695.974    22928703.219
  20760320.130     -256813.58949   -446150.04947  20760320.409    20760325.897
  21700552.477    -2718682.90349  -2119187.39947  21700552.080    21700557.960
  20687669.912    -2015753.09049  -1639088.64448  20687669.864    20687676.357
  21167640.173     -239003.63049   -202055.40647  21167640.158    21167645.830
 03  3 20 17 23 30.0000000  0  5G 7G 4G 5G24G 9
  22941301.990      810378.45949    607218.71346  22941301.507    22941308.744
  20766605.493     -223784.20249   -420412.87447  20766605.778    20766611.223
  21687022.345    -2789784.45149  -2174591.19547  21687021.967    21687027.835
  20680371.915    -2054104.73949  -1668973.04048  20680371.866    20680378.298
  21174324.341     -203878.45749   -174685.15947  21174324.330    21174329.977
 03  3 20 17 24  0.0000000  0  5G 7G 4G 5G24G 9
  22953915.902      876664.53149    658870.13646  22953915.414    22953922.677
  20772999.055     -190186.11749   -394232.55747  20772999.332    20773004.751
  21673531.170    -2860681.35349  -2229835.52947  21673530.787    21673536.633
  20673176.803    -2091915.58749  -1698436.03148  20673176.757    20673183.169
  21181113.909     -168199.32949   -146883.25847  21181113.910    21181119.537
 03  3 20 17 24 30.0000000  0  5G 7G 4G 5G24G 9
  22966538.082      942993.88949    710555.27746  22966537.587    22966544.831
  20779500.407     -156021.50349   -367610.78947  20779500.691    20779506.077
  21660079.166    -2931372.34849  -2284919.41447  21660078.760    21660084.589
  20666084.764    -2129184.91449  -1727477.05348  20666084.707    20666091.076
  21188008.509     -131968.20149   -118651.23147  21188008.507    21188014.143
 03  3 20 17 25  0.0000000  0  6G 7G 4G30G 5G24G 9
  22979165.589     1009351.65649    762262.56946  22979165.125    22979172.356
  20786106.543     -121306.32449   -340560.01247  20786106.828    20786112.203
  24344473.182    -2027482.03649  -1575094.65745  24344473.642    24344479.329
  21646663.943    -3001869.76549  -2339852.45847  21646663.557    21646669.378
  20659093.090    -2165926.55149  -1756106.88948  20659093.047    20659099.374
  21195005.137      -95200.86149    -90001.37847  21195005.113    21195010.774
 03  3 20 17 25 30.0000000  0  6G 7G 4G30G 5G24G 9
  22991801.848     1075755.22749    814005.54146  22991801.377    22991808.630
  20792820.494      -86024.42249   -313067.63447  20792820.780    20792826.139
  24325837.890    -2125410.85749  -1651402.80145  24325838.422    24325844.205
  21633289.322    -3072153.96749  -2394619.36047  21633288.956    21633294.776
  20652205.379    -2202121.94849  -1784311.09048  20652205.326    20652211.638
  21202106.863      -57881.28749    -60921.21147  21202106.837    21202112.478
 03  3 20 17 26  0.0000000  0  6G 7G 4G30G 5G24G 9
  23004447.228     1142206.74149    865785.87446  23004446.753    23004454.058
  20799642.457      -50174.98749   -285133.02247  20799642.747    20799648.090
  24307202.024    -2223343.11649  -1727713.62445  24307202.564    24307208.223
  21619956.160    -3142220.48449  -2449216.63947  21619955.776    21619961.589
  20645422.244    -2237767.68749  -1812086.98748  20645422.182    20645428.486
  21209313.885      -20008.46249    -31409.94347  21209313.847    21209319.501
 03  3 20 17 26 30.0000000  0  6G 7G 4G30G 5G24G 9
  23017101.180     1208703.21649    917601.25146  23017100.693    23017107.986
  20806571.653      -13762.15249   -256759.40047  20806571.930    20806577.251
  24288565.332    -2321279.80249  -1804027.89845  24288565.866    24288571.514
  21606664.295    -3212069.93649  -2503644.77947  21606663.898    21606669.717
  20638743.418    -2272865.23549  -1839435.71748  20638743.355    20638749.676
  21216625.409       18413.62449     -1470.67447  21216625.376    21216631.024
 03  3 20 17 27  0.0000000  0  6G 7G 4G30G 5G24G 9
  23029763.269     1275242.54049    969449.99146  23029762.797    23029770.064
  20813607.379       23210.58749   -227949.48547  20813607.669    20813612.992
  24269927.661    -2419221.61949  -1880346.18145  24269928.088    24269933.838
  21593413.746    -3281702.28949  -2557903.75147  21593413.331    21593419.149
  20632168.749    -2307415.49949  -1866357.99248  20632168.687    20632174.994
  21224040.840       57381.70149     28894.03847  21224040.802    21224046.448
 03  3 20 17 27 30.0000000  0  6G 7G 4G30G 5G24G 9
  23042433.279     1341823.40149   1021331.12346  23042432.796    23042440.044
  20820749.122       60740.58249   -198705.34847  20820749.415    20820754.745
  24251289.098    -2517167.92549  -1956667.95645  24251289.502    24251295.273
  21580204.628    -3351116.74449  -2611992.92647  21580204.225    21580210.010
  20625698.188    -2341418.64949  -1892853.94148  20625698.136    20625704.429
  21231559.666       96893.20749     59682.20747  21231559.637    21231565.271
 03  3 20 17 28  0.0000000  0  6G 7G 4G30G 5G24G 9
  23055111.049     1408444.91949   1073243.92146  23055110.569    23055117.771
  20827996.547       98825.84849   -169028.53647  20827996.828    20828002.164
  24232649.794    -2615117.89349  -2032992.57845  24232650.195    24232655.921
  21567037.335    -3420311.52649  -2665910.93247  21567036.941    21567042.721
  20619331.731    -2374874.67349  -1918923.56148  20619331.684    20619337.975
  21239181.529      136946.13449     90892.26047  21239181.501    21239187.126
 03  3 20 17 28 30.0000000  0  6G 7G 4G30G 5G24G 9
  23067796.480     1475107.04249   1125188.36046  23067796.017    23067803.220
  20835349.284      137464.70949   -138920.35047  20835349.588    20835354.904
  24214010.190    -2713069.81549  -2109318.74245  24214010.629    24214016.399
  21553912.227    -3489284.63449  -2719656.20647  21553911.817    21553917.571
  20613069.564    -2407782.67749  -1944566.15148  20613069.519    20613075.780
  21246906.117      177538.82749    122522.90947  21246906.073    21246911.704
 03  3 20 17 29  0.0000000  0  6G 7G 4G30G 5G24G 9
  23080489.494     1541808.76149   1177163.65646  23080488.990    23080496.228
  20842806.934      176654.78349   -108382.64647  20842807.235    20842812.566
  24195370.284    -2811022.85049  -2185645.76945  24195370.713    24195376.575
  21540829.546    -3558034.57649  -2773227.58047  21540829.144    21540834.874
  20606911.771    -2440142.24649  -1969781.38948  20606911.722    20606917.983
  21254732.984      218669.08049    154572.43747  21254732.945    21254738.603
 03  3 20 17 29 30.0000000  0  6G 7G 4G30G 5G24G 9
  23093189.927     1608549.62149   1229169.46446  23093189.407    23093196.704
  20850369.122      216394.11649    -77416.95747  20850369.400    20850374.728
  24176730.469    -2908975.73149  -2261972.67145  24176730.808    24176736.760
  21527789.721    -3626559.53749  -2826623.64447  21527789.312    21527795.060
  20600858.454    -2471952.60849  -1994568.67548  20600858.402    20600864.643
  21262661.787      260335.22649    187039.53647  21262661.775    21262667.437
 03  3 20 17 30  0.0000000  0  6G 7G 4G30G 5G24G 9
  23105897.808     1675329.54049   1281205.68646  23105897.261    23105904.560
  20858035.554      256681.29549    -46024.37047  20858035.822    20858041.158
  24158090.994    -3006926.70849  -2338298.08945  24158091.361    24158097.234
  21514793.086    -3694857.40749  -2879842.74847  21514792.679    21514798.420
  20594909.750    -2503213.40849  -2018927.72948  20594909.701    20594915.927
  21270692.335      302535.77249    219923.05347  21270692.326    21270697.978
 03  3 20 17 30 30.0000000  0  6G 7G 4G30G 5G24G 9
  23118612.906     1742147.49749   1333271.57546  23118612.378    23118619.646
  20865805.739      297513.80749    -14206.84847  20865806.033    20865811.373
  24139452.108    -3104875.08349  -2414621.47645  24139452.425    24139458.322
  21501839.883    -3762926.99749  -2932883.97947  21501839.476    21501845.194
  20589065.669    -2533924.33349  -2042858.31348  20589065.616    20589071.828
  21278824.100      345268.28949    253221.08947  21278824.096    21278829.764
 03  3 20 17 31  0.0000000  0  6G 7G 4G30G 5G24G 9
  23131335.154     1809003.23549   1385366.88346  23131334.640    23131341.913
  20873679.389      338889.90249     18034.24347  20873679.672    20873685.025
  24120813.978    -3202819.22549  -2490941.57645  24120814.248    24120820.123
  21488930.525    -3830766.23849  -2985745.71947  21488930.123    21488935.844
  20583326.377    -2564084.48849  -2066359.72248  20583326.330    20583332.539
  21287056.779      388531.29549    286932.49647  21287056.787    21287062.447
 03  3 20 17 31 30.0000000  0  6G 7G 4G30G 5G24G 9
  23144064.677     1875896.72249   1437491.61146  23144064.128    23144071.419
  20881656.183      380808.22749     50697.85247  20881656.470    20881661.838
  24102176.914    -3300757.39449  -2567257.01645  24102177.239    24102183.167
  21476065.440    -3898372.67649  -3038426.04847  21476065.050    21476070.751
  20577692.129    -2593692.86349  -2089431.16948  20577692.070    20577698.290
  21295390.136      432323.26849    321056.08847  21295390.178    21295395.831
 03  3 20 17 32  0.0000000  0  6G 7G 4G30G 5G24G 9
  23156801.179     1942827.48749   1489645.38746  23156800.701    23156807.997
  20889735.726      423266.27049     83782.02047  20889736.017    20889741.372
  24083541.256    -3398688.44949  -2643566.89545  24083541.561    24083547.553
  21463245.005    -3965744.53149  -3090923.57847  21463244.625    21463250.324
  20572162.817    -2622749.58749  -2112072.76148  20572162.768    20572168.986
  21303823.755      476642.18749    355590.28847  21303823.790    21303829.469
 03  3 20 17 32 30.0000000  0  6G 7G 4G30G 5G24G 9
  23169544.767     2009795.43249   1541828.13846  23169544.358    23169551.658
  20897917.729      466262.78749    117285.77747  20897918.032    20897923.374
  24064907.262    -3496610.67849  -2719869.91345  24064907.581    24064913.536
  21450469.608    -4032879.71449  -3143236.69647  21450469.209    21450474.936
  20566738.639    -2651253.75949  -2134283.79548  20566738.593    20566744.800
  21312357.380      521486.42849    390533.82947  21312357.402    21312363.081
 03  3 20 17 33  0.0000000  0  6G 7G 4G30G 5G24G 9
  23182295.353     2076799.85449   1594039.30046  23182294.951    23182302.267
  20906201.729      509795.29349    151207.19347  20906202.027    20906207.364
  24046275.208    -3594522.97849  -2796165.21145  24046275.530    24046281.417
  21437739.527    -4099776.73749  -3195364.23247  21437739.142    21437744.856
  20561419.681    -2679205.18349  -2156064.11948  20561419.645    20561425.849
  21320990.559      566853.96549    425885.13147  21320990.595    21320996.277
 03  3 20 17 33 30.0000000  0  6G 7G 4G30G 5G24G 9
  23195052.794     2143840.35449   1646278.58046  23195052.369    23195059.768
  20914587.339      553861.84149    185544.74347  20914587.632    20914592.976
  24027645.249    -3692423.84349  -2872451.57445  24027645.467    24027651.548
  21425055.144    -4166433.45149  -3247304.51347  21425054.793    21425060.494
  20556206.017    -2706603.14149  -2177413.16848  20556205.965    20556212.182
  21329722.919      612742.75949    461642.61047  21329722.960    21329728.667
 03  3 20 17 34  0.0000000  0  6G 7G 4G30G 5G24G 9
  23207817.141     2210916.91349   1698545.95646  23207816.653    23207824.121
  20923074.266      598460.82049    220297.17247  20923074.567    20923079.930
  24009017.753    -3790311.44549  -2948727.59245  24009017.953    24009024.185
  21412416.965    -4232847.60549  -3299055.78347  21412416.602    21412422.279
  20551097.828    -2733446.92549  -2198330.36748  20551097.781    20551103.993
  21338554.243      659151.28549    497805.07247  21338554.256    21338559.954
 03  3 20 17 34 30.0000000  0  6G 7G 4G30G 5G24G 9
  23220588.201     2278029.00149   1750841.02346  23220587.711    23220595.169
  20931662.053      643589.77449    255462.56947  20931662.362    20931667.729
  23990393.154    -3888184.66049  -3024992.44445  23990393.487    23990399.490
  21399825.252    -4299017.65249  -3350616.84247  21399824.869    21399830.550
  20546095.116    -2759736.40349  -2218815.66948  20546095.074    20546101.285
  21347484.034      706077.34649    534370.80647  21347484.004    21347489.721
 03  3 20 17 35  0.0000000  0  6G 7G 4G30G 5G24G 9
  23233366.034     2345176.46049   1803163.63746  23233365.496    23233373.033
  20940350.415      689247.24649    291039.80147  20940350.707    20940356.103
  23971771.520    -3986041.75649  -3101244.70845  23971771.868    23971777.809
  21387280.340    -4364941.44449  -3401986.01647  21387279.984    21387285.648
  20541197.984    -2785471.10549  -2238868.68148  20541197.925    20541204.150
  21356511.849      753518.99749    571338.30147  21356511.874    21356517.597
 03  3 20 17 35 30.0000000  0  6G 7G 4G30G 5G24G 9
  23246149.877     2412355.77549   1855511.08546  23246149.315    23246156.940
  20949138.282      735427.78449    327024.61547  20949138.583    20949143.983
  23953152.599    -4083884.35949  -3177485.69245  23953152.947    23953158.804
  21374782.086    -4430620.16949  -3453164.22747  21374781.717    21374787.398
  20536405.841    -2810653.84649  -2258491.58948  20536405.792    20536412.005
  21365636.916      801471.45549    608703.82747  21365636.957    21365642.673
 03  3 20 17 36  0.0000000  0  6G 7G 4G30G 5G24G 9
  23258940.584     2479571.17549   1907886.63046  23258940.050    23258947.702
  20958026.198      782133.83949    363418.92747  20958026.490    20958031.893
  23934537.603    -4181706.67449  -3253710.85845  23934538.004    23934543.877
  21362331.628    -4496047.68049  -3504146.69047  21362331.246    21362336.949
  20531719.677    -2835279.97849  -2277680.78148  20531719.626    20531725.828
  21374859.707      849937.21049    646469.32947  21374859.713    21374865.432
 03  3 20 17 36 30.0000000  0  6G 7G 4G30G 5G24G 9
  23271737.971     2546821.75049   1960289.59446  23271737.521    23271745.143
  20967013.571      829362.77049    400220.67147  20967013.858    20967019.276
  23915926.654    -4279507.64549  -3329919.38945  23915927.048    23915932.976
  21349929.238    -4561222.69049  -3554932.40447  21349928.852    21349934.551
  20527139.294    -2859349.93949  -2296436.58548  20527139.247    20527145.451
  21384179.612      898913.38249    684632.55647  21384179.590    21384185.298
 03  3 20 17 37  0.0000000  0  6G 7G 4G30G 5G24G 9
  23284541.875     2614106.36449   2012719.07646  23284541.417    23284549.045
  20976099.954      877111.83149    437427.71247  20976100.248    20976105.668
  23897319.981    -4377286.49049  -3406110.69145  23897320.419    23897326.234
  21337575.127    -4626144.00149  -3605520.43147  21337574.725    21337580.448
  20522664.783    -2882863.84249  -2314759.10748  20522664.715    20522670.922
  21393596.142      948397.52349    723191.60747  21393596.142    21393601.864
 03  3 20 17 37 30.0000000  0  6G 7G 4G30G 5G24G 9
  23297352.180     2681424.78449   2065174.91146  23297351.749    23297359.369
  20985284.855      925378.75149    475038.28647  20985285.139    20985290.549
  23878717.763    -4475041.67749  -3482283.55445  23878718.218    23878724.038
  21325269.714    -4690809.32849  -3655908.99147  21325269.323    21325275.040
  20518296.172    -2905820.95449  -2332647.76348  20518296.119    20518302.319
  21403108.889      998387.51749    762144.82347  21403108.946    21403114.664
 03  3 20 17 38  0.0000000  0  6G 7G 4G30G 5G24G 9
  23310168.795     2748776.39049   2117656.60146  23310168.376    23310176.055
  20994567.862      974161.09449    513050.48647  20994568.143    20994573.558
  23860120.348    -4572772.02849  -3558437.06945  23860120.862    23860126.427
  21313013.333    -4755217.14149  -3706096.89047  21313012.958    21313018.666
  20514033.479    -2928221.52449  -2350102.75348  20514033.440    20514039.634
  21412717.590     1048881.01149    801490.38047  21412717.564    21412723.310
 03  3 20 17 38 30.0000000  0  6G 7G 4G30G 5G24G 9
  23322991.644     2816160.65949   2170163.73446  23322991.219    23322998.921
  21003948.539     1023456.77449    551462.68847  21003948.829    21003954.254
  23841527.874    -4670476.28049  -3634570.24145  23841528.323    23841534.005
  21300806.299    -4819365.57849  -3756082.67947  21300805.899    21300811.621
  20509876.682    -2950065.74049  -2367124.24248  20509876.648    20509882.814
  21422421.529     1099875.54349    841226.35747  21422421.516    21422427.267
 03  3 20 17 39  0.0000000  0  6G 7G 4G30G 5G24G 9
  23335820.860     2883578.14749   2222696.76346  23335820.428    23335828.151
  21013426.577     1073264.15449    590273.61447  21013426.877    21013432.301
  23822940.746    -4768152.01249  -3710681.18045  23822941.231    23822946.949
  21288649.126    -4883251.97949  -3805864.28247  21288648.725    21288654.441
  20505825.880    -2971352.82649  -2383711.58148  20505825.862    20505832.042
  21432220.532     1151369.76349    881351.69847  21432220.582    21432226.355
 03  3 20 17 39 30.0000000  0  6G 7G 4G30G 5G24G 9
  23348656.225     2951028.17049   2275255.12646  23348655.792    23348663.545
  21023001.514     1123580.69949    629481.29147  21023001.809    21023007.243
  23804359.328    -4865798.10249  -3786769.02345  23804359.815    23804365.598
  21276542.117    -4946874.82349  -3855440.51447  21276541.707    21276547.410
  20501881.087    -2992082.85349  -2399864.84648  20501881.073    20501887.248
  21442114.200     1203361.10149    921864.39647  21442114.243    21442120.020
 03  3 20 17 40  0.0000000  0  6G 7G 4G30G 5G24G 9
  23361497.742     3018510.31049   2327838.51546  23361497.341    23361505.056
  21032672.917     1174404.26249    669084.04947  21032673.203    21032678.662
  23785783.837    -4963413.04549  -3862832.61445  23785784.294    23785790.073
  21264485.558    -5010232.33349  -3904809.99247  21264485.163    21264490.878
  20498042.367    -3012255.42549  -2415583.72848  20498042.361    20498048.528
  21452102.029     1255847.52949    962762.88447  21452102.099    21452107.893
 03  3 20 17 40 30.0000000  0  6G 7G 4G30G 5G24G 9
  23374345.382     3086024.48249   2380446.87046  23374344.888    23374352.657
  21042440.415     1225732.71949    709080.22647  21042440.701    21042446.174
  23767214.557    -5060995.13349  -3938870.58345  23767214.910    23767220.855
  21252479.917    -5073322.44549  -3953971.11047  21252479.535    21252485.240
  20494309.695    -3031870.73549  -2430868.38448  20494309.685    20494315.868
  21462183.757     1308827.19549   1004045.71347  21462183.809    21462189.632
 03  3 20 17 41  0.0000000  0  6G 7G 4G30G 5G24G 9
  23387198.986     3153570.04949   2433079.68146  23387198.469    23387206.290
  21052303.496     1277563.62549    749467.92647  21052303.813    21052309.276
  23748651.797    -5158543.12549  -4014881.98945  23748652.240    23748658.071
  21240525.430    -5136143.58949  -4002922.64447  21240525.070    21240530.763
  20490683.010    -3050929.12549  -2445719.07748  20490683.015    20490689.180
  21472358.820     1362297.40349   1045710.78347  21472358.885    21472364.699
 03  3 20 17 41 30.0000000  0  6G 7G 4G30G 5G24G 9
  23400058.496     3221146.79349   2485736.79246  23400058.016    23400065.818
  21062261.755     1329894.56449    790245.25647  21062262.099    21062267.571
  23730095.782    -5256055.45649  -4090865.60545  23730096.236    23730102.121
  21228622.556    -5198693.62049  -4051662.91547  21228622.191    21228627.889
  20487162.398    -3069429.90749  -2460135.27048  20487162.413    20487168.580
  21482626.860     1416256.11149   1087756.49647  21482626.887    21482632.707
 03  3 20 17 42  0.0000000  0  6G 7G 4G30G 5G24G 9
  23412923.945     3288754.61449   2538418.11246  23412923.440    23412931.184
  21072314.754     1382723.48949    831410.63047  21072315.090    21072320.577
  23711546.946    -5353530.35549  -4166820.04045  23711547.288    23711553.285
  21216771.655    -5260970.44049  -4100190.29947  21216771.295    21216776.987
  20483747.904    -3087373.18249  -2474117.04248  20483747.916    20483754.099
  21492987.429     1470701.18049   1130181.19247  21492987.484    21492993.303
 03  3 20 17 42 30.0000000  0  6G 7G 4G30G 5G24G 9
  23425795.250     3356393.41149   2591123.56746  23425794.730    23425802.549
  21082462.199     1436048.55249    872962.60347  21082462.535    21082468.019
  23693005.593    -5450965.82449  -4242743.78145  23693005.993    23693011.848
  21204973.184    -5322971.79149  -4148503.02947  21204972.833    21204978.515
  20480439.520    -3104758.83949  -2487664.30348  20480439.537    20480445.717
  21503440.157     1525630.44549   1172983.19047  21503440.198    21503446.025
 03  3 20 17 43  0.0000000  0  6G 7G 4G30G 5G24G 9
  23438672.376     3424063.05149   2643853.06546  23438671.875    23438679.797
  21092703.563     1489867.23649    914899.21647  21092703.915    21092709.392
  23674472.049    -5548360.49649  -4318635.71445  23674472.454    23674478.165
  21193227.461    -5384695.86849  -4196599.69847  21193227.114    21193232.800
  20477237.296    -3121586.67649  -2500776.90348  20477237.324    20477243.489
  21513984.625     1581041.87349   1216160.89547  21513984.688    21513990.493
 03  3 20 17 43 30.0000000  0  6G 7G 4G30G 5G24G 9
  23451555.358     3491763.22649   2696606.34246  23451554.926    23451562.793
  21103038.478     1544177.43949    957218.82947  21103038.840    21103044.333
  23655946.490    -5645712.79149  -4394494.62645  23655946.988    23655952.672
  21181534.918    -5446140.65949  -4244478.74747  21181534.579    21181540.267
  20474141.178    -3137856.80349  -2513454.92648  20474141.207    20474147.375
  21524620.395     1636933.00149   1259712.39247  21524620.425    21524626.238
 03  3 20 17 44  0.0000000  0  6G 7G 4G30G 5G24G 9
  23464444.028     3559493.45549   2749383.04546  23464443.673    23464451.507
  21113466.396     1598976.41249    999919.30847  21113466.761    21113472.256
  23637429.334    -5743021.13349  -4470319.29245  23637429.848    23637435.467
  21169895.797    -5507304.49049  -4292138.87247  21169895.476    21169901.147
  20471151.186    -3153569.42549  -2525698.52448  20471151.217    20471157.376
  21535346.938     1693301.41649   1303635.80647  21535347.029    21535352.836
 03  3 20 17 44 30.0000000  0  6G 7G 4G30G 5G24G 9
  23477338.501     3627253.88249   2802183.28546  23477338.117    23477346.004
  21123986.979     1654262.39349   1042999.26847  21123987.348    21123992.837
  23618920.903    -5840283.52449  -4546108.15445  23618921.401    23618927.136
  21158310.612    -5568184.99849  -4339578.22147  21158310.307    21158315.990
  20468267.246    -3168724.55349  -2537507.71848  20468267.293    20468273.449
  21546164.045     1750145.26949   1347929.68747  21546164.081    21546169.905
 03  3 20 17 45  0.0000000  0  6G 7G 4G30G 5G24G 9
  23490238.607     3695043.99049   2855006.62446  23490238.206    23490246.087
  21134599.716     1710032.64549   1086456.58247  21134600.091    21134605.592
  23600421.403    -5937498.71549  -4621860.23045  23600421.928    23600427.726
  21146779.628    -5628780.66849  -4386795.61847  21146779.329    21146785.004
  20465489.403    -3183322.13649  -2548882.45948  20465489.466    20465495.620
  21557070.992     1807461.71249   1392591.82347  21557071.070    21557076.891
 03  3 20 17 45 30.0000000  0  6G 7G 4G30G 5G24G 9
  23503144.355     3762863.56749   2907852.95646  23503143.922    23503151.918
  21145304.184     1766284.94449   1130289.52347  21145304.570    21145310.067
  23581931.266    -6034665.04549  -4697574.25245  23581931.788    23581937.516
  21135303.257    -5689089.45949  -4433789.47247  21135302.954    21135308.626
  20462817.614    -3197362.61049  -2559823.08848  20462817.656    20462823.811
  21568067.509     1865248.65049   1437620.57647  21568067.577    21568073.406
 03  3 20 17 46  0.0000000  0  6G 7G 4G30G 5G24G 9
  23516055.719     3830712.47049   2960722.11945  23516055.253    23516063.204
  21156099.985     1823017.01049   1174496.30047  21156100.376    21156105.859
  23563450.729    -6131780.64849  -4773248.71645  23563451.342    23563457.028
  21123881.836    -5749109.25949  -4480558.13547  21123881.541    21123887.225
  20460251.900    -3210845.63749  -2570329.34848  20460251.942    20460258.070
  21579153.140     1923503.77349   1483014.14747  21579153.183    21579159.024
 03  3 20 17 46 30.0000000  0  6G 7G 4G30G 5G24G 9
  23528972.584     3898590.58949   3013614.05345  23528972.112    23528980.075
  21166986.630     1880226.56049   1219075.14147  21166987.020    21166992.501
  23544980.194    -6228843.83449  -4848882.36145  23544980.810    23544986.521
  21112515.830    -5808837.93949  -4527099.95647  21112515.540    21112521.234
  20457792.155    -3223771.61849  -2580401.54648  20457792.215    20457798.327
  21590327.397     1982224.71549   1528770.69047  21590327.427    21590333.282
 03  3 20 17 47  0.0000000  0  6G 7G 4G30G 5G24G 9
  23541894.893     3966497.57049   3066528.46945  23541894.486    23541902.403
  21177963.634     1937911.06949   1264024.08547  21177964.040    21177969.484
  23526519.962    -6325853.07549  -4924473.97145  23526520.568    23526526.302
  21101205.626    -5868273.50449  -4573413.37247  21101205.359    21101211.023
  20455438.403    -3236140.71549  -2590039.80648  20455438.455    20455444.581
  21601589.806     2041408.98749   1574888.27747  21601589.870    21601595.698
 03  3 20 17 47 30.0000000  0  6G 7G 4G30G 5G24G 9
  23554822.786     4034433.91149   3119465.75945  23554822.405    23554830.363
  21189030.739     1996068.83049   1309341.79347  21189031.139    21189036.580
  23508070.445    -6422805.78549  -5000021.52345  23508071.031    23508076.817
  21089951.690    -5927413.35549  -4619496.36747  21089951.420    21089957.071
  20453190.694    -3247952.64449  -2599243.91248  20453190.751    20453196.865
  21612940.085     2101055.02149   1621365.67847  21612940.153    21612945.992
 03  3 20 17 48  0.0000000  0  6G 7G 4G30G 5G24G 9
  23567756.154     4102398.88549   3172425.37345  23567755.841    23567763.741
  21200187.323     2054696.91249   1355025.99247  21200187.715    21200193.167
  23489631.915    -6519700.98549  -5075524.27845  23489632.456    23489638.173
  21078754.308    -5986256.10349  -4665347.85047  21078754.032    21078759.689
  20451048.827    -3259208.15449  -2608014.44048  20451048.883    20451055.004
  21624377.704     2161159.94549   1668200.65347  21624377.795    21624383.614
 03  3 20 17 48 30.0000000  0  6G 7G 4G30G 5G24G 9
  23580694.922     4170392.16249   3225407.06145  23580694.664    23580702.576
  21211432.916     2113792.74949   1401074.67447  21211433.310    21211438.748
  23471204.628    -6616537.17049  -5150981.03345  23471205.172    23471210.868
  21067613.763    -6044799.96249  -4710966.42947  21067613.495    21067619.153
  20449012.786    -3269907.63849  -2616351.70048  20449012.853    20449018.958
  21635902.114     2221721.05249   1715391.09747  21635902.216    21635908.046
 03  3 20 17 49  0.0000000  0  6G 7G 4G30G 5G24G 9
  23593639.139     4238413.82649   3278410.85245  23593638.874    23593646.825
  21222767.097     2173354.15049   1447486.13047  21222767.494    21222772.942
  23452788.977    -6713312.23449  -5226390.16445  23452789.511    23452795.149
  21056530.509    -6103042.84449  -4756350.48347  21056530.247    21056535.906
  20447082.611    -3280050.76049  -2624255.43448  20447082.679    20447088.788
  21647512.939     2282736.11049   1762935.26547  21647513.028    21647518.861
 03  3 20 17 49 30.0000000  0  6G 7G 4G30G 5G24G 9
  23606588.669     4306463.62949   3331436.55645  23606588.359    23606596.349
  21234189.437     2233378.78649   1494258.55047  21234189.846    21234195.292
  23434385.214    -6810024.46349  -5301750.35345  23434385.793    23434391.306
  21045504.905    -6160982.80949  -4801498.49947  21045504.630    21045510.292
  20445258.209    -3289638.18949  -2631726.15948  20445258.262    20445264.373
  21659209.664     2344202.61049   1810831.20647  21659209.741    21659215.579
 03  3 20 17 50  0.0000000  0  6G 7G 4G30G 5G24G 9
  23619543.525     4374541.52849   3384484.12445  23619543.230    23619551.210
  21245699.443     2293864.24149   1541390.04747  21245699.858    21245705.312
  23415993.772    -6906672.01149  -5377060.11245  23415994.335    23415999.962
  21034537.354    -6218617.72549  -4846408.81747  21034537.083    21034542.733
  20443539.510    -3298670.11549  -2638764.02648  20443539.592    20443545.672
  21670991.885     2406118.28349   1859077.14647  21670991.964    21670997.803
 03  3 20 17 50 30.0000000  0  6G 7G 4G30G 5G24G 9
  23632503.740     4442647.39849   3437553.53245  23632503.509    23632511.528
  21257296.710     2354808.11349   1588878.75647  21257297.129    21257302.587
  23397615.022    -7003253.11649  -5452318.10245  23397615.548    23397621.194
  21023628.246    -6275945.63749  -4891079.91547  21023627.965    21023633.622
  20441926.447    -3307146.79849  -2645369.23648  20441926.529    20441932.628
  21682859.095     2468480.87849   1907671.33647  21682859.189    21682865.041
 03  3 20 17 51  0.0000000  0  6G 7G 4G30G 5G24G 9
  23645469.128     4510780.65649   3490644.25345  23645468.932    23645476.915
  21268980.624     2416207.35349   1636722.29947  21268981.041    21268986.488
  23379249.145    -7099766.51249  -5527523.34045  23379249.602    23379255.259
  21012777.838    -6332964.86249  -4935510.47247  21012777.567    21012783.210
  20440418.899    -3315068.93849  -2651542.33148  20440418.982    20440425.089
  21694810.833     2531287.30349   1956611.37647  21694810.905    21694816.745
 03  3 20 17 51 30.0000000  0  6G 7G 4G30G 5G24G 9
  23658439.829     4578941.59649   3543756.56745  23658439.603    23658447.628
  21280750.858     2478060.19249   1684919.29547  21280751.262    21280756.704
  23360896.651    -7196209.78749  -5602673.93245  23360897.137    23360902.735
  21001986.636    -6389673.01249  -4979698.63047  21001986.377    21001992.018
  20439016.970    -3322436.30549  -2657283.14348  20439017.063    20439023.175
  21706846.530     2594535.40249   2005895.57047  21706846.643    21706852.484
 03  3 20 17 52  0.0000000  0  6G 7G 4G30G 5G24G 9
  23671415.825     4647130.27049   3596890.48345  23671415.470    23671423.612
  21292606.940     2540364.10849   1733467.78247  21292607.325    21292612.784
  23342557.758    -7292581.19749  -5677768.51345  23342558.213    23342563.892
  20991255.030    -6446068.01449  -5023642.78847  20991254.767    20991260.415
  20437720.412    -3329249.70049  -2662592.28548  20437720.481    20437726.611
  21718965.929     2658222.95349   2055522.20447  21718966.033    21718971.892
 03  3 20 17 52 30.0000000  0  6G 7G 4G30G 5G24G 9
  23684396.909     4715345.74749   3650045.28545  23684396.523    23684404.654
  21304548.278     2603116.16149   1782365.46147  21304548.668    21304554.108
  23324232.791    -7388879.57349  -5752806.21545  23324233.259    23324238.884
  20980583.256    -6502148.55049  -5067341.90547  20980582.985    20980588.633
  20436529.158    -3335509.91549  -2667470.38048  20436529.235    20436535.346
  21731168.284     2722346.85649   2105488.84447  21731168.405    21731174.308
 03  3 20 17 53  0.0000000  0  6G 7G 4G30G 5G24G 9
  23697383.187     4783588.58349   3703221.41045  23697382.753    23697390.959
  21316574.506     2666314.19449   1831610.65647  21316574.892    21316580.324
  23305922.212    -7485102.46149  -5827785.07245  23305922.656    23305928.291
  20969971.837    -6557911.99249  -5110793.94047  20969971.561    20969977.215
  20435443.157    -3341216.94149  -2671917.41848  20435443.227    20435449.342
  21743453.352     2786905.04549   2155793.89347  21743453.460    21743459.373
 03  3 20 17 53 30.0000000  0  6G 7G 4G30G 5G24G 9
  23710374.521     4851858.44749   3756418.58345  23710374.219    23710382.371
  21328685.138     2729955.79749   1881201.49147  21328685.538    21328690.962
  23287626.268    -7581248.29049  -5902703.88245  23287626.692    23287632.339
  20959421.092    -6613356.58049  -5153997.51347  20959420.805    20959426.437
  20434462.331    -3346371.28149  -2675933.79148  20434462.396    20434468.527
  21755820.511     2851894.69549   2206435.14147  21755820.619    21755826.519
 03  3 20 17 54  0.0000000  0  6G 7G 4G30G 5G24G 9
  23723371.154     4920155.56949   3809637.00345  23723370.812    23723379.045
  21340879.699     2794038.54649   1931136.07447  21340880.086    21340885.536
  23269345.441    -7677314.81449  -5977560.89645  23269345.917    23269351.475
  20948931.482    -6668479.91849  -5196950.76047  20948931.207    20948936.829
  20433586.649    -3350973.01549  -2679519.56448  20433586.732    20433592.863
  21768269.329     2917313.64049   2257410.90047  21768269.461    21768275.393
 03  3 20 17 54 30.0000000  0  6G 7G 4G30G 5G24G 9
  23736372.851     4988479.31249   3862876.15845  23736372.491    23736380.765
  21353157.669     2858559.62949   1981412.21647  21353158.056    21353163.513
  23251079.931    -7773300.75749  -6052355.12946  23251080.421    23251085.998
  20938503.243    -6723280.58949  -5239652.57847  20938502.986    20938508.616
  20432815.892    -3355023.42149  -2682675.73048  20432815.976    20432822.104
  21780799.260     2983158.73149   2308718.72247  21780799.386    21780805.340
 03  3 20 17 55  0.0000000  0  6G 7G 4G30G 5G24G 9
  23749379.566     5056829.77049   3916136.13945  23749379.246    23749387.566
  21365518.615     2923516.71149   2032028.10247  21365519.019    21365524.497
  23232830.165    -7869204.08349  -6127084.98446  23232830.626    23232836.195
  20928136.845    -6777756.38349  -5282101.24947  20928136.603    20928142.236
  20432149.989    -3358522.69849  -2685402.44448  20432150.087    20432156.214
  21793409.882     3049427.76949   2360356.89947  21793409.996    21793415.951
 03  3 20 17 55 30.0000000  0  7G 7G 4G30G 5G10G24G 9
  23762389.084     5125194.87449   3969407.52845  23762388.791    23762397.138
  21377959.701     2988895.11949   2082972.28747  21377960.126    21377965.625
  23214594.117    -7965034.96149  -6201758.37946  23214594.611    23214600.173
  20917830.336    -6831917.48649  -5324304.69947  20917830.098    20917835.731
  24569225.864    -2405607.24949  -1855782.20045  24569225.389    24569237.499
  20431586.559    -3361483.59849  -2687709.64448  20431586.667    20431592.797
  21806098.339     3116106.10249   2412314.00147  21806098.472    21806104.474
 03  3 20 17 56  0.0000000  0  7G 7G 4G30G 5G10G24G 9
  23775404.502     5193590.62049   4022702.77645  23775404.150    23775412.507
  21390483.575     3054708.38249   2134255.32047  21390483.976    21390489.501
  23196375.337    -8060775.40249  -6276361.31546  23196375.833    23196381.367
  20907587.145    -6885745.74849  -5366248.79847  20907586.889    20907592.525
  24550405.338    -2504508.98349  -1932848.27645  24550404.908    24550416.856
  20431128.600    -3363890.28749  -2689584.99348  20431128.694    20431134.833
  21818867.292     3183207.09949   2464600.44747  21818867.412    21818873.413
 03  3 20 17 56 30.0000000  0  7G 7G 4G30G 5G10G24G 9
  23788425.627     5262016.63449   4076021.63245  23788425.246    23788433.800
  21403089.712     3120953.94749   2185875.21447  21403090.129    21403095.658
  23178174.040    -8156423.90249  -6350892.61146  23178174.553    23178180.065
  20897407.634    -6939239.45249  -5407932.20247  20897407.366    20897413.001
  24531573.089    -2603472.11449  -2009962.20845  24531572.876    24531584.581
  20430775.930    -3365743.58749  -2691029.13148  20430776.028    20430782.188
  21831716.116     3250727.99749   2517214.09047  21831716.247    21831722.250
 03  3 20 17 57  0.0000000  0  7G 7G 4G30G 5G10G24G 9
  23801452.176     5330471.13149   4129362.66645  23801451.788    23801460.449
  21415777.257     3187627.48449   2237828.59547  21415777.666    21415783.233
  23159990.328    -8251979.98249  -6425351.88946  23159990.802    23159996.352
  20887291.870    -6992398.21349  -5449354.61247  20887291.599    20887297.241
  24512729.405    -2702495.28749  -2087122.90645  24512728.992    24512741.059
  20430528.139    -3367045.71549  -2692043.78148  20430528.240    20430534.385
  21844644.057     3318664.63449   2570151.69247  21844644.187    21844650.208
 03  3 20 17 57 30.0000000  0  7G 7G 4G30G 5G10G24G 9
  23814483.984     5398953.47349   4182725.39845  23814483.596    23814492.348
  21428545.672     3254725.72149   2290112.90947  21428546.086    21428551.660
  23141824.430    -8347442.60549  -6499738.33046  23141824.878    23141830.462
  20877240.071    -7045220.85449  -5490515.11347  20877239.798    20877245.436
  24493874.668    -2801576.25449  -2164328.64245  24493874.085    24493886.374
  20430384.913    -3367798.42249  -2692630.31348  20430385.019    20430391.167
  21857650.501     3387013.58849   2623410.57247  21857650.643    21857656.663
 03  3 20 17 58  0.0000000  0  7G 7G 4G30G 5G10G24G 9
  23827520.972     5467462.70749   4236109.09245  23827520.600    23827529.317
  21441394.231     3322245.32749   2342725.55847  21441394.671    21441400.252
  23123676.463    -8442810.65649  -6574051.08346  23123676.922    23123682.518
  20867252.465    -7097706.12849  -5531412.72647  20867252.182    20867257.832
  24475009.420    -2900713.03049  -2241577.86245  24475008.824    24475021.116
  20430345.959    -3368003.23849  -2692789.91548  20430346.066    20430352.219
  21870734.673     3455771.28749   2676987.95547  21870734.785    21870740.858
 03  3 20 17 58 30.0000000  0  7G 7G 4G30G 5G10G24G 9
  23840562.975     5535998.14249   4289513.19245  23840562.651    23840571.362
  21454322.350     3390183.04749   2395664.01147  21454322.811    21454328.399
  23105546.781    -8538082.77949  -6648289.09046  23105547.233    23105552.888
  20857329.304    -7149852.68949  -5572046.40847  20857329.032    20857334.656
  24456134.053    -2999903.27449  -2318868.75445  24456133.412    24456145.679
  20430411.052    -3367661.13049  -2692523.34548  20430411.161    20430417.314
  21883896.048     3524934.60349   2730881.40647  21883896.204    21883902.275
 03  3 20 17 59  0.0000000  0  7G 7G 4G30G 5G10G24G 9
  23853609.924     5604559.68249   4342937.65145  23853609.569    23853618.277
  21467329.609     3458536.45349   2448926.37547  21467330.046    21467335.643
  23087435.699    -8633257.00249  -6722450.80446  23087436.230    23087441.811
  20847470.996    -7201658.50849  -5612414.58247  20847470.726    20847476.358
  24437249.004    -3099143.98149  -2396198.95145  24437248.456    24437260.541
  20430580.132    -3366772.75449  -2691831.11448  20430580.253    20430586.379
  21897134.145     3594500.98149   2785088.93047  21897134.289    21897140.351
 03  3 20 17 59 30.0000000  0  7G 7G 4G30G 5G10G24G 9
  23866661.848     5673147.59949   4396382.65145  23866661.534    23866670.257
  21480415.478     3527303.04149   2502510.69747  21480415.917    21480421.530
  23069343.642    -8728331.28549  -6796534.64446  23069344.146    23069349.781
  20837677.893    -7253121.60049  -5652515.69547  20837677.636    20837683.258
  24418354.936    -3198431.88649  -2473565.91345  24418354.515    24418366.513
  20430853.038    -3365338.65549  -2690713.64348  20430853.145    20430859.295
  21910448.411     3664467.70649   2839608.40647  21910448.542    21910454.627
 03  3 20 18  0  0.0000000  0  7G 7G 4G30G 5G10G24G 9
  23879718.729     5741761.25349   4449847.70945  23879718.435    23879727.119
  21493579.460     3596480.04449   2556414.81947  21493579.904    21493585.533
  23051270.879    -8823304.05649  -6870539.36946  23051271.397    23051277.099
  20827950.351    -7304240.27649  -5692348.43047  20827950.080    20827955.727
  24399452.451    -3297764.32149  -2550967.57245  24399451.991    24399463.963
  20431229.622    -3363359.76449  -2689171.65848  20431229.724    20431235.879
  21923838.295     3734831.88949   2894437.60247  21923838.452    21923844.553
 03  3 20 18  0 30.0000000  0  7G 7G 4G30G 5G10G24G 9
  23892780.569     5810401.15849   4503333.22645  23892780.243    23892789.041
  21506821.056     3666065.04049   2610636.86247  21506821.487    21506827.125
  23033217.860    -8918173.06449  -6944463.25646  23033218.415    23033224.101
  20818288.768    -7355012.24349  -5731911.00247  20818288.509    20818294.157
  24380542.151    -3397137.95449  -2628401.31945  24380541.762    24380553.416
  20431709.724    -3360836.84549  -2687205.75748  20431709.822    20431715.997
  21937303.353     3805591.10749   2949574.60947  21937303.511    21937309.619
 03  3 20 18  1  0.0000000  0  7G 7G 4G30G 5G10G24G 9
  23905847.359     5879067.15649   4556839.07545  23905847.066    23905855.861
  21520139.830     3736055.52249   2665174.86147  21520140.267    21520145.924
  23015184.986    -9012936.34049  -7018304.74746  23015185.518    23015191.229
  20808693.562    -7405435.30449  -5771201.70647  20808693.301    20808698.952
  24361624.641    -3496549.96049  -2705864.98145  24361624.209    24361635.710
  20432293.227    -3357770.65949  -2684816.53148  20432293.328    20432299.512
  21950843.124     3876742.63949   3005017.31347  21950843.277    21950849.355
 03  3 20 18  1 30.0000000  0  7G 7G 4G30G 5G10G24G 9
  23918919.002     5947758.73449   4610364.83845  23918918.806    23918927.493
  21533535.164     3806448.38349   2720026.40847  21533535.613    21533541.265
  22997172.546    -9107592.22149  -7092062.55246  22997173.048    22997178.779
  20799165.029    -7455508.03349  -5810219.42147  20799164.778    20799170.425
  24342700.122    -3595997.73749  -2783356.49845  24342699.640    24342711.347
  20432979.832    -3354162.57849  -2682005.04848  20432979.932    20432986.106
  21964456.938     3948283.38249   3060763.29547  21964457.073    21964463.151
 03  3 20 18  2  0.0000000  0  8G 6G 7G 4G30G 5G10G24G 9
  24827762.222    -4093666.74149  -3170557.22745  24827762.518    24827770.059
  23931995.384     6016474.52849   4663909.49145  23931995.144    23932003.881
  21547006.320     3877239.52549   2775188.30147  21547006.748    21547012.422
  22979180.652    -9202140.18449  -7165736.26646  22979181.154    22979186.940
  20789703.271    -7505229.99349  -5848963.81447  20789703.038    20789708.678
  24323769.200    -3695479.65249  -2860874.62945  24323768.696    24323780.279
  20433769.189    -3350014.47149  -2678772.77248  20433769.306    20433775.467
  21978143.985     4020209.09149   3116809.25747  21978144.127    21978150.223
 03  3 20 18  2 30.0000000  0  8G 6G 7G 4G30G 5G10G24G 9
  24813745.009    -4167327.79649  -3227955.40745  24813745.212    24813753.036
  23945076.225     6085214.32749   4717472.84145  23945075.969    23945084.668
  21560552.780     3948426.38949   2830658.54447  21560553.210    21560558.892
  22961209.650    -9296578.48949  -7239324.53746  22961210.134    22961215.972
  20780308.636    -7554599.19549  -5887433.32847  20780308.402    20780314.035
  24304832.255    -3794992.82249  -2938417.10645  24304831.686    24304843.384
  20434661.101    -3345327.53949  -2675120.62648  20434661.218    20434667.374
  21991903.741     4092516.91549   3173152.96347  21991903.892    21991910.012
 03  3 20 18  3  0.0000000  0  8G 6G 7G 4G30G 5G10G24G 9
  24799739.697    -4240927.11649  -3285305.47645  24799739.897    24799747.772
  23958162.255     6153981.13549   4771057.24745  23958162.020    23958170.759
  21574174.596     4020009.36149   2886437.44647  21574175.059    21574180.710
  22943260.442    -9390902.09549  -7312823.44146  22943260.961    22943266.721
  20770982.077    -7603610.74349  -5925624.15147  20770981.838    20770987.457
  24285890.622    -3894531.06949  -3015979.12745  24285890.168    24285901.574
  20435655.988    -3340099.50749  -2671046.84348  20435656.100    20435662.250
  22005736.270     4165207.15449   3229794.65747  22005736.435    22005742.550
 03  3 20 18  3 30.0000000  0  8G 6G 7G 4G30G 5G10G24G 9
  24785746.151    -4314465.23649  -3342607.92345  24785746.285    24785753.746
  23971253.315     6222774.45749   4824662.32945  23971253.027    23971261.794
  21587871.163     4091985.06649   2942522.36847  21587871.597    21587877.248
  22925333.354    -9485109.53249  -7386231.82546  22925333.892    22925339.610
  20761723.802    -7652263.35249  -5963535.28147  20761723.568    20761729.184
  24266944.596    -3994092.16849  -3093558.94545  24266944.214    24266955.537
  20436753.496    -3334332.09249  -2666552.76648  20436753.620    20436759.783
  22019640.924     4238276.40949   3286731.69047  22019641.080    22019647.212
 03  3 20 18  4  0.0000000  0  8G 6G 7G 4G30G 5G10G24G 9
  24771763.777    -4387942.49349  -3399862.91945  24771763.785    24771770.531
  23984349.303     6291593.86849   4878287.70745  23984349.020    23984357.810
  21601641.924     4164350.74649   2998911.16847  21601642.364    21601648.044
  22907428.688    -9579199.12849  -7459548.38046  22907429.257    22907434.938
  20752534.177    -7700555.31349  -6001165.38847  20752533.940    20752539.555
  24247994.741    -4093673.34849  -3171154.42645  24247994.314    24248005.541
  20437953.471    -3328026.22749  -2661639.11848  20437953.609    20437959.748
  22033617.130     4311721.77949   3343961.80247  22033617.284    22033623.439
 03  3 20 18  4 30.0000000  0  8G 6G 7G 4G30G 5G10G24G 9
  24757792.678    -4461358.93149  -3457070.49945  24757792.817    24757799.826
  23997450.302     6360439.46949   4931933.49345  23997449.921    23997458.755
  21615486.418     4237103.84449   3055601.85147  21615486.870    21615492.544
  22889546.829    -9673168.79149  -7532771.49146  22889547.386    22889553.093
  20743413.588    -7748484.44049  -6038512.76647  20743413.344    20743418.958
  24229041.701    -4193271.29349  -3248762.98045  24229041.234    24229052.581
  20439255.768    -3321182.75549  -2656306.55548  20439255.897    20439262.048
  22047664.460     4385540.62249   3401482.93147  22047664.589    22047670.780
 03  3 20 18  5  0.0000000  0  8G 6G 7G 4G30G 5G10G24G 9
  24743833.478    -4534715.23349  -3514231.23245  24743833.601    24743840.722
  24010556.087     6429310.63349   4985599.20545  24010555.778    24010564.659
  21629403.985     4310240.95449   3112591.77147  21629404.435    21629410.127
  22871688.082    -9767017.01649  -7605899.96046  22871688.679    22871694.408
  20734362.250    -7796049.55349  -6075576.49547  20734362.010    20734367.612
  24210085.946    -4292883.47349  -3326382.62045  24210085.547    24210096.799
  20440660.038    -3313803.35949  -2650556.38948  20440660.175    20440666.339
  22061782.146     4459729.35249   3459292.29047  22061782.276    22061788.482
 03  3 20 18  5 30.0000000  0  8G 6G 7G 4G30G 5G10G24G 9
  24729885.841    -4608011.37349  -3571345.05045  24729885.926    24729893.427
  24023666.846     6498207.51949   5039284.96545  24023666.461    24023675.472
  21643394.195     4383759.68349   3169879.04747  21643394.640    21643400.340
  22853852.851    -9860741.76649  -7678932.21346  22853853.467    22853859.171
  20725380.594    -7843248.51549  -6112354.91347  20725380.358    20725385.975
  24191128.120    -4392506.69749  -3404010.87245  24191127.681    24191138.854
  20442166.174    -3305888.72849  -2644389.15548  20442166.303    20442172.474
  22075969.672     4534285.31849   3517387.80647  22075969.824    22075976.055
 03  3 20 18  6  0.0000000  0  8G 6G 7G 4G30G 5G10G24G 9
  24715949.669    -4681247.68749  -3628412.26745  24715949.754    24715957.402
  24036782.495     6567129.96149   5092990.61145  24036782.151    24036791.086
  21657456.460     4457657.23549   3227461.51047  21657456.914    21657462.624
  22836041.548    -9954340.88649  -7751866.59446  22836042.136    22836047.837
  20716468.942    -7890079.70949  -6148846.76047  20716468.687    20716474.317
  24172168.762    -4492138.22449  -3481645.60445  24172168.287    24172179.301
  20443773.922    -3297439.93949  -2637805.69948  20443774.060    20443780.227
  22090226.590     4609205.77249   3575767.33047  22090226.764    22090232.976
 03  3 20 18  6 30.0000000  0  8G 6G 7G 4G30G 5G10G24G 9
  24702024.623    -4754424.02549  -3685432.74345  24702024.724    24702032.190
  24049902.948     6636078.17849   5146716.37745  24049902.618    24049911.610
  21671590.351     4531931.12749   3285337.22047  21671590.800    21671596.508
  22818254.495   -10047812.44149  -7824701.55446  22818255.091    22818260.823
  20707627.685    -7936540.92049  -6185050.30947  20707627.438    20707633.035
  24153208.343    -4591774.91749  -3559284.35145  24153207.822    24153218.913
  20445483.101    -3288458.32249  -2630807.05048  20445483.217    20445489.395
  22104552.360     4684487.86649   3634428.65747  22104552.517    22104558.766
 03  3 20 18  7  0.0000000  0  8G 6G 7G 4G30G 5G10G24G 9
  24688110.972    -4827540.96249  -3742406.97245  24688111.156    24688117.736
  24063028.277     6705051.64149   5200461.82045  24063027.942    24063036.975
  21685795.292     4606578.29249   3343503.80047  21685795.736    21685801.454
  22800492.039   -10141154.75149  -7897435.81046  22800492.617    22800498.335
  20698857.076    -7982630.74349  -6220964.46247  20698856.830    20698862.436
  24134247.529    -4691413.92949  -3636924.93045  24134247.050    24134258.196
  20447293.453    -3278944.94249  -2623394.03848  20447293.593    20447299.768
  22118946.291     4760128.39249   3693369.27247  22118946.462    22118952.698
 03  3 20 18  7 30.0000000  0  8G 6G 7G 4G30G 5G10G24G 9
  24674208.573    -4900598.18749  -3799334.68545  24674208.731    24674215.133
  24076158.535     6774050.99149   5254227.42245  24076158.212    24076167.178
  21700070.871     4681596.74149   3401959.68947  21700071.273    21700077.021
  22782754.709   -10234365.20549  -7970067.32646  22782755.317    22782760.945
  20690157.610    -8028346.75049  -6256587.32947  20690157.362    20690162.980
  24115286.855    -4791051.85449  -3714564.66945  24115286.295    24115297.394
  20449204.867    -3268900.48349  -2615567.20148  20449205.000    20449211.179
  22133408.061     4836125.14749   3752587.47047  22133408.220    22133414.465
 03  3 20 18  8  0.0000000  0  8G 6G 7G 4G30G 5G10G24G 9
  24660317.218    -4973596.30949  -3856216.31245  24660317.338    24660324.311
  24089293.489     6843075.38849   5308012.52945  24089293.168    24089302.204
  21714416.417     4756982.88049   3460702.08547  21714416.812    21714422.547
  22765042.746   -10327442.28949  -8042594.91946  22765043.308    22765048.959
  20681529.546    -8073687.68949  -6291917.93847  20681529.315    20681534.910
  24096326.951    -4890685.99749  -3792201.47045  24096326.331    24096337.448
  20451216.962    -3258326.68849  -2607327.89548  20451217.127    20451223.295
  22147936.915     4912474.44849   3812080.38547  22147937.052    22147943.321
 03  3 20 18  8 30.0000000  0  8G 6G 7G 4G30G 5G10G24G 9
  24646437.561    -5046534.21049  -3913051.01145  24646437.796    24646445.103
  24102433.496     6912126.23349   5361818.24545  24102433.183    24102442.190
  21728831.662     4832735.38149   3519729.97047  21728832.103    21728837.828
  22747356.689   -10420382.98549  -8115016.24146  22747357.302    22747362.910
  20672973.441    -8118650.44349  -6326953.85247  20672973.208    20672978.809
  24077368.593    -4990311.99649  -3869831.94145  24077367.965    24077378.971
  20453329.862    -3247223.53149  -2598676.09748  20453330.014    20453336.193
  22162532.503     4989174.57249   3871846.66947  22162532.618    22162538.912
 03  3 20 18  9  0.0000000  0  8G 6G 7G 4G30G 5G10G24G 9
  24632569.340    -5119413.09749  -3969839.76045  24632569.507    24632576.850
  24115578.394     6981202.29849   5415643.62145  24115577.982    24115587.057
  21743315.893     4908850.28349   3579040.23147  21743316.335    21743322.062
  22729696.876   -10513186.09849  -8187330.35746  22729697.458    22729703.053
  20664489.436    -8163234.26549  -6361694.49247  20664489.212    20664494.797
  24058412.050    -5089928.07049  -3947454.65345  24058411.499    24058422.529
  20455543.112    -3235592.92149  -2589613.30048  20455543.262    20455549.437
  22177194.125     5066221.69749   3931883.35747  22177194.248    22177200.528
 03  3 20 18  9 30.0000000  0  8G 6G 7G 4G30G 5G10G24G 9
  24618712.076    -5192232.80249  -4026582.36345  24618712.231    24618719.552
  24128728.075     7050304.06049   5469489.01145  24128727.630    24128736.939
  21757868.724     4985325.57549   3638631.31947  21757869.151    21757874.872
  22712063.655   -10605849.19549  -8259535.35846  22712064.275    22712069.843
  20656077.975    -8207436.78749  -6396138.01847  20656077.745    20656083.336
  24039458.242    -5189530.65149  -4025066.88145  24039457.710    24039468.584
  20457856.537    -3223435.83249  -2580140.25848  20457856.691    20457862.893
  22191921.259     5143613.40549   3992188.52747  22191921.432    22191927.770
 03  3 20 18 10  0.0000000  0  8G 6G 7G 4G30G 5G10G24G 9
  24604866.084    -5264993.08449  -4083278.66645  24604866.226    24604873.389
  24141882.761     7119431.83649   5523354.66645  24141882.301    24141891.678
  21772489.638     5062158.78349   3698501.29847  21772490.089    21772495.796
  22694457.527   -10698369.93049  -8331629.44146  22694458.143    22694463.712
  20647739.493    -8251255.90149  -6430282.78947  20647739.257    20647744.852
  24020507.479    -5289116.17549  -4102665.80445  24020506.949    24020517.754
  20460269.932    -3210753.23849  -2570257.73648  20460270.080    20460276.291
  22206713.559     5221347.17549   4052760.23747  22206713.712    22206720.080
 03  3 20 18 10 30.0000000  0  8G 6G 7G 4G30G 5G10G24G 9
  24591031.415    -5337694.25749  -4139928.97145  24591031.693    24591038.636
  24155042.352     7188585.46349   5577240.46545  24155041.922    24155051.347
  21787178.099     5139346.89049   3758647.83147  21787178.530    21787184.262
  22676878.897   -10790746.45149  -8403611.13646  22676879.503    22676885.019
  20639474.237    -8294690.07849  -6464127.61147  20639474.000    20639479.608
  24001560.665    -5388681.85049  -4180249.27945  24001560.106    24001570.789
  20462783.089    -3197546.59849  -2559966.86448  20462783.240    20462789.456
  22221570.335     5299419.67249   4113595.89547  22221570.467    22221576.824
 03  3 20 18 11  0.0000000  0  8G 6G 7G 4G30G 5G10G24G 9
  24577208.205    -5410337.08549  -4196533.75945  24577208.432    24577215.234
  24168206.720     7257764.21949   5631145.85345  24168206.328    24168215.709
  21801933.460     5216886.82649   3819068.51347  21801933.905    21801939.653
  22659327.963   -10882977.21749  -8475479.26246  22659328.563    22659334.083
  20631282.550    -8337737.81449  -6497671.30648  20631282.330    20631287.947
  23982617.986    -5488225.26849  -4257815.40345  23982617.449    23982628.061
  20465395.662    -3183817.49849  -2549268.88048  20465395.811    20465402.047
  22236490.875     5377827.48749   4174692.83147  22236491.038    22236497.372
 03  3 20 18 11 30.0000000  0  8G 6G 7G 4G30G 5G10G24G 9
  24563395.968    -5482921.08749  -4253092.69645  24563396.095    24563403.300
  24181376.079     7326968.84049   5685071.39545  24181375.721    24181385.154
  21816755.356     5294776.21549   3879761.49847  21816755.804    21816761.569
  22641805.305   -10975059.55649  -8547231.73246  22641805.894    22641811.397
  20623164.801    -8380396.85849  -6530912.12248  20623164.560    20623170.204
  23963680.271    -5587742.53549  -4335361.15045  23963679.720    23963690.470
  20468107.520    -3169566.67749  -2538164.36148  20468107.684    20468113.914
  22251474.788     5456568.30849   4236049.26447  22251474.974    22251481.313
 03  3 20 18 12  0.0000000  0  8G 6G 7G 4G30G 5G10G24G 9
  24549594.761    -5555446.44949  -4309605.92745  24549594.849    24549602.613
  24194550.255     7396199.13949   5739016.94345  24194549.941    24194559.313
  21831643.222     5373012.43949   3940724.73747  21831643.698    21831649.473
  22624311.241   -11066991.46649  -8618866.97846  22624311.845    22624317.389
  20615121.317    -8422665.50749  -6563848.73748  20615121.099    20615126.741
  23944748.202    -5687230.65449  -4412884.19745  23944747.666    23944758.335
  20470918.469    -3154795.21449  -2526654.14548  20470918.628    20470924.858
  22266521.517     5535639.10549   4297662.82847  22266521.728    22266528.046
 03  3 20 18 12 30.0000000  0  8G 6G 7G 4G30G 5G10G24G 9
  24535804.943    -5627912.93449  -4366073.30745  24535805.055    24535812.667
  24207729.368     7465455.40849   5792982.70945  24207729.038    24207738.630
  21846596.655     5451592.90049   4001956.21147  21846597.105    21846602.902
  22606846.288   -11158770.54949  -8690383.13546  22606846.846    22606852.438
  20607152.583    -8464541.59149  -6596479.45548  20607152.365    20607158.017
  23925822.393    -5786686.32949  -4490381.96345  23925821.849    23925832.426
  20473828.297    -3139504.01549  -2514738.94648  20473828.453    20473834.699
  22281630.529     5615037.22349   4359531.43247  22281630.708    22281637.047
 03  3 20 18 13  0.0000000  0  8G 6G 7G 4G30G 5G10G24G 9
  24522026.148    -5700321.05449  -4422495.24745  24522026.275    24522033.634
  24220913.411     7534737.55449   5846968.65245  24220913.211    24220922.656
  21861614.986     5530514.76849   4063453.71747  21861615.439    21861621.261
  22589410.807   -11250394.89849  -8761778.73946  22589411.316    22589416.906
  20599258.889    -8506023.28849  -6628802.86148  20599258.690    20599264.329
  23906903.282    -5886106.60249  -4567852.15245  23906902.726    23906913.062
  20476836.713    -3123694.77249  -2502420.07048  20476836.871    20476843.112
  22296801.216     5694759.50549   4421652.63847  22296801.425    22296807.748
 03  3 20 18 13 30.0000000  0  8G 6G 7G 4G30G 5G10G24G 9
  24508258.567    -5772670.42149  -4478871.39745  24508258.667    24508265.680
  24234102.571     7604046.13049   5900975.17345  24234102.460    24234111.696
  21876697.886     5609775.84449   4125215.54547  21876698.377    21876704.187
  22572005.135   -11341861.89449  -8833051.72346  22572005.705    22572011.338
  20591440.659    -8547108.32649  -6660817.18248  20591440.442    20591446.104
  23887991.547    -5985487.71349  -4645291.83145  23887991.068    23888001.274
  20479943.505    -3107368.58649  -2489698.38548  20479943.670    20479949.903
  22312033.102     5774803.41849   4484024.45647  22312033.301    22312039.639
 03  3 20 18 14  0.0000000  0  8G 6G 7G 4G30G 5G10G24G 9
  24494501.815    -5844961.81649  -4535202.32245  24494501.839    24494509.305
  24247296.523     7673380.37049   5955001.69545  24247296.306    24247305.726
  21891844.680     5689372.69449   4187239.01147  21891845.161    21891851.008
  22554629.788   -11433170.09849  -8904200.96946  22554630.334    22554635.935
  20583698.107    -8587795.77049  -6692521.68948  20583697.893    20583703.554
  23869087.748    -6084827.14049  -4722699.01145  23869087.206    23869097.493
  20483148.331    -3090527.25149  -2476575.28448  20483148.481    20483154.717
  22327325.572     5855165.43549   4546644.14647  22327325.744    22327332.096
 03  3 20 18 14 30.0000000  0  8G 6G 7G 4G30G 5G10G24G 9
  24480756.341    -5917194.91349  -4591487.85545  24480756.445    24480764.079
  24260495.502     7742740.59049   6009048.46745  24260495.209    24260504.698
  21907054.923     5769302.84249   4249522.19947  21907055.431    21907061.276
  22537285.101   -11524316.95149  -8975224.48946  22537285.662    22537291.256
  20576031.619    -8628083.42949  -6723914.67748  20576031.420    20576037.083
  23850192.562    -6184121.71949  -4800071.26945  23850191.976    23850202.268
  20486451.005    -3073171.65149  -2463051.45948  20486451.165    20486457.402
  22342678.093     5935842.99049   4609509.70547  22342678.226    22342684.592
 03  3 20 18 15  0.0000000  0  8G 6G 7G 4G30G 5G10G24G 9
  24467021.977    -5989370.05549  -4647728.20245  24467022.072    24467029.643
  24273699.392     7812126.93749   6063115.59145  24273698.987    24273708.604
  21922328.128     5849563.70849   4312063.08247  21922328.618    21922334.477
  22519971.503   -11615300.55049  -9046120.78446  22519972.038    22519977.681
  20568441.525    -8667969.67249  -6754994.87748  20568441.334    20568447.015
  23831306.497    -6283368.10849  -4877405.97445  23831305.910    23831316.153
  20489851.229    -3055303.49149  -2449128.23748  20489851.401    20489857.631
  22358090.084     6016833.14549   4672618.86247  22358090.206    22358096.587
 03  3 20 18 15 30.0000000  0  8G 6G 7G 4G30G 5G10G24G 9
  24453298.577    -6061487.24249  -4703923.42345  24453298.664    24453305.960
  24286908.261     7881539.35549   6117203.03445  24286907.893    24286917.615
  21937663.691     5930152.67849   4374859.63347  21937664.211    21937670.044
  22502689.396   -11706118.52049  -9116888.03246  22502689.952    22502695.578
  20560928.261    -8707452.28149  -6785760.55248  20560928.066    20560933.750
  23812430.301    -6382562.95449  -4954700.49345  23812429.698    23812439.924
  20493348.825    -3036923.65449  -2434806.30348  20493348.980    20493355.224
  22373560.933     6098132.86849   4735969.22947  22373561.086    22373567.484
 03  3 20 18 16  0.0000000  0  8G 6G 7G 4G30G 5G10G24G 9
  24439586.004    -6133546.16149  -4760073.23145  24439586.147    24439593.315
  24300122.242     7950978.52449   6171311.29345  24300121.915    24300131.646
  21953061.320     6011067.26749   4437909.91447  21953061.801    21953067.648
  22485439.236   -11796768.26849  -9187524.19446  22485439.864    22485445.543
  20553492.184    -8746529.16549  -6816210.08148  20553491.974    20553497.670
  23793564.517    -6481702.51549  -5031951.95945  23793563.909    23793574.027
  20496943.569    -3018033.25749  -2420086.53448  20496943.741    20496949.976
  22389090.171     6179739.68849   4799558.88847  22389090.355    22389096.816
 03  3 20 18 16 30.0000000  0  8G 6G 7G 4G30G 5G10G24G 9
  24425884.757    -6205547.19149  -4816177.93145  24425884.911    24425892.022
  24313341.132     8020443.92349   6225440.00945  24313340.884    24313350.480
  21968520.308     6092304.60549   4501211.68447  21968520.799    21968526.648
  22468221.551   -11887248.09849  -9258027.96246  22468222.154    22468227.836
  20546133.559    -8785199.02749  -6846342.44948  20546133.368    20546139.060
  23774709.828    -6580784.14049  -5109158.27145  23774709.241    23774719.342
  20500635.131    -2998634.08749  -2404970.31548  20500635.305    20500641.542
  22404677.317     6261650.44849   4863385.38547  22404677.544    22404684.011
 03  3 20 18 17  0.0000000  0  8G 6G 7G 4G30G 5G10G24G 9
  24412194.375    -6277490.66549  -4872237.78645  24412194.500    24412201.920
  24326565.182     8089935.59349   6279589.20845  24326564.820    24326574.419
  21984040.187     6173861.77749   4564762.67347  21984040.665    21984046.529
  22451036.581   -11977555.79749  -9328397.58746  22451037.161    22451042.845
  20538852.754    -8823460.02949  -6876156.23048  20538852.558    20538858.232
  23755866.682    -6679804.73449  -5186317.03945  23755866.136    23755876.168
  20504423.190    -2978727.71549  -2389458.87448  20504423.363    20504429.610
  22420321.697     6343862.02649   4927446.29847  22420321.934    22420328.393
 03  3 20 18 17 30.0000000  0  8G 6G 7G 4G30G 5G10G24G 9
  24398515.051    -6349376.26249  -4928252.53145  24398515.189    24398522.580
  24339794.216     8159454.02649   6333759.22245  24339793.950    24339803.649
  21999620.480     6255736.38949   4628561.01747  21999620.939    21999626.818
  22433884.858   -12067688.72549  -9398631.03746  22433885.444    22433891.142
  20531650.138    -8861310.06649  -6905649.77748  20531649.935    20531655.606
  23737035.837    -6778760.74749  -5263425.47345  23737035.252    23737045.310
  20508307.568    -2958315.26649  -2373553.09048  20508307.724    20508313.986
  22436022.778     6426371.71049   4991739.49647  22436023.054    22436029.530
 03  3 20 18 18  0.0000000  0  8G 6G 7G 4G30G 5G10G24G 9
  24384846.566    -6421204.71149  -4984222.76445  24384846.682    24384854.137
  24353028.203     8228998.67949   6387949.68645  24353027.950    24353037.737
  22015260.523     6337925.41449   4692604.35247  22015261.042    22015266.937
  22416766.695   -12157645.39249  -9468727.14346  22416767.265    22416772.932
  20524526.001    -8898747.82049  -6934822.06848  20524525.816    20524531.476
  23718217.889    -6877649.46649  -5340481.48245  23718217.380    23718227.320
  20512287.848    -2937399.01449  -2357254.73248  20512287.998    20512294.263
  22451780.014     6509175.89449   5056262.17547  22451780.276    22451786.739
 03  3 20 18 18 30.0000000  0  8G 6G 7G 4G30G 5G10G24G 9
  24371189.006    -6492975.46149  -5040148.03245  24371189.097    24371196.540
  24366267.392     8298570.32649   6442161.18345  24366267.044    24366277.015
  22030960.038     6420426.53449   4756890.88947  22030960.513    22030966.436
  22399682.604   -12247422.85049  -9538683.59946  22399683.172    22399688.867
  20517480.751    -8935770.91449  -6963671.24548  20517480.564    20517486.203
  23699413.383    -6976467.11049  -5417482.11845  23699412.898    23699422.795
  20516363.846    -2915979.51249  -2340564.22948  20516364.007    20516370.268
  22467592.797     6592272.36949   5121012.60847  22467593.029    22467599.518
 03  3 20 18 19  0.0000000  0  8G 6G 7G 4G30G 5G10G24G 9
  24357542.388    -6564689.16849  -5096028.85045  24357542.484    24357549.928
  24379511.613     8368168.39849   6496393.24345  24379511.255    24379521.276
  22046718.307     6503236.67549   4821418.21347  22046718.794    22046724.751
  22382632.951   -12337019.50049  -9608499.16346  22382633.515    22382639.214
  20510514.632    -8972378.30649  -6992196.49948  20510514.436    20510520.080
  23680622.929    -7075211.19049  -5494425.40945  23680622.456    23680632.379
  20520535.272    -2894058.66449  -2323483.06948  20520535.429    20520541.690
  22483460.506     6675657.44649   5185987.92047  22483460.764    22483467.267
 03  3 20 18 19 30.0000000  0  8G 6G 7G 4G30G 5G10G24G 9
  24343906.775    -6636345.53649  -5151864.98945  24343906.933    24343914.331
  24392760.982     8437793.40549   6550646.30745  24392760.683    24392770.563
  22062534.906     6586353.15849   4886184.24247  22062535.374    22062541.365
  22365618.182   -12426432.72749  -9678171.79946  22365618.774    22365624.471
  20503628.013    -9008567.79549  -7020396.11248  20503627.814    20503633.478
  23661847.192    -7173877.80349  -5571308.36545  23661846.754    23661856.615
  20524801.891    -2871637.51549  -2306012.06148  20524802.055    20524808.309
  22499382.654     6759328.62149   5251186.17347  22499382.891    22499389.417
 03  3 20 18 20  0.0000000  0  8G 6G 7G 4G30G 5G10G24G 9
  24330281.874    -6707944.89149  -5207656.68245  24330281.977    24330289.376
  24406015.349     8507445.04149   6604920.11145  24406015.077    24406024.824
  22078409.394     6669773.58849   4951187.12547  22078409.815    22078415.838
  22348638.658   -12515660.72349  -9747700.09546  22348639.249    22348644.899
  20496821.171    -9044337.89149  -7048268.92948  20496820.976    20496826.648
  23643086.733    -7272464.13749  -5648128.75945  23643086.382    23643096.073
  20529163.380    -2848717.87449  -2288152.62248  20529163.556    20529169.804
  22515358.648     6843282.53549   5316604.73547  22515358.831    22515365.407
 03  3 20 18 20 30.0000000  0  8G 6G 7G 4G30G 5G10G24G 9
  24316667.609    -6779486.95349  -5263403.75445  24316667.791    24316675.246
  24419274.973     8577123.82249   6659215.08245  24419274.828    24419284.532
  22094341.152     6753495.43749   5016424.87247  22094341.615    22094347.666
  22331694.984   -12604700.54249  -9817081.76046  22331695.559    22331701.164
  20490094.618    -9079686.41149  -7075813.23948  20490094.413    20490100.087
  23624342.266    -7370966.37849  -5724883.63745  23624341.888    23624351.552
  20533619.486    -2825300.86349  -2269905.62348  20533619.651    20533625.927
  22531387.918     6927516.73149   5382241.70347  22531388.084    22531394.662
 03  3 20 18 21  0.0000000  0  8G 6G 7G 4G30G 5G10G24G 9
  24303064.579    -6850972.12049  -5319106.48945  24303064.699    24303072.061
  24432539.707     8646829.81749   6713531.22345  24432539.495    24432549.389
  22110329.704     6837515.64849   5081895.10547  22110330.177    22110336.230
  22314787.411   -12693550.29949  -9886315.32646  22314788.014    22314793.586
  20483448.575    -9114611.70649  -7103027.76548  20483448.364    20483454.042
  23605614.437    -7469381.37649  -5801570.52445  23605614.023    23605623.735
  20538169.872    -2801388.61849  -2251272.72548  20538170.041    20538176.301
  22547469.910     7012027.97149   5448094.54247  22547470.101    22547476.681
 03  3 20 18 21 30.0000000  0  8G 6G 7G 4G30G 5G10G24G 9
  24289472.286    -6922400.28349  -5374764.78245  24289472.458    24289479.806
  24445809.694     8716563.20349   6767868.74745  24445809.598    24445819.464
  22126374.625     6921831.89049   5147596.02147  22126375.089    22126381.145
  22297916.519   -12782207.55149  -9955398.89246  22297917.133    22297922.657
  20476883.374    -9149112.05749  -7129911.16748  20476883.159    20476888.836
  23586903.818    -7567705.84849  -5878186.90045  23586903.427    23586913.056
  20542814.254    -2776982.29649  -2232254.83548  20542814.425    20542820.701
  22563604.096     7096813.40649   5514161.04747  22563604.272    22563610.888
 03  3 20 18 22  0.0000000  0  8G 6G 7G 4G30G 5G10G24G 9
  24275890.767    -6993772.13449  -5430379.24345  24275890.810    24275898.012
  24459084.736     8786323.42549   6822227.15345  24459084.597    24459094.562
  22142475.175     7006440.91349   5213525.07147  22142475.713    22142481.785
  22281082.563   -12870670.67349 -10024331.18246  22281083.177    22281088.706
  20470399.266    -9183186.39949  -7156462.61348  20470399.058    20470404.740
  23568210.916    -7665937.07649  -5954730.59745  23568210.477    23568220.086
  20547552.312    -2752083.82349  -2212853.45148  20547552.475    20547558.751
  22579789.760     7181869.43549   5580438.40046  22579789.936    22579796.567
 03  3 20 18 22 30.0000000  0  8G 6G 7G 4G30G 5G10G24G 9
  24262319.814    -7065087.18049  -5485949.42045  24262319.876    24262327.203
  24472365.059     8856111.26549   6876607.09745  24472364.935    24472374.940
  22158631.116     7091340.48849   5279680.52447  22158631.619    22158637.702
  22264286.092   -12958936.74349 -10093109.93046  22264286.695    22264292.182
  20463996.659    -9216832.38649  -7182680.27648  20463996.470    20464002.131
  23549536.547    -7764071.19449  -6031198.63045  23549536.056    23549545.702
  20552383.764    -2726694.47249  -2193069.56448  20552383.941    20552390.219
  22596026.484     7267193.70249   5646924.76746  22596026.666    22596033.300
 03  3 20 18 23  0.0000000  0  8G 6G 7G 4G30G 5G10G24G 9
  24248759.658    -7136345.56249  -5541475.42945  24248759.782    24248767.344
  24485650.677     8925926.74649   6931008.55545  24485650.557    24485660.512
  22174841.800     7176527.78949   5346060.17347  22174842.286    22174848.390
  22247527.509   -13047003.68549 -10161733.50746  22247528.077    22247533.589
  20457675.862    -9250048.43849  -7208562.92448  20457675.666    20457681.303
  23530881.251    -7862105.21749  -6107588.67045  23530880.710    23530890.358
  20557308.337    -2700815.75149  -2172904.35148  20557308.501    20557314.762
  22612313.591     7352782.89349   5713617.56946  22612313.811    22612320.479
 03  3 20 18 23 30.0000000  0  8G 6G 7G 4G30G 5G10G24G 9
  24235210.494    -7207547.37449  -5596957.36545  24235210.643    24235218.172
  24498941.560     8995769.81849   6985431.50845  24498941.386    24498951.462
  22191106.724     7262000.27049   5412662.04447  22191107.206    22191113.330
  22230807.247   -13134869.16549 -10230200.10446  22230807.842    22230813.316
  20451437.217    -9282832.87749  -7234109.24648  20451437.025    20451442.677
  23512245.610    -7960035.68049  -6183898.01045  23512245.090    23512254.712
  20562325.774    -2674449.15849  -2152358.97748  20562325.938    20562332.211
  22628650.608     7438634.15049   5780514.58046  22628650.821    22628657.536
 03  3 20 18 24  0.0000000  0  8G 6G 7G 4G30G 5G10G24G 9
  24221671.868    -7278693.32449  -5652395.78345  24221672.035    24221679.337
  24512237.573     9065640.14749   7039875.66245  24512237.521    24512247.713
  22207425.296     7347754.64049   5479483.57147  22207425.769    22207431.902
  22214125.680   -13222531.49049 -10298508.39146  22214126.261    22214131.739
  20445280.879    -9315184.66949  -7259318.43948  20445280.677    20445286.348
  23493630.169    -8057860.26449  -6260124.86645  23493629.588    23493639.109
  20567435.571    -2647597.12349  -2131435.33548  20567435.741    20567442.007
  22645036.871     7524743.83249   5847612.97246  22645036.997    22645043.726
 03  3 20 18 24 30.0000000  0  8G 6G 7G 4G30G 5G10G24G 9
  24208144.148    -7349782.46449  -5707789.95045  24208144.400    24208151.376
  24525538.975     9135538.52849   7094341.70745  24525538.882    24525549.063
  22223797.131     7433789.16249   5546523.39847  22223797.645    22223803.789
  22197483.411   -13309987.40349 -10366655.85346  22197483.952    22197489.448
  20439207.423    -9347101.03749  -7284188.34848  20439207.241    20439212.895
  23475035.724    -8155574.32249  -6336265.58945  23475035.171    23475044.713
  20572637.593    -2620260.39649  -2110134.01348  20572637.769    20572644.041
  22661471.957     7611110.27349   5914911.43446  22661472.089    22661478.777
 03  3 20 18 25  0.0000000  0  8G 6G 7G 4G30G 5G10G24G 9
  24194626.895    -7420815.62649  -5763140.42745  24194627.108    24194634.397
  24538845.703     9205464.75549   7148829.47645  24538845.631    24538855.829
  22240221.642     7520100.29749   5613778.76746  22240222.144    22240228.322
  22180880.670   -13397235.37549 -10434641.28046  22180881.186    22180886.716
  20433217.003    -9378581.02649  -7308718.21948  20433216.808    20433222.479
  23456462.811    -8253175.23349  -6412318.16445  23456462.319    23456471.846
  20577931.436    -2592441.31949  -2088456.83248  20577931.604    20577937.871
  22677955.062     7697729.45549   5982406.83846  22677955.208    22677961.922
 03  3 20 18 25 30.0000000  0  8G 6G 7G 4G30G 5G10G24G 9
  24181120.579    -7491792.53249  -5818447.09145  24181120.798    24181128.141
  24552157.699     9275419.12049   7203339.14145  24552157.425    24552167.740
  22256698.381     7606686.09949   5681248.15646  22256698.908    22256705.103
  22164318.039   -13484272.49749 -10502462.40646  22164318.571    22164324.108
  20427309.998    -9409622.57849  -7332906.45048  20427309.818    20427315.479
  23437912.119    -8350659.31549  -6488279.66845  23437911.643    23437921.089
  20583316.799    -2564141.04349  -2066404.69548  20583316.976    20583323.248
  22694485.736     7784598.63049   6050097.03046  22694485.924    22694492.660
 03  3 20 18 26  0.0000000  0  8G 6G 7G 4G30G 5G10G24G 9
  24167624.832    -7562713.64849  -5873710.32645  24167624.982    24167632.098
  24565475.126     9345401.42649   7257870.56445  24565474.895    24565485.005
  22273226.860     7693543.41249   5748929.12246  22273227.385    22273233.574
  22147795.888   -13571097.01349 -10570117.86646  22147796.420    22147801.959
  20421486.675    -9440224.45149  -7356752.07248  20421486.499    20421492.161
  23419384.222    -8448023.69349  -6564147.93745  23419383.688    23419393.173
  20588793.403    -2535361.57949  -2043979.16248  20588793.575    20588799.852
  22711063.409     7871714.39749   6117979.37446  22711063.598    22711070.296
 03  3 20 18 26 30.0000000  0  8G 6G 7G 4G30G 5G10G24G 9
  24154139.492    -7633578.60549  -5928929.79245  24154139.657    24154146.777
  24578797.945     9415412.38849   7312424.30245  24578797.643    24578808.111
  22289806.532     7780669.93249   5816819.85546  22289807.068    22289813.260
  22131314.700   -13657706.08549 -10637605.45846  22131315.289    22131320.755
  20415747.450    -9470384.35149  -7380253.30048  20415747.262    20415752.945
  23400879.777    -8545264.52049  -6639919.92745  23400879.339    23400888.716
  20594360.964    -2506104.04249  -2021181.10848  20594361.130    20594367.399
  22727687.544     7959074.54649   6186052.15446  22727687.729    22727694.420
 03  3 20 18 27  0.0000000  0  8G 6G 7G 4G30G 5G10G24G 9
  24140665.076    -7704387.64249  -5984105.64145  24140665.315    24140672.573
  24592126.134     9485451.75049   7367000.18845  24592125.915    24592136.319
  22306436.871     7868062.82949   5884918.15646  22306437.414    22306443.597
  22114874.917   -13744097.64749 -10704923.56246  22114875.520    22114880.997
  20410092.533    -9500101.08749  -7403409.20748  20410092.357    20410098.022
  23382399.506    -8642378.85049  -6715593.33645  23382399.042    23382408.361
  20600019.051    -2476370.60549  -1998012.22248  20600019.233    20600025.489
  22744357.591     8046675.82349   6254312.82146  22744357.759    22744364.460
 03  3 20 18 27 30.0000000  0  8G 6G 7G 4G30G 5G10G24G 9
  24127201.315    -7775140.99249  -6039238.08945  24127201.496    24127208.873
  24605459.725     9555519.51049   7421598.22645  24605459.535    24605469.975
  22323117.454     7955719.34749   5953221.87646  22323117.947    22323124.132
  22098476.956   -13830269.52449 -10772070.48546  22098477.542    22098483.028
  20404522.237    -9529373.34249  -7426218.76548  20404522.053    20404527.731
  23363943.935    -8739363.39749  -6791165.64345  23363943.459    23363952.705
  20605767.363    -2446163.19449  -1974474.00248  20605767.524    20605773.788
  22761072.907     8134514.96749   6322758.84146  22761073.067    22761079.752
 03  3 20 18 28  0.0000000  0  8G 6G 7G 4G30G 5G10G24G 9
  24113747.647    -7845838.81549  -6094327.30145  24113747.870    24113755.345
  24618798.761     9625615.71849   7476218.39145  24618798.311    24618809.011
  22339847.663     8043636.83049   6021728.94946  22339848.125    22339854.314
  22082121.242   -13916219.34649 -10839044.36946  22082121.826    22082127.336
  20399036.848    -9558199.33449  -7448680.58648  20399036.671    20399042.349
  23345513.629    -8836215.04249  -6866634.36645  23345513.158    23345522.337
  20611605.556    -2415483.42449  -1950567.71548  20611605.722    20611611.977
  22777832.906     8222588.97549   6391387.87046  22777833.094    22777839.754
 03  3 20 18 28 30.0000000  0  7G 6G 4G30G 5G10G24G 9
  24100305.072    -7916480.82349  -6149373.03645  24100305.275    24100312.331
  22356627.031     8131812.86649   6090437.49146  22356627.549    22356633.737
  22065808.286   -14001944.54549 -10905843.23046  22065808.849    22065814.409
  20393636.753    -9586577.12649  -7470793.16648  20393636.569    20393642.246
  23327109.316    -8932929.85549  -6941996.47046  23327108.879    23327118.025
  20617533.443    -2384332.39149  -1926294.21048  20617533.598    20617539.870
  22794637.002     8310894.98249   6460197.68646  22794637.221    22794643.898
 03  3 20 18 29  0.0000000  0  7G 6G 4G30G 5G10G24G 9
  24086873.677    -7987063.72849  -6204372.67945  24086873.844    24086881.040
  22373455.781     8220248.22149   6159348.08346  22373456.288    22373462.513
  22049539.153   -14087439.34349 -10972462.55946  22049539.751    22049545.292
  20388322.861    -9614501.91849  -7492552.75648  20388322.668    20388328.336
  23308732.364    -9029501.14349  -7017246.73846  23308731.881    23308741.016
  20623551.190    -2352708.97349  -1901652.61248  20623551.342    20623557.633
  22811485.359     8399433.25149   6529188.47146  22811485.557    22811492.295
 03  3 20 18 29 30.0000000  0  7G 6G 4G30G 5G10G24G 9
  24073452.250    -8057593.05449  -6259330.57745  24073452.426    24073459.992
  22390332.395     8308934.96949   6228454.57646  22390332.875    22390339.111
  22033313.266   -14172706.79249 -11038904.73546  22033313.874    22033319.407
  20383094.457    -9641977.43749  -7513962.26548  20383094.277    20383099.938
  23290382.324    -9125931.01249  -7092386.81546  23290381.874    23290390.990
  20629657.489    -2320620.23649  -1876648.42748  20629657.655    20629663.952
  22828376.282     8488195.39749   6598353.71346  22828376.454    22828383.248
 03  3 20 18 30  0.0000000  0  7G 6G 4G30G 5G10G24G 9
  24060041.512    -8128067.56549  -6314245.78845  24060041.739    24060048.953
  22407256.522     8397871.70649   6297755.86146  22407257.028    22407263.270
  22017131.375   -14257743.32849 -11105166.97246  22017131.967    22017137.535
  20377952.041    -9669000.91449  -7535019.53248  20377951.877    20377957.538
  23272060.016    -9222214.93049  -7167413.15646  23272059.559    23272068.670
  20635852.248    -2288066.68649  -1851282.05048  20635852.417    20635858.723
  22845309.514     8577180.00949   6667692.30046  22845309.721    22845316.529
 03  3 20 18 30 30.0000000  0  7G 6G 4G30G 5G10G24G 9
  24046641.016    -8198487.55149  -6369118.49945  24046641.266    24046648.324
  22424227.662     8487055.37149   6367249.55146  22424228.170    22424234.401
  22000993.826   -14342546.68749 -11171247.51746  22000994.429    22000999.973
  20372895.945    -9695570.92349  -7555723.44648  20372895.788    20372901.446
  23253766.120    -9318349.84849  -7242323.40146  23253765.623    23253774.707
  20642135.086    -2255050.28849  -1825555.01248  20642135.267    20642141.574
  22862284.449     8666383.51549   6737201.45946  22862284.650    22862291.481
 03  3 20 18 31  0.0000000  0  7G 6G 4G30G 5G10G24G 9
  24033251.047    -8268852.31249  -6423948.15345  24033251.256    24033258.565
  22441245.506     8576484.19849   6436934.29746  22441246.018    22441252.221
  21984901.222   -14427113.87349 -11237144.03246  21984901.819    21984907.388
  20367926.589    -9721685.22449  -7576072.26648  20367926.408    20367932.078
  23235501.309    -9414331.83449  -7317114.47346  23235500.798    23235509.865
  20648505.809    -2221571.97049  -1799468.03648  20648505.977    20648512.308
  22879300.616     8755803.80749   6806879.51846  22879300.839    22879307.662
 03  3 20 18 31 30.0000000  0  7G 6G 4G30G 5G10G24G 9
  24019871.546    -8339161.85849  -6478734.81545  24019871.719    24019879.119
  22458309.500     8666155.74249   6506808.16046  22458309.985    22458316.219
  21968854.081   -14511442.22949 -11302854.44746  21968854.678    21968860.230
  20363044.247    -9747342.21749  -7596064.74748  20363044.068    20363049.742
  23217266.305    -9510157.09849  -7391783.43146  23217265.742    23217274.856
  20654964.058    -2187633.74249  -1773022.68948  20654964.236    20654970.567
  22896357.523     8845438.01749   6876724.29046  22896357.721    22896364.581
 03  3 20 18 32  0.0000000  0  7G 6G 4G30G 5G10G24G 9
  24006502.450    -8409417.16949  -6533479.20145  24006502.574    24006509.884
  22475419.034     8756066.61649   6576868.51746  22475419.531    22475425.780
  21952852.669   -14595530.35249 -11368377.65547  21952853.236    21952858.818
  20358249.089    -9772541.22149  -7615700.35048  20358248.888    20358254.574
  23199061.615    -9605823.09149  -7466328.29246  23199061.074    23199070.213
  20661509.375    -2153238.09849  -1746220.91448  20661509.564    20661515.893
  22913454.355     8935282.21449   6946732.67946  22913454.555    22913461.423
 03  3 20 18 32 30.0000000  0  7G 6G 4G30G 5G10G24G 9
  23993143.831    -8479616.91449  -6588180.28845  23993143.992    23993151.238
  22492573.791     8846215.35049   6647114.22246  22492574.324    22492580.600
  21936897.607   -14679374.78549 -11433710.98047  21936898.211    21936903.785
  20353541.564    -9797279.43449  -7634976.89448  20353541.386    20353547.060
  23180888.039    -9701325.41649  -7540745.59546  23180887.526    23180896.672
  20668141.559    -2118385.76849  -1719063.27548  20668141.743    20668148.079
  22930590.808     9025334.38049   7016903.11646  22930590.992    22930597.902
 03  3 20 18 33  0.0000000  0  7G 6G 4G30G 5G10G24G 9
  23979795.704    -8549761.90849  -6642838.71545  23979795.853    23979803.127
  22509773.163     8936598.51749   6717542.59146  22509773.678    22509780.019
  21920989.310   -14762973.59949 -11498852.90247  21920989.894    21920995.473
  20348921.898    -9821556.10249  -7653893.79348  20348921.705    20348927.391
  23162746.115    -9796661.47549  -7615033.36646  23162745.645    23162754.796
  20674860.232    -2083079.10149  -1691551.61148  20674860.412    20674866.754
  22947766.113     9115591.03049   7087232.89246  22947766.312    22947773.249
 03  3 20 18 33 30.0000000  0  7G 6G 4G30G 5G10G24G 9
  23966458.104    -8619851.97649  -6697454.34045  23966458.226    23966465.429
  22527016.757     9027213.92049   6788151.93246  22527017.310    22527023.648
  21905128.187   -14846324.29549 -11563801.48947  21905128.795    21905134.343
  20344390.365    -9845369.44149  -7672449.65848  20344390.172    20344395.865
  23144636.571    -9891827.71549  -7689188.80946  23144636.052    23144645.162
  20681665.025    -2047319.69949  -1663687.16548  20681665.221    20681671.557
  22964979.850     9206049.41449   7157719.86546  22964979.995    22964986.994
 03  3 20 18 34  0.0000000  0  7G 6G 4G30G 5G10G24G 9
  23953130.808    -8689887.65949  -6752027.59145  23953130.973    23953138.080
  22544303.882     9118058.30849   6858939.69446  22544304.452    22544310.834
  21889314.698   -14929424.95449 -11628555.23847  21889315.292    21889320.831
  20339947.219    -9868718.57049  -7690643.79848  20339947.028    20339952.713
  23126559.848    -9986821.15549  -7763209.59446  23126559.286    23126568.419
  20688555.562    -2011109.93949  -1635471.79648  20688555.741    20688562.084
  22982231.292     9296705.95849   7228361.24746  22982231.442    22982238.438
 03  3 20 18 34 30.0000000  0  7G 6G 4G30G 5G10G24G 9
  23939813.923    -8759868.27249  -6806557.92645  23939814.121    23939821.194
  22561634.336     9209129.93549   6929904.53546  22561634.865    22561641.280
  21873549.354   -15012272.34049 -11693111.63347  21873549.936    21873555.499
  20335592.818    -9891601.02449  -7708474.29348  20335592.632    20335598.329
  23108516.795   -10081637.65949  -7837092.51146  23108516.278    23108525.382
  20695531.505    -1974451.10449  -1606906.49648  20695531.692    20695538.048
  22999519.939     9387558.43949   7299155.30246  22999520.153    22999527.171
 03  3 20 18 35  0.0000000  0  7G 6G 4G30G 5G10G24G 9
  23926507.367    -8829794.34849  -6861045.75745  23926507.653    23926514.693
  22579007.444     9300425.86349   7001044.14946  22579007.948    22579014.400
  21857832.558   -15094864.60849 -11757469.23247  21857833.187    21857838.730
  20331327.418    -9914015.91649  -7725940.45948  20331327.235    20331332.945
  23090507.999   -10176274.02849  -7910835.07046  23090507.514    23090516.569
  20702592.527    -1937345.41449  -1577992.99748  20702592.713    20702599.075
  23016845.224     9478603.07349   7370099.08846  23016845.419    23016852.435
 03  3 20 18 35 30.0000000  0  7G 6G 4G30G 5G10G24G 9
  23913211.306    -8899665.71549  -6915490.96345  23913211.508    23913218.654
  22596422.710     9391943.36749   7072356.42446  22596423.212    22596429.673
  21842164.764   -15177199.36949 -11821626.17847  21842165.414    21842170.949
  20327151.277    -9935961.91149  -7743041.24948  20327151.086    20327156.782
  23072534.156   -10270727.15949  -7984434.85646  23072533.618    23072542.707
  20709738.180    -1899794.76949  -1548732.78248  20709738.366    20709744.737
  23034206.585     9569836.98349   7441190.36646  23034206.741    23034213.781
 03  3 20 18 36  0.0000000  0  7G 6G 4G30G 5G10G24G 9
  23899925.649    -8969482.36549  -6969893.52445  23899925.786    23899932.949
  22613879.647     9483680.03149   7143839.45346  22613880.166    22613886.635
  21826546.466   -15259274.08049 -11885580.49147  21826547.136    21826552.638
  20323064.666    -9957437.37249  -7759775.39248  20323064.475    20323070.174
  23054595.767   -10364993.67049  -8057889.21546  23054595.216    23054604.279
  20716968.150    -1861801.12049  -1519127.37148  20716968.341    20716974.711
  23051603.430     9661257.67349   7512427.18946  23051603.587    23051610.650
 03  3 20 18 36 30.0000000  0  7G 6G 4G30G 5G10G24G 9
  23886650.362    -9039244.38249  -7024253.51945  23886650.446    23886657.584
  22631377.788     9575633.16149   7215491.18246  22631378.293    22631384.792
  21810978.081   -15341086.49149 -11949330.40247  21810978.714    21810984.249
  20319067.778    -9978441.15349  -7776141.98848  20319067.582    20319073.314
  23036693.551   -10459070.25249  -8131195.57646  23036693.039    23036702.093
  20724282.114    -1823366.12149  -1489178.04648  20724282.308    20724288.711
  23069035.108     9752861.62349   7583806.81546  23069035.289    23069042.393
 03  3 20 18 37  0.0000000  0  7G 6G 4G30G 5G10G24G 9
  23873385.408    -9108952.00549  -7078571.13845  23873385.449    23873392.710
  22648916.685     9667800.17049   7287309.55146  22648917.171    22648923.721
  21795460.058   -15422634.10549 -12012873.98947  21795460.736    21795466.270
  20315160.937    -9998971.87249  -7792139.96648  20315160.767    20315166.476
  23018828.106   -10552953.70649  -8204351.44446  23018827.578    23018836.556
  20731679.634    -1784492.04749  -1458886.58648  20731679.817    20731686.248
  23086501.095     9844645.77249   7655326.85346  23086501.308    23086508.409
 03  3 20 18 37 30.0000000  0  7G 6G 4G30G 5G10G24G 9
  23860130.925    -9178604.89649  -7132846.10145  23860130.995    23860138.155
  22666495.832     9760178.78549   7359292.80546  22666496.291    22666502.865
  21779992.948   -15503914.23449 -12076209.13847  21779993.644    21779999.156
  20311344.424   -10019027.83649  -7807768.00348  20311344.249    20311349.953
  23001000.126   -10646640.10549  -8277353.77546  23000999.600    23001008.534
  20739160.328    -1745180.92249  -1428254.56748  20739160.508    20739166.937
  23104000.862     9936607.29649   7726985.11646  23104001.053    23104008.153
 03  3 20 18 38  0.0000000  0  7G 6G 4G30G 5G10G24G 9
  23846886.637    -9248203.95549  -7187079.10745  23846886.744    23846893.978
  22684114.601     9852765.90549   7431438.53946  22684115.073    22684121.718
  21764577.060   -15584925.22949 -12139334.57647  21764577.766    21764583.269
  20307618.393   -10038608.35349  -7823025.56448  20307618.218    20307623.929
  22983210.155   -10740126.84049  -8350200.51446  22983209.655    22983218.541
  20746723.726    -1705435.06749  -1397283.80148  20746723.902    20746730.348
  23121533.714    10028742.64249   7798778.81446  23121533.944    23121541.008
 03  3 20 18 38 30.0000000  0  7G 6G 4G30G 5G10G24G 9
  23833652.726    -9317748.35349  -7241269.54245  23833652.846    23833660.015
  22701772.695     9945559.41349   7503745.10046  22701773.130    22701779.812
  21749212.966   -15665664.09049 -12202247.96847  21749213.652    21749219.145
  20303983.255   -10057711.26749  -7837910.96448  20303983.075    20303988.803
  22965458.982   -10833409.75149  -8422888.43946  22965458.484    22965467.355
  20754369.662    -1665255.59249  -1365975.14748  20754369.839    20754376.280
  23139099.216    10121049.55449   7870706.19446  23139099.424    23139106.479
 03  3 20 18 39  0.0000000  0  7G 6G 4G30G 5G10G24G 9
  23820429.123    -9387238.71149  -7295417.85745  23820429.320    23820436.433
  22719469.448    10038556.33849   7576210.15946  22719469.908    22719476.608
  21733901.081   -15746128.86449 -12264947.77747  21733901.743    21733907.231
  20300439.095   -10076335.98349  -7852423.74148  20300438.919    20300444.641
  22947747.027   -10926486.18649  -8495415.48146  22947746.546    22947755.416
  20762097.561    -1624645.19049  -1334330.70748  20762097.749    20762104.201
  23156696.654    10213524.31749   7942764.37846  23156696.883    23156703.934
 03  3 20 18 39 30.0000000  0  7G 6G 4G30G 5G10G24G 9
  23807215.979    -9456674.59849  -7349523.71045  23807216.167    23807223.313
  22737204.510    10131754.45549   7648831.98846  22737204.990    22737211.674
  21718641.832   -15826316.68849 -12327431.78547  21718642.477    21718647.982
  20296986.307   -10094480.74249  -7866562.52248  20296986.119    20296991.827
  22930075.137   -11019352.34149  -8567778.65946  22930074.689    22930083.525
  20769907.201    -1583605.42049  -1302351.69148  20769907.382    20769913.841
  23174325.554    10306164.56149   8014951.51046  23174325.768    23174332.889
 03  3 20 18 40  0.0000000  0  7G 6G 4G30G 5G10G24G 9
  23794013.005    -9526056.58349  -7403587.58445  23794013.158    23794020.319
  22754977.358    10225150.90149   7721608.35846  22754977.836    22754984.520
  21703435.691   -15906225.47449 -12389698.36447  21703436.344    21703441.811
  20293625.000   -10112144.54949  -7880326.54048  20293624.826    20293630.549
  22912443.855   -11112005.30149  -8639975.71046  22912443.416    22912452.203
  20777798.115    -1542138.50249  -1270039.84048  20777798.299    20777804.764
  23191985.225    10398966.74349   8087264.81246  23191985.462    23191992.617
 03  3 20 18 40 30.0000000  0  7G 6G 4G30G 5G10G24G 9
  23780820.406    -9595384.38649  -7457609.23245  23780820.571    23780827.666
  22772787.437    10318743.28649   7794537.41946  22772787.907    22772794.624
  21688283.173   -15985852.75849 -12451745.58347  21688283.794    21688289.276
  20290355.441   -10129326.05549  -7893714.73348  20290355.269    20290361.001
  22894853.780   -11204441.54949  -8712003.89746  22894853.353    22894862.058
  20785769.904    -1500246.64849  -1237396.86348  20785770.081    20785776.544
  23209675.304    10491928.10649   8159702.17346  23209675.486    23209682.674
 03  3 20 18 41  0.0000000  0  7G 6G 4G30G 5G10G24G 9
  23767638.050    -9664657.98649  -7511588.63445  23767638.187    23767645.422
  22790634.313    10412529.13949   7867617.21446  22790634.802    22790641.566
  21673184.612   -16065196.14049 -12513571.59547  21673185.206    21673190.655
  20287177.980   -10146023.83049  -7906725.99848  20287177.809    20287183.549
  22877305.588   -11296657.61549  -8783860.53046  22877305.161    22877313.857
  20793822.208    -1457931.69749  -1204424.20448  20793822.386    20793828.852
  23227395.006    10585045.49849   8232261.09646  23227395.219    23227402.408
 03  3 20 18 41 30.0000000  0  7G 6G 4G30G 5G10G24G 9
  23754465.993    -9733877.26749  -7565525.72945  23754466.195    23754473.389
  22808517.597    10506506.06649   7940845.92946  22808518.091    22808524.890
  21658140.634   -16144252.85249 -12575174.22047  21658141.251    21658146.690
  20284092.867   -10162236.35849  -7919359.14948  20284092.695    20284098.454
  22859800.041   -11388649.92749  -8855542.79946  22859799.529    22859808.242
  20801954.677    -1415195.31349  -1171123.15648  20801954.856    20801961.334
  23245143.826    10678315.95549   8304939.28746  23245144.011    23245151.313
 03  3 20 18 42  0.0000000  0  7G 6G 4G30G 5G10G24G 9
  23741304.266    -9803042.84649  -7619420.95345  23741304.437    23741311.577
  22826436.689    10600671.08249   8014221.18046  22826437.167    22826443.941
  21643151.504   -16223021.04549 -12636552.02947  21643152.128    21643157.578
  20281100.190   -10177962.99949  -7931613.68648  20281100.027    20281105.785
  22842337.570   -11480415.67449  -8927048.52246  22842337.069    22842345.766
  20810166.883    -1372040.11849  -1137495.76248  20810167.051    20810173.544
  23262921.172    10771736.12049   8377734.14346  23262921.344    23262928.620
 03  3 20 18 42 30.0000000  0  7G 6G 4G30G 5G10G24G 9
  23728152.704    -9872154.70849  -7673274.32245  23728152.872    23728160.050
  22844391.065    10695021.81649   8087741.15146  22844391.567    22844398.324
  21628217.834   -16301498.21549 -12697703.06147  21628218.436    21628223.894
  20278200.251   -10193202.39249  -7943488.54948  20278200.074    20278205.851
  22824918.879   -11571951.45349  -8998375.05646  22824918.397    22824927.131
  20818458.380    -1328468.11649  -1103543.58048  20818458.561    20818465.063
  23280726.514    10865303.21649   8450643.48746  23280726.648    23280733.955
 03  3 20 18 43  0.0000000  0  7G 6G 4G30G 5G10G24G 9
  23715011.387    -9941212.38249  -7727085.47545  23715011.599    23715018.746
  22862380.407    10789556.14849   8161404.18546  22862380.913    22862387.707
  21613340.091   -16379681.44949 -12758625.05747  21613340.675    21613346.134
  20275393.332   -10207952.93149  -7954982.48548  20275393.137    20275398.919
  22807544.666   -11663253.49949  -9069519.45646  22807544.166    22807552.926
  20826828.896    -1284481.02449  -1069267.95548  20826829.066    20826835.586
  23298559.160    10959014.44349   8523665.13346  23298559.343    23298566.758
 03  3 20 18 43 30.0000000  0  7G 6G 4G30G 5G10G24G 9
  23701880.517   -10010215.80649  -7780854.35645  23701880.660    23701887.784
  22880404.177    10884271.61249   8235208.38446  22880404.755    22880411.568
  21598518.715   -16457568.27249 -12819316.08447  21598519.306    21598524.762
  20272679.706   -10222213.29449  -7966094.46748  20272679.506    20272685.304
  22790215.545   -11754318.30649  -9140478.98246  22790215.052    22790223.798
  20835278.046    -1240080.59149  -1034670.24447  20835278.217    20835284.746
  23316418.722    11052866.91449   8596796.83646  23316418.919    23316426.377
 03  3 20 18 44  0.0000000  0  7G 6G 4G30G 5G10G24G 9
  23688759.877   -10079164.93449  -7834580.91345  23688760.053    23688767.263
  22898462.032    10979165.79549   8309151.82846  22898462.584    22898469.399
  21583754.198   -16535156.34249 -12879774.32047  21583754.788    21583760.261
  20270059.549   -10235982.32249  -7976823.59148  20270059.340    20270065.168
  22772932.191   -11845142.72549  -9211251.21046  22772931.697    22772940.469
  20843805.368    -1195269.39849   -999752.46347  20843805.534    20843812.082
  23334304.608    11146857.59549   8670036.24546  23334304.816    23334312.301
 03  3 20 18 44 30.0000000  0  7G 6G 4G30G 5G10G24G 9
  23675649.508   -10148060.27349  -7888265.57245  23675649.719    23675656.929
  22916553.348    11074235.71149   8383232.19446  22916553.850    22916560.685
  21569046.943   -16612443.52249 -12939998.09347  21569047.529    21569053.015
  20267533.030   -10249259.37549  -7987169.35848  20267532.829    20267538.673
  22755695.202   -11935723.68049  -9281833.72146  22755694.670    22755703.442
  20852410.441    -1150049.62749   -964516.30247  20852410.586    20852417.135
  23352216.163    11240982.96849   8743380.60846  23352216.387    23352223.846
 03  3 20 18 45  0.0000000  0  7G 6G 4G30G 5G10G24G 9
  23662549.408   -10216901.89249  -7941908.37645  23662549.528    23662556.786
  22934677.622    11169478.84249   8457447.55346  22934678.093    22934684.908
  21554397.396   -16689427.51849 -12999985.61847  21554397.961    21554403.457
  20265100.367   -10262043.15749  -7997130.75948  20265100.163    20265106.001
  22738505.164   -12026057.75649  -9352223.85846  22738504.591    22738513.387
  20861092.931    -1104423.16549   -928963.24547  20861093.076    20861099.633
  23370152.790    11335240.27049   8816827.77246  23370153.019    23370160.508
 03  3 20 18 45 30.0000000  0  7G 6G 4G30G 5G10G24G 9
  23649459.478   -10285689.73049  -7995509.25646  23649459.639    23649466.935
  22952834.401    11264892.92649   8531796.11646  22952834.863    22952841.674
  21539806.021   -16766105.71549 -13059734.86247  21539806.582    21539812.100
  20262761.836   -10274332.44249  -8006706.83248  20262761.622    20262767.468
  22721362.784   -12116141.21949  -9422418.70846  22721362.278    22721371.061
  20869852.344    -1058392.27049   -893095.04347  20869852.502    20869859.057
  23388113.933    11429626.50849   8890375.40946  23388114.146    23388121.720
 03  3 20 18 46  0.0000000  0  7G 6G 4G30G 5G10G24G 9
  23636379.857   -10354423.50549  -8049068.01846  23636380.064    23636387.440
  22971023.181    11360475.48249   8606275.95146  22971023.661    22971030.505
  21525273.304   -16842475.60249 -13119243.86447  21525273.873    21525279.386
  20260517.587   -10286126.05449  -8015896.66648  20260517.386    20260523.241
  22704268.724   -12205970.85849  -9492415.77446  22704268.223    22704276.995
  20878688.405    -1011958.71649   -856913.08447  20878688.554    20878695.096
  23406099.092    11524138.60949   8964021.10646  23406099.255    23406106.914
 03  3 20 18 46 30.0000000  0  7G 6G 4G30G 5G10G24G 9
  23623310.485   -10423103.26749  -8102584.68646  23623310.683    23623318.065
  22989243.641    11456224.17549   8680885.26546  22989244.127    22989250.996
  21510799.749   -16918534.74449 -13178510.72847  21510800.343    21510805.850
  20258367.899   -10297422.88849  -8024699.40248  20258367.694    20258373.561
  22687223.550   -12295543.54349  -9562212.62646  22687223.072    22687231.845
  20887600.661     -965124.67949   -820419.06347  20887600.805    20887607.349
  23424107.631    11618773.68049   9037762.63446  23424107.798    23424115.455
 03  3 20 18 47  0.0000000  0  7G 6G 4G30G 5G10G24G 9
  23610251.420   -10491728.99149  -8156059.26146  23610251.653    23610258.924
  23007495.217    11552136.39649   8755621.99046  23007495.673    23007502.586
  21496385.777   -16994280.67949 -13237533.53547  21496386.371    21496391.900
  20256312.933   -10308221.94149  -8033114.25848  20256312.707    20256318.587
  22670227.931   -12384855.92049  -9631806.63646  22670227.438    22670236.209
  20896588.720     -917892.30349   -783614.64747  20896588.853    20896595.409
  23442138.924    11713528.71949   9111597.63146  23442139.135    23442146.833
 03  3 20 18 47 30.0000000  0  7G 6G 4G30G 5G10G24G 9
  23597202.841   -10560300.47449  -8209491.55646  23597202.957    23597210.307
  23025777.507    11648210.18749   8830484.60546  23025777.915    23025784.902
  21482031.949   -17069710.80949 -13296310.25847  21482032.508    21482038.031
  20254352.951   -10318521.72749  -8041140.08048  20254352.733    20254358.619
  22653282.596   -12473904.18349  -9701194.86746  22653282.080    22653290.833
  20905652.142     -870263.77449   -746501.53947  20905652.268    20905658.844
  23460192.640    11808401.21249   9185524.16046  23460192.836    23460200.543
 03  3 20 18 48  0.0000000  0  7G 6G 4G30G 5G10G24G 9
  23584164.339   -10628818.05249  -8262881.83846  23584164.463    23584171.729
  23044089.968    11744442.48849   8905470.75146  23044090.408    23044097.385
  21467738.581   -17144823.05349 -13354839.27447  21467739.123    21467744.619
  20252488.103   -10328321.62549  -8048776.37748  20252487.884    20252493.785
  22636388.127   -12562685.37849  -9770374.96846  22636387.595    22636396.327
  20914790.519     -822241.53349   -709081.64147  20914790.642    20914797.229
  23478268.018    11903387.49749   9259539.36146  23478268.203    23478275.940
 03  3 20 18 48 30.0000000  0  7G 6G 4G30G 5G10G24G 9
  23571136.184   -10697281.57949  -8316230.01246  23571136.322    23571143.574
  23062432.154    11840831.23049   8980578.79446  23062432.630    23062439.639
  21453506.180   -17219614.71949 -13413118.48947  21453506.726    21453512.239
  20250718.615   -10337620.37249  -8056022.16948  20250718.379    20250724.290
  22619545.110   -12651195.78149  -9839344.06546  22619544.566    22619553.321
  20924003.478     -773827.15149   -671356.17847  20924003.614    20924010.207
  23496364.556    11998484.90249   9333641.13646  23496364.745    23496372.455
 03  3 20 18 49  0.0000000  0  7G 6G 4G30G 5G10G24G 9
  23558118.262   -10765691.05749  -8369536.06246  23558118.434    23558125.602
  23080803.681    11937373.97049   9055806.81746  23080804.181    23080811.164
  21439335.260   -17294083.31449 -13471145.95547  21439335.797    21439341.348
  20249044.723   -10346416.96449  -8062876.66648  20249044.478    20249050.385
  22602754.240   -12739432.31349  -9908099.75246  22602753.689    22602762.446
  20933290.606     -725023.10049   -633327.07547  20933290.724    20933297.328
  23514481.664    12093690.46849   9407827.21246  23514481.793    23514489.556
 03  3 20 18 49 30.0000000  0  7G 6G 4G30G 5G10G24G 9
  23545110.587   -10834046.45449  -8422799.97346  23545110.799    23545118.030
  23099203.983    12034068.00049   9131152.74946  23099204.483    23099211.524
  21425226.252   -17368226.70649 -13528920.01647  21425226.804    21425232.350
  20247466.508   -10354710.49849  -8069339.17848  20247466.261    20247472.179
  22586016.111   -12827391.82949  -9976639.58446  22586015.527    22586024.268
  20942651.469     -675831.55249   -594996.03247  20942651.594    20942658.194
  23532618.769    12189001.08649   9482095.13346  23532618.847    23532626.655
 03  3 20 18 50  0.0000000  0  7G 6G 4G30G 5G10G24G 9
  23532113.291   -10902347.67249  -8476021.67346  23532113.487    23532120.619
  23117632.678    12130911.15149   9206614.85946  23117633.195    23117640.296
  21411179.619   -17442042.25749 -13586438.62947  21411180.178    21411185.716
  20245984.239   -10362499.95149  -8075408.89848  20245984.017    20245989.923
  22569331.282   -12915070.81349 -10044960.81946  22569330.748    22569339.451
  20952085.721     -626254.37549   -556364.50047  20952085.873    20952092.482
  23550775.253    12284413.72249   9556442.55346  23550775.357    23550783.137
 03  3 20 18 50 30.0000000  0  7G 6G 4G30G 5G10G24G 9
  23519126.206   -10970595.08349  -8529201.41346  23519126.427    23519133.558
  23136089.296    12227900.74649   9282191.09446  23136089.749    23136096.892
  21397195.742   -17515527.92549 -13643700.18547  21397196.309    21397201.858
  20244598.011   -10369784.63249  -8081085.29148  20244597.787    20244603.692
  22552700.454   -13002466.34449 -10113061.17846  22552699.911    22552708.580
  20961592.836     -576294.19049   -517434.51647  20961592.991    20961599.599
  23568950.641    12379925.32549   9630867.08246  23568950.715    23568958.510
 03  3 20 18 51  0.0000000  0  7G 6G 4G30G 5G10G24G 9
  23506149.509   -11038788.14949  -8582338.84346  23506149.681    23506156.740
  23154573.336    12325034.85149   9357879.94246  23154573.792    23154580.904
  21383275.156   -17588680.71749 -13700702.35547  21383275.756    21383281.298
  20243308.107   -10376563.13049  -8086367.25448  20243307.880    20243313.780
  22536124.292   -13089574.55949 -10180937.66246  22536123.706    22536132.404
  20971172.537     -525952.49949   -478207.25347  20971172.699    20971179.331
  23587144.289    12475533.34749   9705366.75546  23587144.419    23587152.208
 03  3 20 18 51 30.0000000  0  7G 6G 4G30G 5G10G24G 9
  23493183.038   -11106927.16349  -8635434.14646  23493183.217    23493190.275
  23173084.422    12422310.87049   9433679.34946  23173084.867    23173091.985
  21369418.410   -17661498.36449 -13757443.37847  21369419.019    21369424.584
  20242114.682   -10382834.72649  -8091254.23048  20242114.456    20242120.337
  22519603.309   -13176392.38849 -10248587.86846  22519602.803    22519611.459
  20980824.420     -475231.78149   -438684.64747  20980824.587    20980831.197
  23605355.603    12571234.50449   9779939.00346  23605355.832    23605363.552
 03  3 20 18 52  0.0000000  0  7G 6G 4G30G 5G10G24G 9
  23480226.930   -11175011.73249  -8688487.03646  23480227.117    23480234.201
  23191622.015    12519726.57049   9509587.62246  23191622.464    23191629.561
  21355625.945   -17733978.28349 -13813921.23547  21355626.567    21355632.094
  20241017.950   -10388598.04249  -8095745.14848  20241017.745    20241023.619
  22503138.362   -13262916.09549 -10316008.90346  22503137.862    22503146.474
  20990547.942     -424134.40049   -398868.53647  20990548.106    20990554.722
  23623584.189    12667026.12349   9854581.73146  23623584.453    23623592.127
 03  3 20 18 52 30.0000000  0  7G 6G 4G30G 5G10G24G 9
  23467281.114   -11243042.34949  -8741497.88446  23467281.339    23467288.442
  23210185.666    12617279.01949   9585602.43846  23210186.123    23210193.279
  21341898.061   -17806118.80349 -13870134.62447  21341898.701    21341904.208
  20240017.987   -10393853.01849  -8099839.94748  20240017.787    20240023.668
  22486729.850   -13349143.03749 -10383198.67146  22486729.381    22486737.952
  21000342.716     -372662.54649   -358760.62647  21000342.885    21000349.496
  23641829.344    12762904.61149   9929292.16446  23641829.592    23641837.308
 03  3 20 18 53  0.0000000  0  7G 6G 4G30G 5G10G24G 9
  23454345.644   -11311018.64549  -8794466.38446  23454345.835    23454352.924
  23228775.011    12714966.29649   9661722.30846  23228775.493    23228782.607
  21328235.323   -17877916.95149 -13926081.22947  21328235.969    21328241.466
  20239114.989   -10398598.25049  -8103537.54648  20239114.802    20239120.678
  22470378.554   -13435069.55949 -10450154.35146  22470378.081    22470386.652
  21010208.344     -320818.36649   -318362.59347  21010208.525    21010215.117
  23660090.575    12858867.55749  10004068.39746  23660090.800    23660098.473
 03  3 20 18 53 30.0000000  0  7G 6G 4G30G 5G10G24G 9
  23441420.543   -11378940.66949  -8847392.60346  23441420.672    23441427.772
  23247389.565    12812785.83749   9737945.26346  23247390.017    23247397.155
  21314638.141   -17949370.53949 -13981759.34447  21314638.783    21314644.255
  20238309.117   -10402833.13849  -8106837.47348  20238308.950    20238314.805
  22454085.018   -13520692.40449 -10516873.38846  22454084.560    22454093.118
  21020144.374     -268604.32949   -277676.35947  21020144.567    21020151.164
  23678367.278    12954911.60549  10078907.81346  23678367.397    23678375.122
 03  3 20 18 54  0.0000000  0  7G 6G 4G30G 5G10G24G 9
  23428505.741   -11446808.13049  -8900276.30946  23428505.853    23428512.944
  23266028.815    12910735.42449   9814269.53046  23266029.253    23266036.383
  21301107.086   -18020476.85949 -14037166.86447  21301107.700    21301113.165
  20237600.622   -10406556.53249  -8109738.83448  20237600.451    20237606.266
  22437849.860   -13606008.31249 -10583353.25646  22437849.420    22437857.942
  21030150.418     -216022.40549   -236703.46347  21030150.590    21030157.193
  23696658.855    13051034.13649  10153808.39446  23696658.994    23696666.663
 03  3 20 18 54 30.0000000  0  7G 6G 4G30G 5G10G24G 9
  23415601.225   -11514621.18949  -8953117.62246  23415601.367    23415608.505
  23284692.437    13008812.88549   9890693.46046  23284692.843    23284699.977
  21287642.507   -18091233.57349 -14092301.95947  21287643.131    21287648.592
  20236989.575   -10409767.70549  -8112241.05848  20236989.384    20236995.222
  22421673.757   -13691014.03149 -10649591.42346  22421673.349    22421681.831
  21040226.087     -163074.54549   -195445.41647  21040226.264    21040232.877
  23714964.803    13147232.06749  10228767.73146  23714964.901    23714972.604
 03  3 20 18 55  0.0000000  0  7G 6G 4G30G 5G10G24G 9
  23402707.146   -11582380.06849  -9005916.72346  23402707.313    23402714.344
  23303379.888    13107015.52849   9967214.91546  23303380.265    23303387.361
  21274244.878   -18161638.48649 -14147162.92147  21274245.516    21274250.978
  20236476.098   -10412465.99349  -8114343.63448  20236475.939    20236481.751
  22405557.335   -13775706.41949 -10715585.42846  22405556.886    22405565.358
  21050370.895     -109763.36849   -153904.27347  21050371.061    21050377.703
  23733284.509    13243502.42849  10303783.49446  23733284.649    23733292.372
 03  3 20 18 55 30.0000000  0  7G 6G 4G30G 5G10G24G 9
  23389823.438   -11650084.24849  -9058673.20346  23389823.593    23389830.546
  23322090.623    13205341.10849  10043832.16346  23322091.042    23322098.194
  21260914.731   -18231688.90649 -14201747.65247  21260915.385    21260920.816
  20236060.480   -10414650.19249  -8116045.62248  20236060.337    20236066.135
  22389501.165   -13860081.88249 -10781332.48546  22389500.741    22389509.166
  21060584.482      -56090.63849   -112081.39347  21060584.660    21060591.299
  23751617.429    13339842.41449  10378853.52746  23751617.607    23751625.373
 03  3 20 18 56  0.0000000  0  7G 6G 4G30G 5G10G24G 9
  23376950.165   -11717733.69649  -9111387.03546  23376950.314    23376957.269
  23340824.416    13303787.55449  10120543.62746  23340824.903    23340831.973
  21247652.462   -18301382.69149 -14256054.48847  21247653.126    21247658.521
  20235742.770   -10416319.86449  -8117346.68048  20235742.617    20235748.402
  22373505.943   -13944137.26549 -10846830.14546  22373505.484    22373513.902
  21070866.468       -2058.66849    -69978.59247  21070866.643    21070873.285
  23769963.024    13436248.98149  10453975.40446  23769963.197    23769971.059
 03  3 20 18 56 30.0000000  0  7G 6G 4G30G 5G10G24G 9
  23364087.290   -11785328.48549  -9164058.27346  23364087.449    23364094.398
  23359580.666    13402352.24649  10197347.20146  23359581.188    23359588.268
  21234458.562   -18370717.17749 -14310081.34647  21234459.209    21234464.586
  20235523.115   -10417474.25449  -8118246.21548  20235522.959    20235528.752
  22357572.197   -14027869.29749 -10912075.82746  22357571.785    22357580.166
  21081216.301       52330.05049    -27597.80347  21081216.458    21081223.118
  23788320.731    13532719.17049  10529146.90446  23788320.908    23788328.825
 03  3 20 18 57  0.0000000  0  7G 6G 4G30G 5G10G24G 9
  23351234.851   -11852868.53149  -9216686.85346  23351235.026    23351241.983
  23378359.119    13501033.05449  10274241.24346  23378359.679    23378366.717
  21221333.456   -18439690.24249 -14363826.57747  21221334.086    21221339.438
  20235401.686   -10418112.53349  -8118743.58648  20235401.523    20235407.313
  22341700.602   -14111275.01349 -10977067.23046  22341700.183    22341708.517
  21091633.619      107073.23149     15059.18747  21091633.776    21091640.437
  23806690.088    13629250.07949  10604365.69746  23806690.221    23806698.080
 03  3 20 18 57 30.0000000  0  7G 6G 4G30G 5G10G24G 9
  23338392.897   -11920353.75149  -9269272.72946  23338393.007    23338400.007
  23397159.147    13599827.71849  10351224.01146  23397159.713    23397166.758
  21208277.605   -18508299.27249 -14417288.14547  21208278.214    21208283.571
  20235378.569   -10418234.08649  -8118838.32048  20235378.409    20235384.183
  22325891.716   -14194351.05249 -11041801.74646  22325891.287    22325899.597
  21102118.000      162168.83049     57990.79347  21102118.148    21102124.832
  23825070.378    13725838.74149  10679629.48346  23825070.566    23825078.518
 03  3 20 18 58  0.0000000  0  7G 6G 4G30G 5G10G24G 9
  23325561.303   -11987784.08649  -9321815.82446  23325561.390    23325568.392
  23415980.386    13698733.75749  10428293.57646  23415981.004    23415988.079
  21195291.463   -18576541.94849 -14470464.24047  21195292.055    21195297.424
  20235453.942   -10417838.17849  -8118529.83848  20235453.767    20235459.552
  22310146.181   -14277094.26749 -11106276.91846  22310145.747    22310154.035
  21112669.000      217614.74749    101195.37247  21112669.163    21112675.841
  23843461.057    13822482.34449  10754936.08146  23843461.295    23843469.311
 03  3 20 18 58 30.0000000  0  7G 6G 4G30G 5G10G24G 9
  23312740.202   -12055159.38449  -9374316.02246  23312740.316    23312747.289
  23434822.449    13797749.32249  10505448.48846  23434823.109    23434830.192
  21182375.465   -18644415.71249 -14523352.87047  21182376.096    21182381.458
  20235627.954   -10416923.85249  -8117817.39348  20235627.786    20235633.568
  22294464.653   -14359501.02249 -11170489.90746  22294464.224    22294472.537
  21123286.265      273408.69649    144671.14647  21123286.433    21123293.112
  23861861.683    13919177.92349  10830283.17646  23861861.926    23861869.966
 03  3 20 18 59  0.0000000  0  7G 6G 4G30G 5G10G24G 9
  23299929.594   -12122479.55949  -9426773.30946  23299929.694    23299936.553
  23453684.952    13896871.96949  10582686.84946  23453685.542    23453692.705
  21169530.171   -18711918.26349 -14575952.24447  21169530.799    21169536.129
  20235900.731   -10415490.53849  -8116700.54048  20235900.558    20235906.350
  22278847.779   -14441568.17849 -11234438.26146  22278847.325    22278855.602
  21133969.269      329548.15649    188416.14747  21133969.437    21133976.129
  23880271.731    14015922.79549  10905668.68746  23880272.012    23880280.024
 03  3 20 18 59 30.0000000  0  7G 6G 4G30G 5G10G24G 9
  23287129.502   -12189744.71149  -9479187.68246  23287129.595    23287136.452
  23472567.370    13996099.04849  10660006.56145  23472567.899    23472575.073
  21156755.919   -18779047.42849 -14628260.67247  21156756.542    21156761.877
  20236272.373   -10413537.68649  -8115178.86148  20236272.200    20236277.983
  22263296.115   -14523292.48749 -11298119.46146  22263295.671    22263303.931
  21144717.594      386030.78449    232428.54847  21144717.746    21144724.461
  23898690.481    14112713.49049  10981089.89446  23898690.741    23898698.811
 03  3 20 19  0  0.0000000  0  7G 6G 4G30G 5G10G24G 9
  23274339.872   -12256954.58149  -9531558.97646  23274339.930    23274346.786
  23491469.270    14095428.81049  10737406.29145  23491469.804    23491476.989
  21144053.210   -18845800.63949 -14680276.15147  21144053.806    21144059.163
  20236742.973   -10411064.69649  -8113251.87548  20236742.784    20236748.582
  22247810.334   -14604670.57849 -11361530.88046  22247809.882    22247818.128
  21155530.909      442855.07449    276707.18047  21155531.080    21155537.807
  23917117.480    14209547.56349  11056544.90046  23917117.684    23917125.836
 03  3 20 19  0 30.0000000  0  7G 6G 4G30G 5G10G24G 9
  23261560.753   -12324109.05749  -9583887.12146  23261560.876    23261567.709
  23510390.180    14194858.74449  10814884.07345  23510390.725    23510397.932
  21131422.491   -18912175.57849 -14731996.87147  21131423.090    21131428.425
  20237312.679   -10408070.94749  -8110919.10648  20237312.500    20237318.291
  22232390.992   -14685699.59749 -11424670.29746  22232390.527    22232398.756
  21166408.762      500018.19549    321249.83947  21166408.930    21166415.645
  23935552.214    14306422.04449  11132031.40046  23935552.392    23935560.613
 03  3 20 19  1  0.0000000  0  7G 6G 4G30G 5G10G24G 9
  23248792.236   -12391208.03549  -9636172.01946  23248792.366    23248799.193
  23529329.859    14294386.72449  10892438.25645  23529330.353    23529337.629
  21118864.177   -18978169.79449 -14783420.92647  21118864.784    21118870.138
  20237981.639   -10404555.70749  -8108179.98348  20237981.447    20237987.250
  22217038.664   -14766376.40549 -11487535.26846  22217038.185    22217046.395
  21177350.631      557517.92649    366054.78947  21177350.785    21177357.505
  23953994.120    14403334.22249  11207547.27646  23953994.324    23954002.467
 03  3 20 19  1 30.0000000  0  7G 6G 4G30G 5G10G24G 9
  23236034.244   -12458251.32849  -9688413.53846  23236034.428    23236041.194
  23548287.660    14394010.40349  10970066.99945  23548288.120    23548295.413
  21106378.786   -19043780.86949 -14834546.42847  21106379.418    21106384.775
  20238749.908   -10400518.46749  -8105034.10548  20238749.725    20238755.512
  22201754.057   -14846697.44049 -11550123.02346  22201753.566    22201761.771
  21188356.176      615352.24049    411120.45447  21188356.336    21188363.061
  23972442.558    14500280.98049  11283090.10746  23972442.733    23972450.920
 03  3 20 19  2  0.0000000  0  7G 6G 4G30G 5G10G24G 9
  23223286.931   -12525239.01449  -9740611.71946  23223287.073    23223293.895
  23567263.365    14493727.72949  11047768.72545  23567263.773    23567271.074
  21093966.710   -19109006.65649 -14885371.71047  21093967.330    21093972.700
  20239617.605   -10395958.84749  -8101481.18248  20239617.434    20239623.226
  22186537.717   -14926659.62049 -11612431.13346  22186537.210    22186545.403
  21199424.988      673519.08349    456445.23347  21199425.133    21199431.869
  23990897.080    14597259.40649  11358657.59346  23990897.187    23990905.385
 03  3 20 19  2 30.0000000  0  7G 6G 4G30G 5G10G24G 9
  23210550.141   -12592170.87649  -9792766.40246  23210550.300    23210557.148
  23586256.454    14593536.55149  11125541.74545  23586256.853    23586264.172
  21081628.474   -19173844.50349 -14935894.69947  21081629.112    21081634.452
  20240584.830   -10390876.10849  -8097520.63148  20240584.645    20240590.438
  22171390.286   -15006259.69649 -11674457.08846  22171389.796    22171397.990
  21210556.574      732015.85349    502027.09747  21210556.747    21210563.472
  24009357.034    14694266.90349  11434247.72145  24009357.198    24009365.410
 03  3 20 19  3  0.0000000  0  7G 6G 4G30G 5G10G24G 9
  23197824.056   -12659046.76149  -9844877.45546  23197824.270    23197831.138
  23605266.442    14693434.49849  11203384.20745  23605266.874    23605274.214
  21069364.461   -19238292.32149 -14986113.77147  21069365.082    21069370.458
  20241651.712   -10385269.82849  -8093152.12448  20241651.516    20241657.324
  22156312.318   -15085494.61749 -11736198.51446  22156311.814    22156319.988
  21221750.511      790840.25049    547864.25947  21221750.678    21221757.397
  24027821.985    14791300.41049  11509858.13045  24027822.184    24027830.331
 03  3 20 19  3 30.0000000  0  7G 6G 4G30G 5G10G24G 9
  23185108.645   -12725866.41449  -9896944.71546  23185108.883    23185115.776
  23624293.047    14793419.71649  11281294.67445  23624293.502    23624300.863
  21057175.160   -19302347.45849 -15036026.86247  21057175.811    21057181.149
  20242818.302   -10379139.30049  -8088375.11348  20242818.129    20242823.933
  22141304.459   -15164361.08449 -11797652.83646  22141303.994    22141312.123
  21233006.412      849990.18449    593955.08347  21233006.585    21233013.302
  24046291.349    14888357.39649  11585486.83545  24046291.598    24046299.769
 03  3 20 19  4  0.0000000  0  7G 6G 4G30G 5G10G24G 9
  23172403.942   -12792630.08149  -9948968.32946  23172404.178    23172411.070
  23643335.733    14893489.59149  11359271.12545  23643336.249    23643343.555
  21045060.974   -19366007.99349 -15085632.46347  21045061.627    21045066.947
  20244084.741   -10372484.35149  -8083189.45948  20244084.542    20244090.380
  22126367.225   -15242856.39849 -11858817.93646  22126366.735    22126374.874
  21244323.777      909463.17449    640297.64347  21244323.941    21244330.653
  24064764.663    14985434.55249  11661131.24945  24064764.850    24064773.044
 03  3 20 19  4 30.0000000  0  7G 6G 4G30G 5G10G24G 9
  23159709.956   -12859337.39249 -10000948.03746  23159710.186    23159717.045
  23662394.230    14993642.23549  11437312.06545  23662394.735    23662402.132
  21033022.388   -19429271.16349 -15134928.43247  21033023.031    21033028.363
  20245451.089   -10365304.20649  -8077594.56348  20245450.896    20245456.734
  22111501.307   -15320977.08649 -11919691.12546  22111500.827    22111508.908
  21255702.229      969257.26849    686890.41247  21255702.423    21255709.115
  24083241.265    15082529.16049  11736789.26945  24083241.429    24083249.634
 03  3 20 19  5  0.0000000  0  7G 6G 4G30G 5G10G24G 9
  23147026.794   -12925988.13149 -10052883.65446  23147026.967    23147033.829
  23681467.975    15093875.42949  11515415.76745  23681468.530    23681475.922
  21021059.848   -19492134.72049 -15183913.01147  21021060.473    21021065.819
  20246917.494   -10357598.33749  -8071590.01248  20246917.301    20246923.153
  22096707.320   -15398719.74249 -11980269.73747  22096706.848    22096714.938
  21267141.341     1029369.99449    733731.46547  21267141.534    21267148.235
  24101720.597    15179638.45049  11812458.72845  24101720.735    24101729.012
 03  3 20 19  5 30.0000000  0  7G 6G 4G30G 5G10G24G 9
  23134354.291   -12992582.54349 -10104775.39746  23134354.470    23134361.330
  23700556.675    15194186.74749  11593580.32545  23700557.196    23700564.641
  21009173.729   -19554596.72249 -15232584.69747  21009174.351    21009179.688
  20248483.943   -10349366.74049  -8065175.80348  20248483.736    20248489.595
  22081985.767   -15476081.78149 -12040551.79047  22081985.280    22081993.318
  21278640.570     1089798.65449    780818.69947  21278640.753    21278647.443
  24120202.163    15276759.42649  11888137.28445  24120202.341    24120210.625
 03  3 20 19  6  0.0000000  0  7G 6G 4G30G 5G10G24G 9
  23121692.601   -13059120.25649 -10156622.95246  23121692.775    23121699.621
  23719659.846    15294574.28449  11671804.28245  23719660.391    23719667.875
  20997364.518   -19616654.62649 -15280941.50147  20997365.127    20997370.464
  20250150.545   -10340608.77949  -8058351.43448  20250150.353    20250156.189
  22067337.296   -15553059.77749 -12100534.58347  22067336.811    22067344.832
  21290199.577     1150541.58949    828150.82347  21290199.771    21290206.480
  24138685.471    15373889.33149  11963822.80945  24138685.606    24138693.898
 03  3 20 19  6 30.0000000  0  7G 6G 4G30G 5G10G24G 9
  23109041.789   -13125600.64949 -10208425.83946  23109041.963    23109048.861
  23738777.198    15395036.19549  11750086.18645  23738777.696    23738785.220
  20985632.698   -19678305.59549 -15328981.21047  20985633.328    20985638.704
  20251917.448   -10331323.68249  -8051116.31148  20251917.259    20251923.111
  22052762.595   -15629650.22249 -12160215.38047  22052762.091    22052770.099
  21301818.087     1211596.96949    875726.41347  21301818.268    21301824.993
  24157170.021    15471025.71249  12039513.37445  24157170.209    24157178.453
 03  3 20 19  7  0.0000000  0  7G 6G 4G30G 5G10G24G 9
  23096401.841   -13192023.88949 -10260184.19346  23096402.014    23096408.932
  23757908.238    15495570.16249  11828424.22845  23757908.761    23757916.293
  20973978.688   -19739547.64449 -15376702.28147  20973979.336    20973984.716
  20253784.657   -10321511.42449  -8043470.41348  20253784.477    20253790.340
  22038262.119   -15705850.29149 -12219591.99147  22038261.639    22038269.628
  21313495.498     1272962.06949    923543.33447  21313495.674    21313502.387
  24175655.195    15568165.42049  12115206.52145  24175655.392    24175663.670
 03  3 20 19  7 30.0000000  0  7G 6G 4G30G 5G10G24G 9
  23083772.807   -13258389.62049 -10311897.71946  23083772.997    23083779.893
  23777052.652    15596174.26949  11906816.95745  23777053.079    23777060.711
  20962402.964   -19800378.48049 -15424102.92947  20962403.620    20962408.999
  20255752.243   -10311171.76549  -8035413.54948  20255752.055    20255757.958
  22023836.612   -15781656.75649 -12278661.90647  22023836.125    22023844.076
  21325231.441     1334634.76149    971599.94647  21325231.629    21325238.375
  24194140.538    15665305.83049  12190900.22645  24194140.645    24194148.986
 03  3 20 19  8  0.0000000  0  7G 6G 4G30G 5G10G24G 9
  23071154.777   -13324697.81249 -10363566.43046  23071154.962    23071161.858
  23796209.951    15696846.12949  11985262.48245  23796210.376    23796217.983
  20950905.936   -19860795.70649 -15471181.28647  20950906.589    20950911.968
  20257820.288   -10300304.16649  -8026945.30348  20257820.113    20257826.006
  22009486.486   -15857066.87549 -12337422.97447  22009486.020    22009493.965
  21337025.460     1396612.64549   1019894.36447  21337025.644    21337032.414
  24212625.411    15762444.00149  12266592.16045  24212625.508    24212633.845
 03  3 20 19  8 30.0000000  0  7G 6G 4G30G 5G10G24G 9
  23058547.692   -13390948.32949 -10415190.19046  23058547.890    23058554.788
  23815379.751    15797583.70649  12063759.19645  23815380.195    23815387.830
  20939488.046   -19920797.23649 -15517935.71947  20939488.694    20939494.061
  20259988.824   -10288908.46549  -8018065.54648  20259988.652    20259994.532
  21995212.401   -15932077.44449 -12395872.70147  21995211.902    21995219.869
  21348877.091     1458893.31849   1068424.73247  21348877.280    21348884.070
  24231109.293    15859577.06949  12342280.13245  24231109.472    24231117.798
 03  3 20 19  9  0.0000000  0  7G 6G 4G30G 5G10G24G 9
  23045951.657   -13457140.90749 -10466768.80946  23045951.889    23045958.763
  23834561.728    15898385.08349  12142305.64045  23834562.225    23834569.757
  20928149.688   -19980380.73049 -15564364.41547  20928150.323    20928155.669
  20262257.940   -10276984.28149  -8008773.98548  20262257.771    20262263.665
  21981014.959   -16006685.24249 -12454008.59347  21981014.470    21981022.416
  21360785.947     1521474.62649   1117189.36047  21360786.155    21360792.933
  24249591.751    15956702.25149  12417961.95445  24249591.966    24249600.220
 03  3 20 19  9 30.0000000  0  7G 6G 4G30G 5G10G24G 9
  23033366.649   -13523275.62249 -10518302.33746  23033366.862    23033373.708
  23853755.360    15999247.93249  12220899.96345  23853755.858    23853763.462
  20916891.309   -20039544.00949 -15610465.67047  20916891.937    20916897.281
  20264627.631   -10264531.54249  -7999070.56048  20264627.460    20264633.345
  21966894.743   -16080887.32449 -12511828.34747  21966894.246    21966902.189
  21372751.621     1584354.40049   1166186.55847  21372751.812    21372758.610
  24268072.076    16053816.58549  12493635.31245  24268072.263    24268080.604
 03  3 20 19 10  0.0000000  0  7G 6G 4G30G 5G10G24G 9
  23020792.774   -13589351.95949 -10569790.37746  23020792.986    23020799.833
  23872960.368    16100170.44849  12299540.79645  23872960.923    23872968.491
  20905713.381   -20098284.37649 -15656237.38347  20905714.025    20905719.385
  20267098.031   -10251549.70649  -7988954.85248  20267097.850    20267103.733
  21952852.302   -16154680.62649 -12569329.56247  21952851.807    21952859.726
  21384773.651     1647530.48049   1215414.64647  21384773.859    21384780.657
  24286549.893    16150917.64749  12569298.31845  24286550.120    24286558.393
 03  3 20 19 10 30.0000000  0  7G 6G 4G30G 5G10G24G 9
  23008229.962   -13655370.04249 -10621233.02246  23008230.134    23008236.978
  23892176.261    16201150.29849  12378226.30645  23892176.780    23892184.395
  20894616.275   -20156600.04349 -15701678.16247  20894616.908    20894622.249
  20269669.063   -10238038.94649  -7978426.99748  20269668.880    20269674.779
  21938888.178   -16228062.28549 -12626510.03247  21938887.704    21938895.579
  21396851.594     1711000.32549   1264871.63647  21396851.798    21396858.594
  24305024.656    16248002.34549  12644948.59545  24305024.871    24305033.165
 03  3 20 19 11  0.0000000  0  7G 6G 4G30G 5G10G24G 9
  22995678.321   -13721329.17049 -10672629.73246  22995678.533    22995685.368
  23911402.772    16302186.07149  12456955.37945  23911403.251    23911410.795
  20883600.549   -20214488.26449 -15746785.86947  20883601.184    20883606.509
  20272340.889   -10223998.33549  -7967486.27348  20272340.721    20272346.621
  21925003.087   -16301028.83749 -12683367.03447  21925002.587    21925010.473
  21408985.126     1774762.33849   1314556.29047  21408985.308    21408992.142
  24323495.812    16345068.41949  12720584.32845  24323496.024    24323504.435
 03  3 20 19 11 30.0000000  0  7G 6G 4G30G 5G10G24G 9
  22983137.803   -13787229.84949 -10723980.89246  22983138.015    22983144.851
  23930639.453    16403274.81749  12535725.74045  23930639.833    23930647.488
  20872666.391   -20271947.51749 -15791559.31547  20872667.033    20872672.360
  20275113.446   -10209428.57649  -7956133.22748  20275113.251    20275119.180
  21911197.432   -16373577.87749 -12739898.70547  21911196.934    21911204.809
  21421173.585     1838812.95149   1364465.82647  21421173.740    21421180.593
  24341962.880    16442112.48949  12796202.92545  24341963.049    24341971.530
 03  3 20 19 12  0.0000000  0  7G 6G 4G30G 5G10G24G 9
  22970608.625   -13853071.27349 -10775285.86846  22970608.838    22970615.684
  23949885.898    16504415.13049  12614536.29545  23949886.289    23949894.004
  20861814.481   -20328974.84049 -15835996.18647  20861815.116    20861820.429
  20277986.816   -10194329.10149  -7944367.41248  20277986.622    20277992.553
  21897471.870   -16445705.82349 -12796102.26147  21897471.396    21897479.231
  21433416.652     1903150.49749   1414598.95247  21433416.804    21433423.677
  24360425.225    16539132.23049  12871802.54745  24360425.418    24360433.990
 03  3 20 19 12 30.0000000  0  7G 6G 4G30G 5G10G24G 9
  22958090.738   -13918853.30849 -10826544.58946  22958090.945    22958097.761
  23969141.735    16605604.75349  12693385.24945  23969142.108    23969149.801
  20851045.093   -20385568.42849 -15880095.09047  20851045.711    20851051.021
  20280960.967   -10178699.76749  -7932188.73148  20280960.783    20280966.701
  21883826.995   -16517410.02349 -12851975.61247  21883826.502    21883834.332
  21445713.892     1967772.94949   1464954.07747  21445714.081    21445720.953
  24378882.406    16636124.64849  12947380.89245  24378882.531    24378891.175
 03  3 20 19 13  0.0000000  0  7G 6G 4G30G 5G10G24G 9
  22945584.069   -13984576.16049 -10877757.18446  22945584.293    22945591.072
  23988406.569    16706841.66949  12772271.07645  23988406.951    23988414.753
  20840358.683   -20441725.98549 -15923854.22547  20840359.289    20840364.584
  20284035.994   -10162540.57949  -7919597.16648  20284035.804    20284041.729
  21870263.281   -16588687.64549 -12907516.57647  21870262.792    21870270.612
  21458064.969     2032678.07049   1515529.46747  21458065.141    21458072.034
  24397333.800    16733087.14649  13022935.90845  24397333.957    24397342.640
 03  3 20 19 13 30.0000000  0  7G 6G 4G30G 5G10G24G 9
  22933088.853   -14050238.99349 -10928923.01146  22933089.093    22933095.825
  24007680.014    16808124.02549  12851192.27045  24007680.378    24007688.250
  20829755.737   -20497445.02649 -15967271.66247  20829756.340    20829761.623
  20287211.922   -10145850.88049  -7906592.22548  20287211.736    20287217.675
  21856781.406   -16659535.36349 -12962722.54547  21856780.905    21856788.725
  21470469.461     2097863.84149   1566323.54147  21470469.623    21470476.518
  24415779.155    16830017.26749  13098465.70745  24415779.297    24415788.033
 03  3 20 19 14  0.0000000  0  7G 6G 4G30G 5G10G24G 9
  22920604.988   -14115842.20849 -10980042.37346  22920605.205    22920611.879
  24026961.685    16909449.63749  12930147.22645  24026962.030    24026969.870
  20819236.546   -20552723.73349 -16010345.97547  20819237.152    20819242.412
  20290488.748   -10128631.14949  -7893174.26948  20290488.557    20290494.502
  21843381.796   -16729950.55349 -13017591.46947  21843381.292    21843389.101
  21482926.726     2163327.28749   1617333.98747  21482926.909    21482933.802
  24434217.649    16926911.69749  13173967.68945  24434217.833    24434226.590
 03  3 20 19 14 30.0000000  0  7G 6G 4G30G 5G10G24G 9
  22908132.589   -14181385.14649 -11031114.76646  22908132.820    22908139.465
  24046251.292    17010816.74049  13009134.50745  24046251.666    24046259.552
  20808801.647   -20607559.69249 -16053075.28847  20808802.236    20808807.476
  20293866.532   -10110881.03749  -7879343.02548  20293866.329    20293872.263
  21830065.112   -16799929.97149 -13072120.81147  21830064.621    21830072.411
  21495436.513     2229066.45349   1668559.28347  21495436.689    21495443.582
  24452648.979    17023767.85749  13249439.82545  24452649.093    24452657.835
 03  3 20 19 15  0.0000000  0  7G 6G 4G30G 5G10G24G 9
  22895671.755   -14246867.01549 -11082139.59746  22895672.006    22895678.610
  24065548.456    17112223.87249  13088152.96145  24065548.907    24065556.731
  20798451.456   -20661950.16149 -16095457.47347  20798452.071    20798457.306
  20297345.283   -10092600.12849  -7865098.18148  20297345.070    20297351.016
  21816831.965   -16869470.35949 -13126308.07147  21816831.502    21816839.273
  21507998.454     2295079.77749   1719998.19947  21507998.612    21508005.537
  24471072.490    17120583.70949  13324880.55845  24471072.629    24471081.529
 03  3 20 19 15 30.0000000  0  7G 6G 4G30G 5G10G24G 9
  22883222.542   -14312288.08249 -11133117.03446  22883222.765    22883229.382
  24084852.812    17213668.69449  13167200.77245  24084853.343    24084861.115
  20788186.390   -20715893.48749 -16137491.23247  20788187.018    20788192.266
  20300924.981   -10073788.74149  -7850439.97548  20300924.782    20300930.713
  21803682.872   -16938569.12549 -13180151.19747  21803682.405    21803690.184
  21520612.029     2361364.36749   1771648.49647  21520612.180    21520619.113
  24489487.791    17217356.18849  13400287.48045  24489487.950    24489496.850
 03  3 20 19 16  0.0000000  0  7G 6G 4G30G 5G10G24G 9
  22870784.839   -14377648.67849 -11184047.35546  22870785.035    22870791.684
  24104163.803    17315148.61049  13246275.95445  24104164.304    24104172.186
  20778006.707   -20769387.91049 -16179175.19747  20778007.335    20778012.614
  20304605.523   -10054447.46949  -7835368.87648  20304605.324    20304611.249
  21790618.172   -17007224.21449 -13233648.60647  21790617.709    21790625.472
  21533276.752     2427917.69249   1823508.19947  21533276.893    21533283.841
  24507894.163    17314081.90649  13475657.99745  24507894.428    24507903.344
 03  3 20 19 16 30.0000000  0  7G 6G 4G30G 5G10G24G 9
  22858358.885   -14442947.52649 -11234929.56146  22858359.077    22858365.720
  24123481.399    17416662.80949  13325377.85045  24123481.920    24123489.798
  20767913.078   -20822430.37249 -16220506.98647  20767913.693    20767918.971
  20308387.085   -10034575.35749  -7819884.13548  20308386.886    20308392.812
  21777638.719   -17075431.61749 -13286797.18247  21777638.235    21777645.998
  21545992.295     2494738.39649   1875576.24647  21545992.470    21545999.412
  24526291.237    17410759.03649  13550990.60645  24526291.611    24526300.505
 03  3 20 19 17  0.0000000  0  7G 6G 4G30G 5G10G24G 9
  22845944.643   -14508184.80449 -11285763.78746  22845944.862    22845951.543
  24142804.928    17518208.67549  13404504.41045  24142805.523    24142813.456
  20757905.775   -20875019.16949 -16261485.26747  20757906.400    20757911.690
  20312269.565   -10014172.90249  -7803986.13248  20312269.368    20312275.307
  21764744.896   -17143188.98549 -13339595.08347  21764744.411    21764752.154
  21558758.183     2561823.47749   1927850.30047  21558758.362    21558765.322
  24544678.637    17507384.45449  13626282.92245  24544678.942    24544687.962
 03  3 20 19 17 30.0000000  0  7G 6G 4G30G 5G10G24G 9
  22833542.145   -14573360.42349 -11336549.97646  22833542.318    22833549.019
  24162134.222    17619784.35649  13483654.21645  24162134.892    24162142.752
  20747985.140   -20927152.39349 -16302108.55947  20747985.778    20747991.070
  20316252.878    -9993240.46749  -7787675.16348  20316252.671    20316258.627
  21751937.214   -17210493.55949 -13392040.15947  21751936.757    21751944.451
  21571573.963     2629170.71249   1980328.63247  21571574.150    21571581.108
  24563055.685    17603955.43449  13701532.82745  24563055.950    24563065.022
 03  3 20 19 18  0.0000000  0  7G 6G 4G30G 5G10G24G 9
  22821151.394   -14638474.12149 -11387287.91846  22821151.586    22821158.235
  24181468.875    17721387.53549  13562825.41445  24181469.437    24181477.343
  20738151.562   -20978827.97349 -16342375.24547  20738152.216    20738157.503
  20320337.038    -9971778.07449  -7770951.24548  20320336.843    20320342.789
  21739216.251   -17277342.42649 -13444130.13547  21739215.784    21739223.456
  21584439.213     2696777.76849   2033009.41747  21584439.373    21584446.324
  24581421.679    17700469.17149  13776738.10245  24581422.005    24581431.154
 03  3 20 19 18 30.0000000  0  7G 6G 4G30G 5G10G24G 9
  22808772.573   -14703525.33549 -11437977.15146  22808772.765    22808779.419
  24200808.398    17823016.92449  13642017.05745  24200808.938    24200816.873
  20728405.608   -21030043.36249 -16382283.33847  20728406.263    20728411.565
  20324522.120    -9949785.57249  -7753814.24748  20324521.926    20324527.877
  21726582.602   -17343732.55749 -13495862.64947  21726582.160    21726589.826
  21597353.515     2764642.63049   2085891.09047  21597353.653    21597360.647
  24599776.355    17796923.40749  13851897.01845  24599776.788    24599786.126
 03  3 20 19 19  0.0000000  0  7G 6G 4G30G 5G10G24G 9
  22796405.701   -14768513.74749 -11488617.46446  22796405.906    22796412.501
  24220152.510    17924670.62649  13721227.63945  24220153.017    24220161.212
  20718747.603   -21080796.52749 -16421831.26247  20718748.239    20718753.542
  20328808.024    -9927263.00549  -7736264.21348  20328807.829    20328813.780
  21714036.750   -17409661.24149 -13547235.60847  21714036.315    21714043.967
  21610316.415     2832763.09949   2138971.93747  21610316.579    21610323.581
  24618119.335    17893315.36949  13927007.37045  24618119.700    24618129.237
 03  3 20 19 19 30.0000000  0  7G 6G 4G30G 5G10G24G 9
  22784050.737   -14833439.47649 -11539208.93346  22784050.939    22784057.569
  24239500.894    18026346.44949  13800455.46445  24239501.411    24239509.559
  20709177.901   -21131085.71349 -16461017.63947  20709178.554    20709183.853
  20333194.698    -9904210.94249  -7718301.58648  20333194.522    20333200.464
  21701579.174   -17475126.09149 -13598247.12447  21701578.690    21701586.380
  21623327.517     2901136.79349   2192250.10247  21623327.692    21623334.743
  24636449.961    17989642.10749  14002066.92545  24636450.290    24636459.710
 03  3 20 19 20  0.0000000  0  7G 6G 4G30G 5G10G24G 9
  22771707.854   -14898301.91849 -11589751.07746  22771708.034    22771714.696
  24258853.132    18128042.72449  13879699.26045  24258853.645    24258861.758
  20699696.933   -21180908.63449 -16499840.69547  20699697.568    20699702.885
  20337682.175    -9880629.20949  -7699926.22848  20337682.006    20337687.947
  21689210.489   -17540123.90749 -13648894.72247  21689210.012    21689217.670
  21636386.384     2969761.32749   2245723.72447  21636386.561    21636393.622
  24654767.642    18085901.20749  14077073.76045  24654767.919    24654777.425
 03  3 20 19 20 30.0000000  0  7G 6G 4G30G 5G10G24G 9
  22759376.940   -14963100.88349 -11640243.76446  22759377.161    22759383.803
  24278208.870    18229757.45149  13958957.40945  24278209.426    24278217.508
  20690305.083   -21230263.22449 -16538298.81647  20690305.719    20690311.016
  20342270.414    -9856517.95849  -7681138.26248  20342270.249    20342276.197
  21676931.198   -17604651.84149 -13699176.16647  21676930.703    21676938.370
  21649492.611     3038634.88549   2299391.38947  21649492.788    21649499.861
  24673071.999    18182090.16149  14152025.90845  24673072.187    24673081.727
 03  3 20 19 21  0.0000000  0  7G 6G 4G30G 5G10G24G 9
  22747058.283   -15027835.71649 -11690686.48346  22747058.499    22747065.160
  24297567.869    18331489.22949  14038228.80545  24297568.364    24297576.582
  20681002.807   -21279147.00949 -16576390.07947  20681003.429    20681008.712
  20346959.389    -9831877.28049  -7661937.75848  20346959.213    20346965.167
  21664741.807   -17668707.15949 -13749089.35047  21664741.322    21664748.982
  21662645.824     3107755.28149   2353251.39447  21662645.992    21662653.081
  24691362.476    18278206.44449  14226921.45545  24691362.625    24691372.306
 03  3 20 19 21 30.0000000  0  7G 6G 4G30G 5G10G24G 9
  22734751.824   -15092506.56049 -11741079.33146  22734752.019    22734758.719
  24316929.640    18433235.63349  14117511.62545  24316930.029    24316938.338
  20671790.420   -21327558.46649 -16614113.29047  20671791.037    20671796.332
  20351749.024    -9806707.77649  -7642325.17848  20351748.847    20351754.800
  21652642.859   -17732287.45549 -13798632.38847  21652642.388    21652650.015
  21675845.502     3177119.97549   2407301.76647  21675845.684    21675852.781
  24709638.590    18374247.06649  14301758.01045  24709638.812    24709648.445
 03  3 20 19 22  0.0000000  0  7G 6G 4G30G 5G10G24G 9
  22722457.679   -15157112.48149 -11791421.58446  22722457.890    22722464.637
  24336293.939    18534995.36849  14196804.84645  24336294.354    24336302.613
  20662668.413   -21375495.07249 -16651466.48948  20662669.032    20662674.312
  20356639.340    -9781008.97949  -7622300.16448  20356639.172    20356645.130
  21640634.904   -17795389.40049 -13847802.69347  21640634.441    21640642.041
  21689091.387     3246727.28349   2461541.18947  21689091.554    21689098.648
  24727899.830    18470209.76049  14376533.83245  24727900.340    24727909.741
 03  3 20 19 22 30.0000000  0  7G 6G 4G30G 5G10G24G 9
  22710175.874   -15221653.84049 -11841713.52946  22710176.082    22710182.817
  24355660.434    18636766.27549  14276106.78845  24355660.797    24355669.045
  20653637.053   -21422955.19049 -16688448.40148  20653637.684    20653642.958
  20361630.221    -9754781.84249  -7601863.46248  20361630.047    20361636.018
  21628718.437   -17858010.72849 -13896598.48647  21628717.960    21628725.569
  21702382.909     3316574.57549   2515967.60747  21702383.093    21702390.196
  24746145.840    18566091.50149  14451246.56445  24746146.219    24746155.665
 03  3 20 19 23  0.0000000  0  7G 6G 4G30G 5G10G24G 9
  22697906.428   -15286130.23449 -11891954.86746  22697906.656    22697913.380
  24375028.623    18738546.38649  14355415.88545  24375029.048    24375037.217
  20644696.728   -21469937.04849 -16725057.63848  20644697.353    20644702.614
  20366721.568    -9728026.81449  -7581015.41548  20366721.392    20366727.372
  21616893.879   -17920148.97449 -13945017.85247  21616893.416    21616901.014
  21715719.631     3386659.51249   2570579.20547  21715719.840    21715726.951
  24764375.866    18661889.57449  14525894.08745  24764376.288    24764385.707
 03  3 20 19 23 30.0000000  0  7G 6G 4G30G 5G10G24G 9
  22685649.467   -15350540.90949 -11942144.98246  22685649.711    22685656.414
  24394398.338    18840334.44649  14434731.18145  24394398.789    24394406.979
  20635847.851   -21516438.20749 -16761292.30148  20635848.499    20635853.751
  20371913.429    -9700743.54749  -7559755.75148  20371913.258    20371919.250
  21605161.815   -17981801.22549 -13993058.52047  21605161.358    21605168.946
  21729101.249     3456980.11349   2625374.43747  21729101.436    21729108.539
  24782589.626    18757601.86749  14600474.75945  24782590.000    24782599.434
 03  3 20 19 24  0.0000000  0  8G 6G 4G30G 5G10G24G 9G17
  22673404.270   -15414889.61949 -11992286.81146  22673404.519    22673411.227
  24413768.443    18942124.49949  14514048.01345  24413768.780    24413777.056
  20627090.082   -21562460.65849 -16797153.95248  20627090.702    20627095.985
  20377204.915    -9672936.53649  -7538087.97448  20377204.755    20377210.766
  21593521.964   -18042968.63949 -14040721.38247  21593521.516    21593529.090
  21742526.474     3527529.89649   2680348.24447  21742526.652    21742533.765
  24800785.798    18853221.80149  14674983.45045  24800786.172    24800795.728
  25037769.563    -2178187.80649  -1677454.10245  25037769.293    25037779.681
 03  3 20 19 24 30.0000000  0  8G 6G 4G30G 5G10G24G 9G17
  22661171.855   -15479171.52149 -12042376.58746  22661172.087    22661178.801
  24433139.229    19043919.13049  14593368.39845  24433139.750    24433147.945
  20618424.659   -21607997.80849 -16832637.44248  20618425.291    20618430.547
  20382596.892    -9644601.69449  -7516008.90348  20382596.732    20382602.745
  21581975.780   -18103644.13549 -14088000.92847  21581975.310    21581982.920
  21755995.821     3598311.56549   2735502.74447  21755996.007    21756003.132
  24818964.683    18948751.06349  14749421.47745  24818964.938    24818974.599
  25020013.639    -2271495.54849  -1750161.27345  25020013.456    25020023.766
 03  3 20 19 25  0.0000000  0  8G 6G 4G30G 5G10G24G 9G17
  22648952.402   -15543385.32949 -12092413.30546  22648952.606    22648959.311
  24452510.773    19145717.46249  14672691.70645  24452511.348    24452519.601
  20609852.039   -21653047.09749 -16867740.78448  20609852.686    20609857.949
  20388089.372    -9615738.63649  -7493518.23948  20388089.199    20388095.216
  21570523.812   -18163824.26549 -14134894.48247  21570523.357    21570530.954
  21769509.025     3669323.66249   2790836.79947  21769509.202    21769516.331
  24837125.891    19044187.95549  14823787.50845  24837126.275    24837136.031
  25002280.645    -2364681.97449  -1822773.95445  25002280.362    25002290.788
 03  3 20 19 25 30.0000000  0  8G 6G 4G30G 5G10G24G 9G17
  22636745.840   -15607531.02249 -12142396.95046  22636746.047    22636752.766
  24471882.733    19247517.69149  14752016.47545  24471883.188    24471891.620
  20601372.663   -21697606.63849 -16902462.50348  20601373.296    20601378.572
  20393682.311    -9586347.72849  -7470616.26248  20393682.138    20393688.139
  21559166.565   -18223506.86649 -14181400.35847  21559166.100    21559173.692
  21783065.534     3740563.59449   2846348.38847  21783065.727    21783072.854
  24855269.272    19139529.98549  14898079.60545  24855269.555    24855279.288
  24984570.935    -2457746.02649  -1895291.25245  24984570.722    24984581.087
 03  3 20 19 26  0.0000000  0  8G 6G 4G30G 5G10G24G 9G17
  22624552.257   -15671608.72349 -12192327.61846  22624552.458    22624559.169
  24491254.567    19349317.52449  14831340.95945  24491255.027    24491263.498
  20592986.734   -21741674.92549 -16936801.42648  20592987.351    20592992.660
  20399375.531    -9556429.86249  -7447303.66548  20399375.356    20399381.378
  21547904.418   -18282689.76649 -14227516.85547  21547903.926    21547911.498
  21796664.983     3812028.95249   2902035.62747  21796665.173    21796672.332
  24873393.889    19234773.92649  14972295.27545  24873394.116    24873403.996
  24966884.684    -2550687.36849  -1967712.93445  24966884.446    24966894.933
 03  3 20 19 26 30.0000000  0  8G 6G 4G30G 5G10G24G 9G17
  22612371.631   -15735618.11149 -12242205.06246  22612371.871    22612378.582
  24510626.117    19451115.17549  14910663.71845  24510626.685    24510634.822
  20584694.641   -21785250.23049 -16970756.20648  20584695.252    20584700.540
  20405168.892    -9525985.58549  -7423580.88248  20405168.716    20405174.755
  21536737.835   -18341370.34349 -14273241.93747  21536737.367    21536744.924
  21810306.817     3883717.18349   2957896.54147  21810307.009    21810314.187
  24891499.391    19329917.15349  15046432.43345  24891499.642    24891509.589
  24949222.088    -2643504.75649  -2040038.05345  24949221.983    24949232.272
 03  3 20 19 27  0.0000000  0  8G 6G 4G30G 5G10G24G 9G17
  22600204.024   -15799559.44649 -12292029.46246  22600204.234    22600210.966
  24529996.869    19552908.30749  14989982.97745  24529997.426    24530005.386
  20576496.644   -21828331.12049 -17004325.72748  20576497.247    20576502.552
  20411062.211    -9495016.05649  -7399448.80648  20411062.056    20411068.099
  21525667.202   -18399546.79249 -14318574.19147  21525666.721    21525674.257
  21823990.627     3955625.88249   3013929.23947  21823990.826    21823998.016
  24909585.072    19424956.56549  15120488.68545  24909585.362    24909595.487
  24931583.229    -2736197.47749  -2112266.01645  24931583.154    24931593.240
 03  3 20 19 27 30.0000000  0  8G 6G 4G30G 5G10G24G 9G17
  22588049.509   -15863431.88349 -12341800.19046  22588049.718    22588056.416
  24549366.425    19654695.52549  15069297.61445  24549366.867    24549374.752
  20568393.072   -21870915.51549 -17037508.37248  20568393.687    20568399.027
  20417055.436    -9463521.48449  -7374907.60948  20417055.277    20417061.333
  21514693.088   -18457216.07049 -14363511.24747  21514692.598    21514700.133
  21837716.016     4027752.89649   3070132.05547  21837716.214    21837723.389
  24927650.585    19519889.87549  15194462.24845  24927650.756    24927661.116
  24913968.286    -2828763.84249  -2184395.54345  24913968.219    24913978.345
 03  3 20 19 28  0.0000000  0  8G 6G 4G30G 5G10G24G 9G17
  22575908.110   -15927235.42249 -12391517.22446  22575908.304    22575915.040
  24568734.388    19756474.80849  15148606.06645  24568735.109    24568742.821
  20560384.362   -21913001.64649 -17070302.75948  20560384.962    20560390.332
  20423148.474    -9431502.48549  -7349957.76848  20423148.319    20423154.364
  21503815.870   -18514376.10649 -14408051.49347  21503815.378    21503822.884
  21851482.450     4100095.76549   3126503.06947  21851482.623    21851489.801
  24945695.323    19614714.21249  15268350.88645  24945695.604    24945705.929
  24896377.701    -2921202.99149  -2256425.92045  24896377.537    24896387.778
 03  3 20 19 28 30.0000000  0  8G 6G 4G30G 5G10G24G 9G17
  22563779.849   -15990969.65049 -12441180.25546  22563780.100    22563786.792
  24588100.664    19858244.56549  15227907.12945  24588101.222    24588108.991
  20552470.733   -21954587.86949 -17102707.61048  20552471.360    20552476.719
  20429341.223    -9398959.65649  -7324599.74748  20429341.061    20429347.106
  21493036.061   -18571024.29449 -14452192.89747  21493035.561    21493043.031
  21865289.554     4172652.32249   3183040.60047  21865289.745    21865296.949
  24963719.042    19709427.37849  15342152.88845  24963719.247    24963729.565
  24878811.341    -3013514.17449  -2328356.58245  24878811.128    24878821.248
 03  3 20 19 29  0.0000000  0  8G 6G 4G30G 5G10G24G 9G17
  22551664.897   -16054634.13149 -12490788.93846  22551665.117    22551671.817
  24607464.711    19960002.84749  15307199.23845  24607465.097    24607473.121
  20544652.654   -21995672.19949 -17134721.37648  20544653.282    20544658.635
  20435633.487    -9365893.68049  -7298834.07748  20435633.315    20435639.365
  21482354.043   -18627158.32449 -14495933.67047  21482353.566    21482361.025
  21879136.891     4245420.41549   3239742.95647  21879137.088    21879144.300
  24981720.919    19804026.72349  15415866.19545  24981721.203    24981731.658
  24861269.688    -3105696.26349  -2400186.68845  24861269.462    24861279.455
 03  3 20 19 29 30.0000000  0  8G 6G 4G30G 5G10G24G 9G17
  22539563.367   -16118228.18449 -12540342.74446  22539563.575    22539570.240
  24626826.318    20061748.40049  15386481.38645  24626826.533    24626834.823
  20536930.514   -22036252.45449 -17166342.35848  20536931.128    20536936.467
  20442025.291    -9332304.64349  -7272660.83048  20442025.130    20442031.176
  21471770.455   -18682775.42249 -14539271.64247  21471769.983    21471777.410
  21893024.117     4318398.24849   3296608.75647  21893024.334    21893031.547
  24999700.713    19898509.92149  15489488.96845  24999701.116    24999711.666
  24843752.841    -3197747.51649  -2471914.82445  24843752.488    24843762.652
 03  3 20 19 30  0.0000000  0  8G 6G 4G30G 5G10G24G 9G17
  22527475.227   -16181751.65049 -12589841.54646  22527475.443    22527482.091
  24646185.078    20163479.33949  15465752.18145  24646185.510    24646193.728
  20529304.568   -22076327.13649 -17197569.38748  20529305.188    20529310.519
  20448516.483    -9298193.37349  -7246080.65048  20448516.317    20448522.371
  21461285.657   -18737873.40649 -14582205.10347  21461285.172    21461292.589
  21906950.860     4391583.35949   3353636.07047  21906951.023    21906958.265
  25017657.969    19992874.27849  15563019.15145  25017658.265    25017668.922
  24826261.079    -3289667.09449  -2543540.35345  24826260.767    24826270.658
 03  3 20 19 30 30.0000000  0  8G 6G 4G30G 5G10G24G 9G17
  22515400.700   -16245203.81549 -12639284.78646  22515400.912    22515407.559
  24665540.824    20265194.28849  15545010.51145  24665541.320    24665549.654
  20521775.226   -22115894.09149 -17228400.78748  20521775.860    20521781.201
  20455106.992    -9263560.17149  -7219093.77048  20455106.814    20455112.873
  21450900.129   -18792449.53749 -14624731.93247  21450899.641    21450907.063
  21920916.683     4464973.89349   3410823.45147  21920916.855    21920924.080
  25035592.102    20087117.45349  15636454.88345  25035592.479    25035603.393
  24808794.494    -3381453.77149  -2615062.36245  24808794.249    24808803.967
 03  3 20 19 31  0.0000000  0  8G 6G 4G30G 5G10G24G 9G17
  22503339.776   -16308584.50549 -12688672.33646  22503340.022    22503346.647
  24684893.202    20366891.28049  15624254.84245  24684893.833    24684902.015
  20514342.771   -22154951.95949 -17258835.49548  20514343.386    20514348.759
  20461796.633    -9228406.02849  -7191700.96048  20461796.473    20461802.526
  21440614.279   -18846501.88249 -14666850.61847  21440613.812    21440621.196
  21934921.124     4538567.47749   3468169.05147  21934921.300    21934928.517
  25053502.748    20181236.66449  15709794.04745  25053503.150    25053514.033
  24791353.519    -3473106.35049  -2686479.83245  24791353.193    24791362.946
 03  3 20 19 31 30.0000000  0  8G 6G 4G30G 5G10G24G 9G17
  22491292.500   -16371893.41049 -12738003.94146  22491292.722    22491299.356
  24704241.874    20468568.71249  15703483.93845  24704242.389    24704250.839
  20507007.503   -22193498.99249 -17288872.15148  20507008.114    20507013.497
  20468585.248    -9192731.74749  -7163902.85248  20468585.073    20468591.144
  21430428.540   -18900028.19049 -14708559.40847  21430428.083    21430435.462
  21948963.723     4612361.51949   3525670.85047  21948963.898    21948971.129
  25071389.463    20275229.57449  15783034.74845  25071389.758    25071400.751
  24773938.210    -3564623.82749  -2757792.00445  24773937.909    24773947.837
 03  3 20 19 32  0.0000000  0  7G 6G 4G30G 5G10G24G17
  22479259.366   -16435127.91849 -12787277.58146  22479259.593    22479266.199
  24723586.786    20570226.87749  15782697.99745  24723587.337    24723595.712
  20499770.215   -22231531.27049 -17318507.69948  20499770.834    20499776.209
  20475473.157    -9156535.79349  -7135698.24748  20475472.985    20475479.054
  21420343.820   -18953023.88449 -14749854.73547  21420343.355    21420350.713
  21963044.518     4686356.44249   3583329.18047  21963044.681    21963051.938
  24756549.252    -3656003.22649  -2828996.66445  24756548.988    24756558.782
 03  3 20 19 32 30.0000000  0  7G 6G 4G30G 5G10G24G17
  22467240.394   -16498288.12049 -12836493.31046  22467240.593    22467247.200
  24742927.665    20671863.82049  15861895.53145  24742928.337    24742936.620
  20492631.088   -22269047.62249 -17347741.23148  20492631.716    20492637.092
  20482460.069    -9119819.37249  -7107088.07848  20482459.898    20482465.971
  21410360.388   -19005487.03449 -14790735.09747  21410359.916    21410367.278
  21977162.979     4760549.20649   3641141.67147  21977163.146    21977170.387
  24739186.680    -3747243.88849  -2900093.22745  24739186.399    24739195.994
 03  3 20 19 33  0.0000000  0  7G 6G 4G30G 5G10G24G17
  22455235.072   -16561376.25249 -12885652.89546  22455235.294    22455241.927
  24762263.682    20773475.14149  15941073.10645  24762264.271    24762272.754
  20485589.951   -22306049.04549 -17376573.51648  20485590.601    20485595.983
  20489545.417    -9082585.74949  -7078074.89348  20489545.243    20489551.339
  21400478.216   -19057418.18849 -14831200.91447  21400477.748    21400485.091
  21991318.190     4834935.07749   3699104.64047  21991318.317    21991325.587
  24721850.099    -3838347.41049  -2971082.88445  24721849.809    24721859.435
 03  3 20 19 33 30.0000000  0  7G 6G 4G30G 5G10G24G17
  22443243.744   -16624391.19449 -12934755.43246  22443243.956    22443250.611
  24781594.736    20875060.03749  16020230.09745  24781595.288    24781603.756
  20478647.287   -22342533.06049 -17405002.62948  20478647.907    20478653.295
  20496729.153    -9044834.98349  -7048658.74648  20496728.990    20496735.087
  21390697.796   -19108814.52749 -14871249.98947  21390697.328    21390704.676
  22005509.927     4909512.89049   3757217.17147  22005510.042    22005517.299
  24704539.957    -3929312.12549  -3041964.35445  24704539.723    24704549.420
 03  3 20 19 34  0.0000000  0  6G 6G30G 5G10G24G17
  22431266.885   -16687330.11549 -12983798.74446  22431267.097    22431273.752
  20471803.849   -22378495.61449 -17433025.40748  20471804.475    20471809.877
  20504011.601    -9006565.62249  -7018838.49448  20504011.438    20504017.542
  21381020.062   -19159671.32149 -14910878.64547  21381019.588    21381026.949
  22019738.206     4984282.60349   3815479.23947  22019738.322    22019745.570
  24687256.941    -4020134.81349  -3112735.20745  24687256.657    24687266.495
 03  3 20 19 34 30.0000000  0  6G 6G30G 5G10G24G17
  22419304.755   -16750191.41549 -13032781.56946  22419304.958    22419311.628
  20465060.145   -22413933.96449 -17460639.71448  20465060.783    20465066.202
  20511392.794    -8967777.31949  -6988613.87848  20511392.628    20511398.751
  21371445.621   -19209985.18249 -14950084.24147  21371445.166    21371452.522
  22034002.755     5059243.34449   3873890.15247  22034002.927    22034010.174
  24670001.331    -4110813.02049  -3183393.46745  24670001.095    24670010.883
 03  3 20 19 35  0.0000000  0  6G 6G30G 5G10G24G17
  22407356.597   -16812979.43549 -13081707.29446  22407356.770    22407363.451
  20458415.610   -22448851.22349 -17487847.97048  20458416.243    20458421.652
  20518871.690    -8928475.63149  -6957989.21548  20518871.531    20518877.666
  21361973.996   -19259758.79749 -14988868.85847  21361973.544    21361980.916
  22048302.330     5134388.02549   3932444.39647  22048302.528    22048309.801
  24652772.430    -4201350.46849  -3253942.04545  24652772.141    24652781.874
 03  3 20 19 35 30.0000000  0  6G 6G30G 5G10G24G17
  22395422.660   -16875692.70249 -13130574.78046  22395422.861    22395429.534
  20451870.756   -22483244.80249 -17514648.16848  20451871.404    20451876.804
  20526448.306    -8888660.40849  -6926964.39648  20526448.146    20526454.299
  21352605.837   -19308988.87549 -15027229.94447  21352605.369    21352612.718
  22062636.720     5209715.64949   3991141.18247  22062636.934    22062644.227
  24635570.894    -4291745.31749  -3324379.53845  24635570.639    24635580.325
 03  3 20 19 36  0.0000000  0  6G 6G30G 5G10G24G17
  22383503.001   -16938330.87049 -13179383.74646  22383503.203    22383509.917
  20445425.836   -22517113.05249 -17541039.01648  20445426.466    20445431.883
  20534122.465    -8848332.50149  -6895540.08648  20534122.313    20534128.465
  21343341.488   -19357673.29149 -15065165.83647  21343341.002    21343348.356
  22077005.482     5285223.96849   4049978.77947  22077005.717    22077013.026
  24618396.712    -4381996.39849  -3394704.98045  24618396.469    24618406.050
 03  3 20 19 36 30.0000000  0  6G 6G30G 5G10G24G17
  22371598.007   -17000892.16149 -13228132.80846  22371598.175    22371604.881
  20439081.408   -22550453.23849 -17567018.38848  20439082.048    20439087.472
  20541894.278    -8807491.58649  -6863716.02848  20541894.103    20541900.277
  21334181.587   -19405808.69649 -15102673.92847  21334181.114    21334188.462
  22091408.428     5360911.92649   4108956.35247  22091408.676    22091415.995
  24601250.091    -4472101.62949  -3464916.74645  24601249.899    24601259.614
 03  3 20 19 37  0.0000000  0  6G 6G30G 5G10G24G17
  22359707.725   -17063376.16649 -13276821.64946  22359707.856    22359714.593
  20432837.739   -22583264.03549 -17592585.24848  20432838.400    20432843.803
  20549763.483    -8766138.64649  -6831492.98948  20549763.305    20549769.503
  21325126.508   -19453393.36949 -15139752.88547  21325126.052    21325133.402
  22105845.217     5436777.50749   4168072.32847  22105845.452    22105852.809
  24584131.553    -4562059.53849  -3535013.71845  24584131.470    24584141.151
 03  3 20 19 37 30.0000000  0  6G 6G30G 5G10G24G17
  22347832.120   -17125782.78249 -13325450.17546  22347832.298    22347839.001
  20426695.086   -22615543.97749 -17617738.45248  20426695.733    20426701.124
  20557729.913    -8724274.95849  -6798871.96848  20557729.750    20557735.948
  21316176.671   -19500425.10349 -15176400.97547  21316176.188    21316183.522
  22120315.366     5512818.45949   4227324.96347  22120315.604    22120322.949
  24567041.250    -4651870.12449  -3604995.99145  24567041.061    24567050.503
 03  3 20 19 38  0.0000000  0  6G 6G30G 5G10G24G17
  22335971.401   -17188111.27249 -13374017.82547  22335971.569    22335978.301
  20420653.763   -22647291.23249 -17642476.57448  20420654.415    20420659.810
  20565793.399    -8681901.12149  -6765853.43248  20565793.228    20565799.456
  21307332.457   -19546901.71549 -15212616.49747  21307331.991    21307339.310
  22134818.539     5589032.92549   4286712.80347  22134818.764    22134826.164
  24549979.098    -4741532.03549  -3674862.35445  24549978.904    24549988.384
 03  3 20 19 38 30.0000000  0  6G 6G30G 5G10G24G17
  22324125.757   -17250360.57249 -13422523.77747  22324125.959    22324132.656
  20414714.239   -22678503.79149 -17666798.05148  20414714.887    20414720.303
  20573953.939    -8639017.29949  -6732437.50348  20573953.758    20573959.995
  21298594.346   -19592820.73749 -15248397.53947  21298593.900    21298601.192
  22149354.392     5665419.16749   4346234.49547  22149354.611    22149362.008
  24532945.506    -4831043.28149  -3744611.26145  24532945.266    24532954.961
 03  3 20 19 39  0.0000000  0  6G 6G30G 5G10G24G17
  22312295.257   -17312530.21049 -13470967.64647  22312295.469    22312302.167
  20408876.735   -22709180.22649 -17690701.76448  20408877.348    20408882.791
  20582211.303    -8595624.78849  -6698625.19848  20582211.122    20582217.364
  21289962.721   -19638180.22249 -15283742.57547  21289962.276    21289969.550
  22163922.551     5741974.94849   4405888.30147  22163922.726    22163930.167
  24515940.819    -4920403.00949  -3814242.13245  24515940.667    24515950.404
 03  3 20 19 39 30.0000000  0  6G 6G30G 5G10G24G17
  22300479.971   -17374619.95649 -13519349.25547  22300480.169    22300486.857
  20403141.417   -22739319.54349 -17714186.94848  20403142.029    20403147.469
  20590565.189    -8551724.92549  -6664417.55748  20590565.008    20590571.272
  21281437.896   -19682978.48649 -15318650.29547  21281437.438    21281444.748
  22178522.471     5818697.98249   4465672.42947  22178522.648    22178530.136
  24498965.211    -5009610.78549  -3883754.65545  24498965.059    24498974.546
 03  3 20 19 40  0.0000000  0  6G 6G30G 5G10G24G17
  22288680.029   -17436629.09049 -13567668.05547  22288680.218    22288686.926
  20397508.628   -22768920.01049 -17737252.24748  20397509.238    20397514.702
  20599015.486    -8507318.49349  -6629815.17748  20599015.308    20599021.587
  21273020.249   -19727213.41749 -15353119.05447  21273019.795    21273027.104
  22193153.853     5895586.17949   4525585.25647  22193154.029    22193161.537
  24482018.582    -5098665.84849  -3953148.17045  24482018.481    24482027.758
 03  3 20 19 40 30.0000000  0  6G 6G30G 5G10G24G17
  22276895.560   -17498556.72449 -13615923.34847  22276895.736    22276902.488
  20391978.740   -22797979.66249 -17759896.13248  20391979.346    20391984.815
  20607562.064    -8462406.11149  -6594818.55348  20607561.872    20607568.163
  21264710.273   -19770882.64849 -15387147.00947  21264709.798    21264717.128
  22207816.378     5972637.97749   4585625.55947  22207816.548    22207824.058
  24465101.341    -5187566.05049  -4022420.95845  24465101.243    24465110.629
 03  3 20 19 41  0.0000000  0  6G 6G30G 5G10G24G17
  22265126.671   -17560402.57549 -13664114.92447  22265126.863    22265133.616
  20386551.996   -22826497.42649 -17782117.76848  20386552.613    20386558.085
  20616204.691    -8416988.92949  -6559428.57848  20616204.519    20616210.812
  21256508.227   -19813984.66549 -15420732.98147  21256507.746    21256515.082
  22222509.606     6049851.24949   4645791.68447  22222509.807    22222517.358
  24448213.783    -5276310.90249  -4091572.72745  24448213.614    24448223.117
 03  3 20 19 41 30.0000000  0  6G 6G30G 5G10G24G17
  22253373.396   -17622166.54749 -13712242.69647  22253373.600    22253380.317
  20381228.564   -22854472.26149 -17803916.33948  20381229.169    20381234.663
  20624943.022    -8371068.66549  -6523646.59248  20624942.849    20624949.159
  21248414.450   -19856517.75249 -15453875.63147  21248413.969    21248421.295
  22237233.170     6127223.65349   4706081.81347  22237233.344    22237240.925
  24431355.876    -5364900.27449  -4160603.36745  24431355.665    24431365.010
 03  3 20 19 42  0.0000000  0  6G 6G30G 5G10G24G17
  22241635.949   -17683847.19549 -13760305.52647  22241636.136    22241642.889
  20376008.889   -22881901.80549 -17825290.01148  20376009.512    20376014.994
  20633777.107    -8324645.35949  -6487472.62748  20633776.923    20633783.250
  21240429.452   -19898479.17249 -15486572.82547  21240428.957    21240436.279
  22251986.711     6204753.70149   4766494.78747  22251986.860    22251994.465
  24414527.683    -5453331.97449  -4229511.13445  24414527.465    24414536.809
 03  3 20 19 42 30.0000000  0  6G 6G30G 5G10G24G17
  22229914.428   -17745444.10149 -13808303.11447  22229914.590    22229921.343
  20370893.193   -22908785.03549 -17846237.98848  20370893.804    20370899.307
  20642706.668    -8277720.41649  -6450907.77348  20642706.482    20642712.824
  21232553.505   -19939867.43949 -15518823.41247  21232553.010    21232560.325
  22266769.838     6282439.23849   4827028.91547  22266769.986    22266777.575
  24397729.789    -5541605.49949  -4298295.63245  24397729.483    24397738.844
 03  3 20 19 43  0.0000000  0  6G 6G30G 5G10G24G17
  22218208.849   -17806957.47949 -13856235.60747  22218209.014    22218215.693
  20365881.547   -22935121.38549 -17866759.82248  20365882.153    20365887.648
  20651731.367    -8230295.57749  -6413953.38448  20651731.164    20651737.530
  21224786.898   -19980681.22049 -15550626.33447  21224786.396    21224793.711
  22281581.992     6360277.38649   4887681.96047  22281582.112    22281589.747
  24380961.976    -5629720.47449  -4366956.60445  24380961.821    24380971.153
 03  3 20 19 43 30.0000000  0  6G 6G30G 5G10G24G17
  22206519.409   -17868385.77249 -13904101.81347  22206519.576    22206526.292
  20360974.452   -22960908.32549 -17886853.54848  20360975.070    20360980.559
  20660851.082    -8182371.29849  -6376609.83048  20660850.881    20660857.255
  21217130.088   -20020917.81849 -15581979.51147  21217129.577    21217136.892
  22296423.002     6438267.13849   4948453.14747  22296423.128    22296430.765
  24364224.846    -5717674.69449  -4435492.29545  24364224.659    24364234.079
 03  3 20 19 44  0.0000000  0  6G 6G30G 5G10G24G17
  22194846.291   -17929728.58949 -13951901.40347  22194846.428    22194853.157
  20356172.097   -22986144.78249 -17906518.32748  20356172.715    20356178.227
  20670065.608    -8133948.72849  -6338877.99448  20670065.402    20670071.787
  21209583.471   -20060575.40849 -15612881.51747  21209582.981    21209590.298
  22311292.432     6516406.41149   5009340.84047  22311292.573    22311300.217
  24347518.168    -5805467.98949  -4503902.59445  24347517.974    24347527.453
 03  3 20 19 44 30.0000000  0  6G 6G30G 5G10G24G17
  22183189.572   -17990984.97049 -13999633.63647  22183189.757    22183196.430
  20351474.819   -23010829.16449 -17925752.92048  20351475.447    20351480.935
  20679374.829    -8085028.54849  -6300758.40648  20679374.647    20679381.010
  21202147.405   -20099652.08349 -15643330.85847  21202146.919    21202154.242
  22326190.045     6594693.42049   5070343.65247  22326190.170    22326197.811
  24330842.522    -5893098.97549  -4572186.44945  24330842.268    24330851.715
 03  3 20 19 45  0.0000000  0  6G 6G30G 5G10G24G17
  22171549.337   -18052154.77149 -14047298.40647  22171549.516    22171556.196
  20346882.808   -23034960.54649 -17944556.60348  20346883.416    20346888.908
  20688778.435    -8035612.40249  -6262252.35748  20688778.247    20688784.631
  21194822.120   -20138146.63649 -15673326.59947  21194821.630    21194828.966
  22341115.272     6673125.85949   5131459.78747  22341115.408    22341123.063
  24314197.975    -5980566.84349  -4640343.17645  24314197.701    24314207.141
 03  3 20 19 45 30.0000000  0  6G 6G30G 5G10G24G17
  22159925.675   -18113237.34049 -14094895.20647  22159925.872    22159932.591
  20342396.243   -23058537.55849 -17962928.30648  20342396.862    20342402.354
  20698276.204    -7985701.38949  -6223360.69448  20698276.012    20698282.406
  21187607.971   -20176057.22549 -15702867.30547  21187607.505    21187614.835
  22356067.783     6751701.77949   5192687.73547  22356067.946    22356075.609
  24297584.560    -6067870.58249  -4708371.98645  24297584.283    24297593.779
 03  3 20 19 46  0.0000000  0  6G 6G30G 5G10G24G17
  22148318.844   -18174231.79549 -14142423.34547  22148319.008    22148325.737
  20338015.452   -23081558.75449 -17980866.90948  20338016.084    20338021.579
  20707867.937    -7935296.61849  -6184084.28548  20707867.771    20707874.165
  21180505.289   -20213381.90249 -15731951.45347  21180504.822    21180512.152
  22371047.292     6830419.51549   5254026.18147  22371047.476    22371055.158
  24281002.505    -6155009.23449  -4776272.19445  24281002.262    24281011.708
 03  3 20 19 46 30.0000000  0  6G 6G30G 5G10G24G17
  22136728.834   -18235137.62849 -14189882.43047  22136729.021    22136735.677
  20333740.668   -23104023.00449 -17998371.53148  20333741.294    20333746.783
  20717553.409    -7884399.23649  -6144424.02148  20717553.236    20717559.646
  21173514.430   -20250119.17449 -15760577.88847  21173513.951    21173521.273
  22386053.406     6909276.82049   5315473.38247  22386053.587    22386061.284
  24264452.262    -6241981.80449  -4844043.01645  24264451.970    24264461.170
 03  3 20 19 47  0.0000000  0  6G 6G30G 5G10G24G17
  22125155.778   -18295954.41249 -14237272.13247  22125155.993    22125162.643
  20329572.020   -23125929.33849 -18015441.41548  20329572.650    20329578.119
  20727332.333    -7833010.70549  -6104381.04248  20727332.167    20727338.580
  21166635.643   -20286267.47349 -15788745.38647  21166635.163    21166642.474
  22401085.604     6988271.58049   5377027.68746  22401085.811    22401093.514
  24247933.539    -6328787.65249  -4911683.86745  24247933.255    24247942.573
 03  3 20 19 47 30.0000000  0  6G 6G30G 5G10G24G17
  22113599.950   -18356680.79949 -14284591.39047  22113600.153    22113606.793
  20325509.883   -23147275.97949 -18032075.17248  20325510.522    20325515.990
  20737204.590    -7781131.73449  -6063955.90448  20737204.422    20737210.850
  21159869.325   -20321824.64649 -15816452.26247  21159868.858    21159876.148
  22416143.730     7067402.40349   5438688.02546  22416143.947    22416151.648
  24231446.867    -6415425.32349  -4979193.67345  24231446.589    24231456.082
 03  3 20 19 48  0.0000000  0  6G 6G30G 5G10G24G17
  22102061.307   -18417316.88149 -14331840.28747  22102061.491    22102068.100
  20321554.374   -23168062.47349 -18048272.45848  20321555.010    20321560.487
  20747169.764    -7728764.53449  -6023150.33648  20747169.603    20747176.037
  21153215.631   -20356789.75149 -15843697.78147  21153215.184    21153222.482
  22431227.299     7146666.78349   5500452.42346  22431227.514    22431235.232
  24214992.243    -6501894.86749  -5046572.49845  24214992.100    24215001.316
 03  3 20 19 48 30.0000000  0  6G 6G30G 5G10G24G17
  22090540.026   -18477861.62749 -14379018.00847  22090540.237    22090546.858
  20317705.710   -23188287.20749 -18064032.00948  20317706.355    20317711.857
  20757227.704    -7675909.91649  -5981964.95248  20757227.550    20757233.984
  21146675.046   -20391160.86349 -15870480.45847  21146674.602    21146681.877
  22446336.038     7226063.45149   5562319.91146  22446336.225    22446343.961
  24198569.825    -6588195.38549  -5113819.63145  24198569.639    24198578.760
 03  3 20 19 49  0.0000000  0  6G 6G30G 5G10G24G17
  22079036.279   -18538314.19949 -14426123.90447  22079036.471    22079043.086
  20313964.224   -23207948.97449 -18079352.87948  20313964.885    20313970.379
  20767378.124    -7622569.19249  -5940400.78648  20767377.973    20767384.416
  21140247.756   -20424936.36849 -15896799.01847  21140247.301    21140254.600
  22461469.460     7305590.07749   5624288.65746  22461469.648    22461477.415
  24182179.786    -6674325.30949  -5180933.80545  24182179.606    24182188.747
 03  3 20 19 49 30.0000000  0  6G 6G30G 5G10G24G17
  22067550.214   -18598674.06249 -14473157.56947  22067550.393    22067556.987
  20310329.995   -23227046.95149 -18094234.43548  20310330.651    20310336.138
  20777620.775    -7568743.76949  -5898458.93548  20777620.613    20777627.087
  21133934.092   -20458114.87849 -15922652.39747  21133933.652    21133940.923
  22476627.296     7385244.72649   5686357.16046  22476627.465    22476635.247
  24165822.508    -6760283.43349  -5247914.10545  24165822.309    24165831.654
 03  3 20 19 50  0.0000000  0  6G 6G30G 5G10G24G17
  22056081.756   -18658940.94949 -14520118.78547  22056081.962    22056088.581
  20306803.244   -23245580.20849 -18108675.94848  20306803.902    20306809.390
  20787955.367    -7514435.37649  -5856140.74448  20787955.198    20787961.672
  21127734.230   -20490695.32149 -15948039.74447  21127733.784    21127741.062
  22491809.020     7465025.10949   5748523.64746  22491809.165    22491816.934
  24149497.848    -6846069.99949  -5314760.74545  24149497.671    24149506.960
 03  3 20 19 50 30.0000000  0  6G 6G30G 5G10G24G17
  22044631.326   -18719113.43149 -14567006.44147  22044631.529    22044638.147
  20303384.250   -23263547.03949 -18122676.09148  20303384.909    20303390.416
  20798381.713    -7459644.68449  -5813446.73348  20798381.540    20798388.043
  21121648.631   -20522675.29349 -15972959.19847  21121648.187    21121655.468
  22507014.406     7544929.96149   5810787.11646  22507014.608    22507022.408
  24133206.093    -6931683.09049  -5381472.19445  24133205.949    24133215.165
 03  3 20 19 51  0.0000000  0  6G 6G30G 5G10G24G17
  22033198.978   -18779190.95649 -14613820.09247  22033199.164    22033205.780
  20300073.273   -23280946.43249 -18136234.07248  20300073.941    20300079.457
  20808899.525    -7404373.26649  -5770378.13348  20808899.369    20808905.876
  21115677.506   -20554053.70849 -15997409.90347  21115677.061    21115684.353
  22522243.135     7624957.46549   5873146.16246  22522243.355    22522251.172
  24116947.459    -7017122.48649  -5448048.32645  24116947.335    24116956.474
 03  3 20 19 51 30.0000000  0  6G 6G30G 5G10G24G17
  22021784.774   -18839173.07149 -14660559.40547  22021784.956    22021791.568
  20296870.436   -23297777.69849 -18149349.35948  20296871.088    20296876.605
  20819508.554    -7348622.61149  -5726936.10748  20819508.394    20819514.907
  21109821.095   -20584829.42249 -16021390.96847  21109820.665    21109827.933
  22537494.844     7705105.45749   5935599.09346  22537495.057    22537502.861
  24100722.221    -7102386.96249  -5514488.12745  24100722.068    24100731.235
 03  3 20 19 52  0.0000000  0  6G 6G30G 5G10G24G17
  22010388.871   -18899058.86949 -14707223.66647  22010389.065    22010395.676
  20293775.885   -23314039.66849 -18162021.03448  20293776.531    20293782.061
  20830208.527    -7292394.00449  -5683121.63748  20830208.367    20830214.892
  21104079.661   -20615000.95849 -16044901.24247  21104079.220    21104086.465
  22552769.083     7785371.92749   5998144.34746  22552769.313    22552777.120
  24084530.232    -7187476.02049  -5580791.24645  24084530.047    24084539.290
 03  3 20 19 52 30.0000000  0  6G 6G30G 5G10G24G17
  21999011.508   -18958847.39149 -14753812.12547  21999011.681    21999018.305
  20290789.924   -23329731.03549 -18174248.08148  20290790.578    20290796.105
  20840999.210    -7235688.68749  -5638935.70648  20840999.047    20841005.581
  21098453.513   -20644566.52249 -16067939.33347  21098453.085    21098460.307
  22568065.657     7865755.75949   6060781.06046  22568065.873    22568073.666
  24068371.874    -7272388.57949  -5646956.84745  24068371.633    24068380.810
 03  3 20 19 53  0.0000000  0  6G 6G30G 5G10G24G17
  21987652.692   -19018538.27949 -14800324.50647  21987652.885    21987659.492
  20287912.655   -23344851.35849 -18186030.16348  20287913.310    20287918.828
  20851880.291    -7178508.49349  -5594379.74648  20851880.124    20851886.673
  21092942.823   -20673525.28349 -16090504.59047  21092942.380    21092949.603
  22583384.104     7946254.53549   6123507.32846  22583384.298    22583392.114
  24052247.249    -7357124.08249  -5712984.48745  24052246.976    24052256.136
 03  3 20 19 53 30.0000000  0  6G 6G30G 5G10G24G17
  21976312.732   -19078130.27249 -14846759.82447  21976312.915    21976319.537
  20285144.322   -23359399.07249 -18197366.05448  20285144.966    20285150.478
  20862851.521    -7120854.41549  -5549454.52648  20862851.338    20862857.903
  21087547.990   -20701875.39149 -16112595.56947  21087547.555    21087554.752
  22598724.105     8026866.50449   6186321.79646  22598724.299    22598732.108
  24036156.541    -7441681.08149  -5778873.00445  24036156.245    24036165.464
 03  3 20 19 54  0.0000000  0  6G 6G30G 5G10G24G17
  21964991.582   -19137623.15549 -14893117.91447  21964991.783    21964998.397
  20282485.027   -23373373.86749 -18208255.51448  20282485.677    20282491.179
  20873912.510    -7062728.61849  -5504161.73648  20873912.331    20873918.905
  21082269.146   -20729616.00049 -16134211.61347  21082268.699    21082275.894
  22614085.287     8107589.64549   6249222.88746  22614085.464    22614093.275
  24020099.877    -7526059.26949  -5844622.20945  24020099.641    24020108.784
 03  3 20 19 54 30.0000000  0  6G 6G30G 5G10G24G17
  21953689.504   -19197016.07349 -14939398.11447  21953689.697    21953696.321
  20279934.952   -23386774.53849 -18218697.60348  20279935.623    20279941.129
  20885063.034    -7004132.39649  -5458502.38148  20885062.852    20885069.430
  21077106.480   -20756745.76049 -16155351.67547  21077106.033    21077113.231
  22629467.298     8188422.23449   6312209.26446  22629467.456    22629475.268
  24004077.408    -7610257.84649  -5910231.46445  24004077.193    24004086.224
 03  3 20 19 55  0.0000000  0  6G 6G30G 5G10G24G17
  21942406.611   -19256308.02949 -14985599.64947  21942406.808    21942413.451
  20277494.364   -23399600.07149 -18228691.53248  20277495.002    20277500.520
  20896302.836    -6945067.10749  -5412477.51548  20896302.651    20896309.227
  21072060.370   -20783263.29349 -16176014.67647  21072059.907    21072067.120
  22644869.777     8269362.44049   6375279.49646  22644869.902    22644877.711
  23988089.215    -7694275.76049  -5975699.93045  23988089.032    23988098.203
 03  3 20 19 55 30.0000000  0  6G 6G30G 5G10G24G17
  21931143.086   -19315498.09249 -15031721.78247  21931143.295    21931149.958
  20275163.350   -23411849.58049 -18238236.61248  20275163.996    20275169.529
  20907631.607    -6885534.07849  -5366088.17848  20907631.428    20907638.006
  21067131.027   -20809167.23349 -16196199.55647  21067130.569    21067137.754
  22660292.421     8350408.81949   6438432.47246  22660292.556    22660300.422
  23972135.641    -7778112.21249  -6041026.99645  23972135.506    23972144.652
 03  3 20 19 56  0.0000000  0  6G 6G30G 5G10G24G17
  21919899.040   -19374585.99649 -15077764.30547  21919899.240    21919905.907
  20272942.047   -23423522.61349 -18247332.48948  20272942.694    20272948.236
  20919049.003    -6825535.45949  -5319336.04748  20919048.824    20919055.411
  21062318.548   -20834456.84649 -16215905.73547  21062318.111    21062325.285
  22675734.866     8431559.18649   6501666.47346  22675735.025    22675742.879
  23956216.769    -7861766.41549  -6106212.05145  23956216.646    23956225.763
 03  3 20 19 56 30.0000000  0  6G 6G30G 5G10G24G17
  21908674.624   -19433570.80149 -15123726.48547  21908674.830    21908681.468
  20270830.654   -23434618.26349 -18255978.45848  20270831.305    20270836.843
  20930554.718    -6765072.58049  -5272222.15448  20930554.539    20930561.137
  21057623.260   -20859130.67649 -16235132.08847  21057622.831    21057629.997
  22691196.705     8512811.58649   6564979.98046  22691196.901    22691204.738
  23940332.649    -7945237.94649  -6171254.77245  23940332.593    23940341.628
 03  3 20 19 57  0.0000000  0  6G 6G30G 5G10G24G17
  21897469.997   -19492451.50449 -15169607.54547  21897470.197    21897476.861
  20268829.301   -23445135.43549 -18264173.66748  20268829.941    20268835.482
  20942148.540    -6704146.66949  -5224747.46148  20942148.372    20942154.996
  21053045.373   -20883187.61049 -16253877.74747  21053044.920    21053052.116
  22706677.708     8594164.65349   6628371.92146  22706677.894    22706685.736
  23924483.529    -8028525.56849  -6236154.18645  23924483.405    23924492.469
 03  3 20 19 57 30.0000000  0  6G 6G30G 5G10G24G17
  21886285.263   -19551227.67649 -15215407.15447  21886285.460    21886292.119
  20266938.117   -23455073.71649 -18271917.78848  20266938.770    20266944.294
  20953830.110    -6642759.72649  -5176913.51048  20953829.945    20953836.580
  21048585.054   -20906626.69449 -16272141.95747  21048584.608    21048591.789
  22722177.499     8675616.07249   6691840.51046  22722177.653    22722185.499
  23908669.528    -8111628.93649  -6300910.03345  23908669.402    23908678.404
 03  3 20 19 58  0.0000000  0  6G 6G30G 5G10G24G17
  21875120.608   -19609898.47949 -15261124.66447  21875120.789    21875127.430
  20265157.243   -23464432.27849 -18279210.18248  20265157.903    20265163.422
  20965599.134    -6580913.37149  -5128721.59148  20965598.968    20965605.617
  21044242.524   -20929446.94349 -16289923.96547  21044242.064    21044249.251
  22737695.690     8757164.47549   6755384.65546  22737695.821    22737703.714
  23892890.739    -8194547.18549  -6365521.61545  23892890.536    23892899.481
 03  3 20 19 58 30.0000000  0  6G 6G30G 5G10G24G17
  21863976.220   -19668462.50549 -15306758.95647  21863976.414    21863983.064
  20263486.922   -23473210.11949 -18286050.07148  20263487.569    20263493.088
  20977455.376    -6518608.65149  -5080172.50748  20977455.200    20977461.853
  21040017.971   -20951646.97149 -16307222.68147  21040017.529    21040024.686
  22753232.065     8838808.52549   6819003.34046  22753232.185    22753240.091
  23877147.223    -8277279.19449  -6429988.08845  23877147.095    23877156.041
 03  3 20 19 59  0.0000000  0  6G 6G30G 5G10G24G17
  21852852.297   -19726919.07449 -15352309.52247  21852852.495    21852859.121
  20261927.239   -23481406.38249 -18292436.78148  20261927.889    20261933.418
  20989398.455    -6455847.44549  -5031267.71948  20989398.272    20989404.948
  21035911.696   -20973225.66749 -16324037.23947  21035911.242    21035918.401
  22768786.262     8920546.23649   6882695.01546  22768786.407    22768794.299
  23861439.367    -8359824.65349  -6494309.19545  23861439.189    23861448.171
 03  3 20 19 59 30.0000000  0  6G 6G30G 5G10G24G17
  21841748.982   -19785267.47649 -15397775.79047  21841749.162    21841755.795
  20260478.307   -23489020.63149 -18298369.97248  20260478.962    20260484.482
  21001428.066    -6392631.64049  -4982008.69548  21001427.874    21001434.559
  21031923.796   -20994182.17249 -16340366.97947  21031923.352    21031930.489
  22784357.854     9002375.40849   6946457.95446  22784358.037    22784365.952
  23845767.193    -8442182.53949  -6558484.13445  23845766.989    23845775.900
 03  3 20 20  0  0.0000000  0  6G 6G30G 5G10G24G17
  21830666.422   -19843506.61149 -15443156.92447  21830666.634    21830673.240
  20259140.279   -23496052.00249 -18303848.97748  20259140.929    20259146.455
  21013543.921    -6328962.56249  -4932396.46748  21013543.736    21013550.423
  21028054.471   -21014515.60049 -16356211.20447  21028054.041    21028061.179
  22799946.596     9084294.79049   7010291.17746  22799946.816    22799954.756
  23830130.861    -8524351.97949  -6622512.24545  23830130.693    23830139.532
 03  3 20 20  0 30.0000000  0  6G 6G30G 5G10G24G17
  21819604.734   -19901636.18349 -15488452.68147  21819604.932    21819611.526
  20257913.224   -23502500.27749 -18308873.61848  20257913.858    20257919.406
  21025745.588    -6264842.45249  -4882432.77348  21025745.409    21025752.122
  21024303.812   -21034225.39949 -16371569.47847  21024303.377    21024310.497
  22815552.112     9166301.94849   7074192.79646  22815552.282    22815560.245
  23814530.409    -8606332.88449  -6686393.43646  23814530.264    23814539.127
 03  3 20 20  1  0.0000000  0  6G 6G30G 5G10G24G17
  21808564.215   -19959654.40749 -15533661.67547  21808564.435    21808571.038
  20256797.379   -23508364.19349 -18313442.92248  20256798.021    20256803.558
  21038032.928    -6200272.21549  -4832118.35248  21038032.753    21038039.476
  21020672.194   -21053309.70849 -16386440.36547  21020671.742    21020678.890
  22831174.240     9248396.45249   7138162.48446  22831174.377    22831182.374
  23798966.164    -8688123.31549  -6750126.20445  23798965.979    23798974.878
 03  3 20 20  1 30.0000000  0  6G 6G30G 5G10G24G17
  21797544.931   -20017561.10149 -15578783.76647  21797545.124    21797551.715
  20255792.712   -23513643.69949 -18317556.83348  20255793.366    20255798.921
  21050405.465    -6135254.22349  -4781455.03948  21050405.288    21050412.023
  21017159.672   -21071768.27849 -16400823.65647  21017159.223    21017166.329
  22846812.432     9330575.53049   7202198.07246  22846812.571    22846820.603
  23783438.135    -8769723.37949  -6813710.64346  23783438.028    23783446.829
 03  3 20 20  2  0.0000000  0  6G 6G30G 5G10G24G17
  21786546.995   -20075355.57949 -15623818.42247  21786547.217    21786553.782
  20254899.329   -23518338.40349 -18321215.06048  20254899.984    20254905.523
  21062862.867    -6069790.38249  -4730444.31248  21062862.683    21062869.433
  21013766.273   -21089600.50449 -16414718.89147  21013765.833    21013772.938
  22862466.449     9412837.68849   7266298.40046  22862466.594    22862474.659
  23767946.520    -8851132.88649  -6877146.59246  23767946.324    23767955.096
 03  3 20 20  2 30.0000000  0  6G 6G30G 5G10G24G17
  21775570.677   -20133036.41649 -15668764.51147  21775570.916    21775577.483
  20254117.483   -23522447.29749 -18324416.81048  20254118.136    20254123.680
  21075404.886    -6003881.91649  -4679087.12148  21075404.711    21075411.451
  21010492.348   -21106805.18649 -16428125.13247  21010491.899    21010499.003
  22878135.921     9495181.44649   7330462.30946  22878136.076    22878144.201
  23752491.194    -8932350.29249  -6940432.84446  23752491.103    23752499.928
 03  3 20 20  3  0.0000000  0  6G 6G30G 5G10G24G17
  21764616.126   -20190602.90049 -15713621.49047  21764616.380    21764622.946
  20253447.181   -23525969.78949 -18327161.62248  20253447.840    20253453.384
  21088031.177    -5937530.57149  -4627384.81548  21088030.990    21088037.729
  21007337.991   -21123381.45949 -16441041.70547  21007337.533    21007344.646
  22893820.671     9577605.07049   7394688.44846  22893820.857    22893828.974
  23737072.779    -9013374.93449  -7003568.89946  23737072.637    23737081.468
 03  3 20 20  3 30.0000000  0  6G 6G30G 5G10G24G17
  21753683.522   -20248054.20249 -15758388.72547  21753683.748    21753690.322
  20252888.533   -23528905.59149 -18329449.27348  20252889.196    20252894.734
  21100741.324    -5870738.52049  -4575339.10048  21100741.151    21100747.893
  21004303.357   -21139328.65749 -16453468.08647  21004302.894    21004310.017
  22909520.319     9660106.79449   7458975.46146  22909520.449    22909528.582
  23721691.007    -9094207.04549  -7066554.92746  23721690.786    23721699.598
 03  3 20 20  4  0.0000000  0  6G 6G30G 5G10G24G17
  21742772.970   -20305389.29949 -15803065.41147  21742773.211    21742779.770
  20252441.646   -23531254.04949 -18331279.25448  20252442.306    20252447.845
  21113535.021    -5803507.42449  -4522951.27948  21113534.844    21113541.607
  21001388.551   -21154646.08149 -16465403.73547  21001388.082    21001395.200
  22925234.511     9742685.19149   7523322.21246  22925234.641    22925242.775
  23706346.033    -9174845.07349  -7129389.71446  23706345.828    23706354.662
 03  3 20 20  4 30.0000000  0  6G 6G30G 5G10G24G17
  21731884.783   -20362607.09449 -15847650.68647  21731885.019    21731891.572
  20252106.647   -23533014.58249 -18332651.11348  20252107.298    20252112.836
  21126411.989    -5735838.74349  -4470222.50147  21126411.799    21126418.562
  20998593.781   -21169332.62649 -16476847.79347  20998593.316    20998600.433
  22940962.920     9825338.75649   7587727.53046  22940963.082    22940971.276
  23691038.168    -9255288.24649  -7192072.68846  23691037.976    23691046.786
 03  3 20 20  5  0.0000000  0  6G 6G30G 5G10G24G17
  21721019.131   -20419706.54549 -15892143.75747  21721019.361    21721025.891
  20251883.545   -23534186.88049 -18333564.60748  20251884.212    20251889.765
  21139371.895    -5667734.24649  -4417154.11247  21139371.707    21139378.477
  20995919.150   -21183387.76349 -16487799.84447  20995918.698    20995925.814
  22956705.423     9908066.15249   7652190.38146  22956705.633    22956713.830
  23675767.383    -9335535.87249  -7254603.26846  23675767.307    23675776.183
 03  3 20 20  5 30.0000000  0  6G 6G30G 5G10G24G17
  21710176.091   -20476687.12949 -15936544.19847  21710176.318    21710182.860
  20251772.442   -23534770.78949 -18334019.61548  20251773.109    20251778.665
  21152414.304    -5599196.21949  -4363747.90447  21152414.118    21152420.882
  20993364.769   -21196811.22749 -16498259.68347  20993364.306    20993371.405
  22972461.577     9990864.92949   7716708.85946  22972461.815    22972469.988
  23660534.013    -9415587.67549  -7316981.27246  23660533.974    23660542.824
 03  3 20 20  6  0.0000000  0  6G 6G30G 5G10G24G17
  21699355.810   -20533548.09549 -15980851.42547  21699356.038    21699362.559
  20251773.371   -23534765.94549 -18334015.85448  20251774.029    20251779.606
  21165538.806    -5530226.57249  -4310005.37847  21165538.623    21165545.393
  20990930.652   -21209602.48049 -16508226.89447  20990930.201    20990937.290
  22988230.961    10073733.37349   7781281.60746  22988231.179    22988239.357
  23645338.047    -9495443.19149  -7379206.31346  23645337.944    23645346.757
 03  3 20 20  6 30.0000000  0  6G 6G30G 5G10G24G17
  21688558.424   -20590288.57149 -16025064.77147  21688558.663    21688565.176
  20251886.388   -23534172.18449 -18333553.20048  20251887.050    20251892.624
  21178745.062    -5460827.41649  -4255928.16947  21178744.880    21178751.679
  20988616.951   -21221761.10949 -16517701.15547  20988616.513    20988623.604
  23004013.321    10156669.96349   7845907.45646  23004013.523    23004021.717
  23630179.532    -9575101.95349  -7441278.05746  23630179.367    23630188.218
 03  3 20 20  7  0.0000000  0  6G 6G30G 5G10G24G17
  21677784.241   -20646907.40049 -16069183.32347  21677784.452    21677790.966
  20252111.567   -23532988.96149 -18332631.22348  20252112.224    20252117.793
  21192032.753    -5391000.42749  -4201517.57947  21192032.571    21192039.370
  20986423.791   -21233286.16349 -16526681.71447  20986423.351    20986430.436
  23019808.375    10239673.22749   7910585.27246  23019808.569    23019816.776
  23615058.579    -9654562.85449  -7503195.59246  23615058.455    23615067.305
 03  3 20 20  7 30.0000000  0  6G 6G30G 5G10G24G17
  21667033.402   -20703403.32349 -16113206.11247  21667033.615    21667040.129
  20252449.028   -23531215.77149 -18331249.53548  20252449.671    20252455.252
  21205401.543    -5320747.05749  -4146774.75047  21205401.366    21205408.174
  20984351.309   -21244177.09249 -16535168.15647  20984350.876    20984357.967
  23035615.882    10322741.88649   7975314.03146  23035616.095    23035624.282
  23599975.496    -9733824.95649  -7564958.23746  23599975.327    23599984.148
 03  3 20 20  8  0.0000000  0  6G 6G30G 5G10G24G17
  21656306.087   -20759775.63249 -16157132.57747  21656306.311    21656312.796
  20252898.768   -23528852.36749 -18329407.93648  20252899.419    20252905.007
  21218851.078    -5250069.43349  -4091701.32847  21218850.895    21218857.739
  20982399.573   -21254433.53049 -16543160.18647  20982399.117    20982406.199
  23051435.444    10405874.14149   8040092.35146  23051435.693    23051443.904
  23584930.167    -9812888.46849  -7626566.14446  23584930.063    23584938.862
 03  3 20 20  8 30.0000000  0  6G 6G30G 5G10G24G17
  21645602.627   -20816022.79949 -16200961.53347  21645602.821    21645609.308
  20253460.999   -23525897.96049 -18327105.81848  20253461.630    20253467.230
  21232381.033    -5178969.14749  -4036298.56847  21232380.858    21232387.723
  20980568.783   -21264054.34349 -16550656.92947  20980568.335    20980575.428
  23067266.975    10489069.04249   8104919.49646  23067267.253    23067275.393
  23569922.898    -9891751.67549  -7688017.95646  23569922.852    23569931.658
 03  3 20 20  9  0.0000000  0  6G 6G30G 5G10G24G17
  21634922.999   -20872144.52749 -16244692.73847  21634923.204    21634929.687
  20254135.571   -23522353.18949 -18324343.67348  20254136.213    20254141.814
  21245990.943    -5107448.90449  -3980568.57247  21245990.777    21245997.645
  20978858.961   -21273039.59649 -16557658.43347  20978858.508    20978865.595
  23083109.975    10572324.38749   8169793.73646  23083110.216    23083118.397
  23554953.894    -9970414.72849  -7749313.82046  23554953.765    23554962.584
 03  3 20 20  9 30.0000000  0  6G 6G30G 5G10G24G17
  21624267.342   -20928140.24349 -16288325.75047  21624267.551    21624274.025
  20254922.443   -23518218.13749 -18321121.56748  20254923.079    20254928.669
  21259680.338    -5035510.82449  -3924512.98347  21259680.160    21259687.043
  20977270.033   -21281389.45749 -16564164.82447  20977269.569    20977276.679
  23098964.122    10655638.03249   8234713.40946  23098964.310    23098972.463
  23540022.976   -10048877.38649  -7810453.52646  23540022.761    23540031.533
 03  3 20 20 10  0.0000000  0  6G 6G30G 5G10G24G17
  21613636.071   -20984008.02549 -16331859.06747  21613636.281    21613642.765
  20255821.872   -23513491.79249 -18317438.71548  20255822.516    20255828.102
  21273449.019    -4963156.01349  -3868132.67247  21273448.848    21273455.763
  20975802.237   -21289102.84949 -16570175.26447  20975801.775    20975808.860
  23114829.184    10739009.11249   8299677.82646  23114829.306    23114837.512
  23525130.318   -10127138.46049  -7871436.15346  23525130.131    23525138.897
 03  3 20 20 10 30.0000000  0  6G 6G30G 5G10G24G17
  21603029.253   -21039747.12349 -16375292.11247  21603029.474    21603035.964
  20256833.780   -23508174.15049 -18313295.11348  20256834.415    20256840.016
  21287296.611    -4890386.68349  -3811429.35847  21287296.441    21287303.377
  20974455.570   -21296179.57449 -16575689.60347  20974455.107    20974462.192
  23130704.838    10822436.05249   8364685.77946  23130705.016    23130713.210
  23510276.102   -10205197.69349  -7932261.49646  23510275.925    23510284.668
 03  3 20 20 11  0.0000000  0  6G 6G30G 5G10G24G17
  21592447.180   -21095356.30749 -16418623.92447  21592447.370    21592453.865
  20257958.243   -23502264.96249 -18308690.56948  20257958.887    20257964.501
  21301222.742    -4817204.52749  -3754404.36547  21301222.570    21301229.536
  20973230.185   -21302619.07849 -16580707.40447  20973229.725    20973236.814
  23146590.831    10905917.56449   8429736.25346  23146591.048    23146599.260
  23495460.557   -10283053.89649  -7992928.63146  23495460.382    23495469.182
 03  3 20 20 11 30.0000000  0  6G 6G30G 5G10G24G17
  21581889.847   -21150835.39349 -16461854.36247  21581890.048    21581896.519
  20259195.153   -23495765.02049 -18303625.69248  20259195.801    20259201.407
  21315226.860    -4743612.54949  -3697060.03047  21315226.685    21315233.678
  20972125.924   -21308421.98149 -16585229.15347  20972125.460    20972132.557
  23162486.787    10989451.06049   8494827.25146  23162487.004    23162495.211
  23480683.692   -10360707.18149  -8053437.65746  23480683.441    23480692.156
 03  3 20 20 12  0.0000000  0  6G 6G30G 5G10G24G17
  21571357.553   -21206182.86449 -16504982.24747  21571357.750    21571364.230
  20260544.665   -23488673.51549 -18298099.86548  20260545.306    20260550.921
  21329308.720    -4669612.08749  -3639397.39947  21329308.557    21329315.556
  20971143.019   -21313587.30749 -16589254.09547  20971142.550    20971149.664
  23178392.569    11073036.09949   8559958.38246  23178392.703    23178400.921
  23465945.356   -10438157.10149  -8113788.20946  23465945.184    23465953.910
 03  3 20 20 12 30.0000000  0  6G 6G30G 5G10G24G17
  21560850.650   -21261396.91849 -16548006.16347  21560850.854    21560857.322
  20262006.847   -23480989.66049 -18292112.46148  20262007.494    20262013.112
  21343468.021    -4595204.68549  -3581417.66547  21343467.845    21343474.855
  20970281.587   -21318114.09549 -16592781.47047  20970281.136    20970288.233
  23194307.882    11156671.60549   8625128.85746  23194308.055    23194316.303
  23451245.892   -10515402.09849  -8173979.06846  23451245.901    23451254.672
 03  3 20 20 13  0.0000000  0  6G 6G30G 5G10G24G17
  21550369.236   -21316477.13749 -16590925.80147  21550369.430    21550375.914
  20263581.620   -23472714.20449 -18285664.07148  20263582.264    20263587.872
  21357704.298    -4520392.81249  -3523122.76347  21357704.129    21357711.160
  20969541.533   -21322003.02249 -16595811.81447  20969541.089    20969548.191
  23210232.397    11240355.40949   8690336.95346  23210232.580    23210240.841
  23436585.685   -10592442.06749  -8234010.19046  23436585.659    23436594.372
 03  3 20 20 13 30.0000000  0  6G 6G30G 5G10G24G17
  21539913.370   -21371422.94149 -16633740.70347  21539913.588    21539920.060
  20265268.855   -23463847.79449 -18278755.19748  20265269.506    20265275.115
  21372017.025    -4445179.17849  -3464514.79747  21372016.851    21372023.897
  20968922.873   -21325254.16249 -16598345.18047  20968922.437    20968929.556
  23226165.670    11324085.06649   8755580.80046  23226165.800    23226174.121
  23421964.552   -10669277.15849  -8293881.64646  23421964.401    23421973.070
 03  3 20 20 14  0.0000000  0  6G 6G30G 5G10G24G17
  21529483.429   -21426232.79349 -16676449.66747  21529483.619    21529490.104
  20267068.685   -23454389.80749 -18271385.35448  20267069.340    20267074.938
  21386405.898    -4369565.44249  -3405595.06647  21386405.719    21386412.784
  20968425.667   -21327867.07049 -16600381.22747  20968425.211    20968432.368
  23242107.622    11407859.95849   8820859.89046  23242107.694    23242116.008
  23407382.437   -10745906.56749  -8353592.84346  23407382.296    23407390.970
 03  3 20 20 14 30.0000000  0  6G 6G30G 5G10G24G17
  21519079.540   -21480905.39149 -16719051.68147  21519079.751    21519086.243
  20268981.154   -23444339.80849 -18263554.20348  20268981.796    20268987.436
  21400870.669    -4293552.93049  -3346364.59747  21400870.496    21400877.556
  20968050.022   -21329841.12049 -16601919.46147  20968049.561    20968056.730
  23258057.916    11491679.12949   8886173.46346  23258058.021    23258066.357
  23392839.601   -10822329.34949  -8413143.02746  23392839.474    23392848.185
 03  3 20 20 15  0.0000000  0  6G 6G30G 5G10G24G17
  21508701.940   -21535439.99949 -16761546.17147  21508702.146    21508708.646
  20271006.169   -23433698.20249 -18255262.06148  20271006.824    20271012.450
  21415410.799    -4217144.25849  -3286825.43047  21415410.640    21415417.703
  20967795.908   -21331176.43449 -16602959.97647  20967795.447    20967802.611
  23274016.345    11575540.80249   8951520.16846  23274016.423    23274024.785
  23378336.203   -10898545.13449  -8472531.92046  23378336.095    23378344.758
 03  3 20 20 15 30.0000000  0  6G 6G30G 5G10G24G17
  21498350.746   -21589835.73549 -16803932.45047  21498350.951    21498357.473
  20273143.715   -23422465.46349 -18246509.29148  20273144.354    20273149.979
  21430025.855    -4140341.85449  -3226979.45847  21430025.682    21430032.772
  20967663.270   -21331873.66649 -16603503.28647  20967662.789    20967669.949
  23289982.496    11659443.12549   9016898.54746  23289982.561    23289990.925
  23363872.302   -10974553.65449  -8531759.30046  23363872.148    23363880.845
 03  3 20 20 16  0.0000000  0  6G 6G30G 5G10G24G17
  21488026.326   -21644090.86249 -16846209.16347  21488026.529    21488033.038
  20275393.848   -23410640.96449 -18237295.41648  20275394.496    20275400.121
  21444715.600    -4063147.14949  -3166827.80147  21444715.412    21444722.507
  20967652.173   -21331932.06749 -16603548.80747  20967651.707    20967658.862
  23305956.143    11743385.22749   9082307.91946  23305956.262    23305964.640
  23349447.904   -11050354.06549  -8590824.52546  23349447.753    23349456.410
 03  3 20 20 16 30.0000000  0  6G 6G30G 5G10G24G17
  21477728.781   -21698204.87449 -16888375.91947  21477728.958    21477735.476
  20277756.453   -23398225.43049 -18227620.99148  20277757.111    20277762.749
  21459479.454    -3985562.78749  -3106372.51047  21459479.282    21459486.365
  20967762.563   -21331351.86849 -16603096.71547  20967762.100    20967769.263
  23321937.077    11827365.40749   9147746.96346  23321937.209    23321945.579
  23335063.269   -11125945.66649  -8649727.02546  23335063.122    23335071.764
 03  3 20 20 17  0.0000000  0  6G 6G30G 5G10G24G17
  21467458.272   -21752176.67449 -16930431.85947  21467458.458    21467464.977
  20280231.555   -23385218.87149 -18217486.02948  20280232.197    20280237.879
  21474317.112    -3907590.68749  -3045615.08847  21474316.950    21474324.048
  20967994.492   -21330133.13749 -16602147.06847  20967994.040    20968001.191
  23337924.986    11911382.29949   9213214.62946  23337925.110    23337933.527
  23320718.234   -11201328.81949  -8708467.10346  23320718.093    23320726.832
 03  3 20 20 17 30.0000000  0  6G 6G30G 5G10G24G17
  21457215.064   -21806005.02349 -16972376.01947  21457215.269    21457221.770
  20282819.000   -23371621.62849 -18206890.79348  20282819.656    20282825.345
  21489228.074    -3829233.28349  -2984557.43047  21489227.897    21489235.011
  20968347.934   -21328275.77449 -16600699.78447  20968347.495    20968354.646
  23353919.565    11995434.27149   9278709.61846  23353919.708    23353928.170
  23306413.247   -11276502.60249  -8767044.03046  23306413.026    23306421.737
 03  3 20 20 18  0.0000000  0  6G 6G30G 5G10G24G17
  21446999.407   -21859688.62749 -17014207.39047  21446999.611    21447006.115
  20285518.936   -23357433.63949 -18195835.23448  20285519.587    20285525.267
  21504212.003    -3750492.53749  -2923201.06347  21504211.804    21504218.925
  20968822.928   -21325779.75549 -16598754.84547  20968822.496    20968829.623
  23369920.619    12079520.03849   9344230.94646  23369920.721    23369929.221
  23292148.114   -11351466.35249  -8825457.31546  23292147.852    23292156.549
 03  3 20 20 18 30.0000000  0  6G 6G30G 5G10G24G17
  21436811.284   -21913227.52849 -17055926.01047  21436811.504    21436818.006
  20288330.977   -23342656.27149 -18184320.42248  20288331.620    20288337.303
  21519268.273    -3671371.52649  -2861548.38847  21519268.081    21519275.220
  20969419.178   -21322646.49649 -16596313.36047  20969418.734    20969425.873
  23385927.642    12163637.51649   9409776.96446  23385927.740    23385936.292
  23277922.718   -11426220.78649  -8883707.48546  23277922.500    23277931.239
 03  3 20 20 19  0.0000000  0  6G 6G30G 5G10G24G17
  21426651.202   -21966619.02849 -17097529.77247  21426651.418    21426657.900
  20291255.458   -23327288.13549 -18172345.26948  20291256.096    20291261.791
  21534396.784    -3591871.06149  -2799600.03747  21534396.597    21534403.723
  20970137.005   -21318874.40949 -16593374.08547  20970136.566    20970143.680
  23401940.712    12247786.62349   9475347.65546  23401940.813    23401949.415
  23263737.587   -11500763.84249  -8941792.93746  23263737.450    23263746.099
 03  3 20 20 19 30.0000000  0  6G 6G30G 5G10G24G17
  21416519.362   -22019862.35649 -17139018.07647  21416519.572    21416526.067
  20294292.206   -23311330.03049 -18159910.39848  20294292.843    20294298.540
  21549596.984    -3511993.65949  -2737357.96847  21549596.794    21549603.935
  20970976.270   -21314464.13249 -16589937.52247  20970975.825    20970982.944
  23417959.433    12331965.41249   9540941.45846  23417959.554    23417968.148
  23249592.723   -11575095.60149  -8999713.75046  23249592.562    23249601.185
 03  3 20 20 20  0.0000000  0  6G 6G30G 5G10G24G17
  21406415.813   -22072956.79149 -17180390.35847  21406416.017    21406422.495
  20297441.102   -23294782.64649 -18147016.35348  20297441.733    20297447.439
  21564868.432    -3431741.84449  -2674824.15047  21564868.242    21564875.401
  20971936.856   -21309416.25449 -16586004.12647  20971936.420    20971943.533
  23433983.504    12416172.12049   9606557.02046  23433983.640    23433992.207
  23235488.102   -11649216.08049  -9057469.94546  23235487.906    23235496.516
 03  3 20 20 20 30.0000000  0  6G 6G30G 5G10G24G17
  21396340.862   -22125900.97449 -17221645.54747  21396341.071    21396347.556
  20300702.057   -23277646.17449 -18133663.27448  20300702.696    20300708.390
  21580210.728    -3351117.60849  -2612000.13347  21580210.551    21580217.731
  20973018.716   -21303731.14549 -16581574.18447  20973018.251    20973025.354
  23450012.687    12500406.08649   9672193.82846  23450012.873    23450021.428
  23221423.693   -11723124.36049  -9115060.77246  23221423.563    23221432.184
 03  3 20 20 21  0.0000000  0  6G 6G30G 5G10G24G17
  21386294.875   -22178692.93149 -17262782.12947  21386295.096    21386301.569
  20304075.220   -23259920.12849 -18119850.79248  20304075.871    20304081.556
  21595623.659    -3270122.45949  -2548887.09547  21595623.471    21595630.670
  20974222.058   -21297407.61249 -16576646.77147  20974221.599    20974228.697
  23466046.949    12584666.36349   9737851.12846  23466047.103    23466055.693
  23207400.010   -11796819.34949  -9172485.40546  23207399.881    23207408.458
 03  3 20 20 21 30.0000000  0  6G 6G30G 5G10G24G17
  21376277.881   -22231332.65949 -17303800.09147  21376278.111    21376284.577
  20307560.293   -23241605.92849 -18105580.00648  20307560.958    20307566.655
  21611106.507    -3188759.73649  -2485487.64047  21611106.312    21611113.568
  20975546.585   -21290447.32549 -16571223.18247  20975546.122    20975553.220
  23482085.774    12668950.66549   9803527.15346  23482085.910    23482094.478
  23193416.852   -11870301.45049  -9229744.14846  23193416.672    23193425.176
 03  3 20 20 22  0.0000000  0  6G 6G30G 5G10G24G17
  21366290.174   -22283818.47349 -17344698.11847  21366290.375    21366296.845
  20311157.357   -23222703.44349 -18090850.81448  20311158.008    20311163.710
  21626658.968    -3107031.24249  -2421803.16747  21626658.786    21626666.046
  20976992.256   -21282850.28949 -16565303.42547  20976991.791    20976998.902
  23498128.974    12753258.29349   9869221.36846  23498129.133    23498137.715
  23179474.310   -11943569.79749  -9286836.32946  23179474.144    23179482.629
 03  3 20 20 22 30.0000000  0  6G 6G30G 5G10G24G17
  21356331.915   -22336149.34849 -17385475.40347  21356332.129    21356338.577
  20314866.151   -23203213.59449 -18075663.93848  20314866.790    20314872.496
  21642280.579    -3024939.44249  -2357835.59947  21642280.381    21642287.648
  20978559.017   -21274616.94949 -16558887.85047  20978558.576    20978565.663
  23514176.391    12837587.59649   9934932.47046  23514176.524    23514185.137
  23165572.304   -12016624.58349  -9343762.09946  23165572.228    23165580.849
 03  3 20 20 23  0.0000000  0  6G 6G30G 5G10G24G17
  21346403.407   -22388323.94549 -17426130.91747  21346403.612    21346410.061
  20318686.710   -23183136.47249 -18060019.44648  20318687.375    20318693.064
  21657970.934    -2942486.40049  -2293586.55047  21657970.759    21657978.044
  20980246.838   -21265747.48449 -16551976.59347  20980246.398    20980253.485
  23530227.604    12921937.23749  10000659.41746  23530227.742    23530236.368
  23151711.176   -12089465.26649  -9400521.02746  23151711.104    23151719.698
 03  3 20 20 23 30.0000000  0  6G 6G30G 5G10G24G17
  21336504.714   -22440341.91049 -17466664.38047  21336504.905    21336511.353
  20322618.826   -23162473.22049 -18043918.23548  20322619.483    20322625.174
  21673729.486    -2859674.85549  -2229058.14647  21673729.280    21673736.605
  20982055.519   -21256242.98249 -16544570.50247  20982055.085    20982062.156
  23546282.367    13006305.28849  10066400.71046  23546282.508    23546291.162
  23137891.000   -12162091.79249  -9457113.10246  23137890.732    23137899.302
 03  3 20 20 24  0.0000000  0  6G 6G30G 5G10G24G17
  21326636.145   -22492201.56049 -17507074.48247  21326636.337    21326642.784
  20326662.480   -23141223.89749 -18027360.34048  20326663.134    20326668.804
  21689555.900    -2776506.83949  -2164251.97447  21689555.713    21689563.041
  20983985.037   -21246103.36149 -16536669.50847  20983984.590    20983991.660
  23562340.528    13090691.30449  10132155.99446  23562340.660    23562349.316
  23124111.390   -12234503.22349  -9513537.54946  23124111.202    23124119.767
 03  3 20 20 24 30.0000000  0  6G 6G30G 5G10G24G17
  21316797.991   -22543901.32549 -17547359.99847  21316798.188    21316804.650
  20330817.554   -23119388.82149 -18010346.01848  20330818.207    20330823.885
  21705449.764    -2692984.29249  -2099169.54247  21705449.580    21705456.920
  20986035.366   -21235328.80449 -16528273.76047  20986034.910    20986041.998
  23578401.899    13175094.07749  10197924.32946  23578402.031    23578410.636
  23110372.840   -12306699.44049  -9569794.30046  23110372.732    23110381.222
 03  3 20 20 25  0.0000000  0  6G 6G30G 5G10G24G17
  21306990.426   -22595440.41849 -17587520.32347  21306990.617    21306997.092
  20335083.960   -23096968.88749 -17992875.96048  20335084.604    20335090.277
  21721410.550    -2609110.00649  -2033813.02947  21721410.370    21721417.720
  20988206.372   -21223920.24549 -16519383.98047  20988205.927    20988212.995
  23594466.157    13259512.02949  10263704.49946  23594466.310    23594474.898
  23096675.309   -12378680.05149  -9625883.05346  23096675.185    23096683.657
 03  3 20 20 25 30.0000000  0  6G 6G30G 5G10G24G17
  21297213.697   -22646817.44549 -17627554.35647  21297213.896    21297220.370
  20339461.568   -23073964.48149 -17974950.47448  20339462.223    20339467.892
  21737437.878    -2524886.12849  -1968184.10747  21737437.685    21737445.049
  20990497.945   -21211877.90949 -16510000.34847  20990497.521    20990504.573
  23610532.988    13343943.94449  10329495.57145  23610533.207    23610541.759
  23083019.050   -12450444.61149  -9681803.44546  23083018.859    23083027.292
 03  3 20 20 26  0.0000000  0  6G 6G30G 5G10G24G17
  21287467.991   -22698031.39249 -17667461.31547  21287468.192    21287474.663
  20343950.210   -23050376.52849 -17956570.27348  20343950.856    20343956.522
  21753531.277    -2440315.03549  -1902284.62447  21753531.094    21753538.446
  20992910.028   -21199202.50649 -16500123.41647  20992909.581    20992916.641
  23626602.287    13428388.50949  10395296.47345  23626602.484    23626611.071
  23069403.923   -12521992.60549  -9737555.08446  23069403.694    23069412.172
 03  3 20 20 26 30.0000000  0  6G 6G30G 5G10G24G17
  21277753.535   -22749081.10249 -17707240.29747  21277753.738    21277760.230
  20348549.809   -23026205.55349 -17937735.77048  20348550.462    20348556.113
  21769690.332    -2355399.03449  -1836116.37847  21769690.137    21769697.464
  20995442.418   -21185894.78649 -16489753.76847  20995441.968    20995449.014
  23642673.782    13512844.31849  10461106.14845  23642673.957    23642682.527
  23055829.864   -12593324.61349  -9793138.43046  23055829.681    23055838.077
 03  3 20 20 27  0.0000000  0  6G 6G30G 5G10G24G17
  21268070.695   -22799964.75849 -17746889.88647  21268070.901    21268077.409
  20353260.319   -23001451.78649 -17918447.14548  20353260.971    20353266.639
  21785914.687    -2270139.93949  -1769680.79847  21785914.485    21785921.819
  20998095.084   -21171955.05849 -16478891.65047  20998094.612    20998101.681
  23658747.208    13597310.75949  10526924.11845  23658747.380    23658755.954
  23042297.046   -12664439.29149  -9848552.42246  23042296.930    23042305.385
 03  3 20 20 27 30.0000000  0  6G 6G30G 5G10G24G17
  21258419.611   -22850681.55349 -17786409.45547  21258419.812    21258426.300
  20358081.529   -22976116.25449 -17898705.19748  20358082.183    20358087.840
  21802203.756    -2184540.58649  -1702980.07747  21802203.568    21802210.877
  21000867.894   -21157383.90149 -16467537.50647  21000867.432    21000874.501
  23674822.361    13681786.01149  10592748.94645  23674822.511    23674831.086
  23028805.844   -12735336.37549  -9903796.87046  23028805.680    23028814.084
 03  3 20 20 28  0.0000000  0  6G 6G30G 5G10G24G17
  21248800.477   -22901230.39749 -17825798.14847  21248800.681    21248807.173
  20363013.284   -22950199.82249 -17878510.59948  20363013.939    20363019.601
  21818557.117    -2098603.63649  -1636016.29447  21818556.927    21818564.213
  21003760.651   -21142182.33849 -16455692.13647  21003760.189    21003767.278
  23690898.962    13766268.78049  10658579.62645  23690899.152    23690907.693
  23015355.903   -12806015.82949  -9958871.73346  23015355.751    23015364.116
 03  3 20 20 28 30.0000000  0  6G 6G30G 5G10G24G17
  21239213.549   -22951609.87749 -17865054.86847  21239213.748    21239220.241
  20368055.460   -22923703.13549 -17857863.85448  20368056.098    20368061.789
  21834974.275    -2012331.15649  -1568791.06147  21834974.092    21834981.395
  21006773.266   -21126350.88049 -16443355.93947  21006772.814    21006779.908
  23706976.813    13850758.14849  10724415.46645  23706977.021    23706985.523
  23001947.497   -12876477.39349 -10013776.80746  23001947.373    23001955.744
 03  3 20 20 29  0.0000000  0  6G 6G30G 5G10G24G17
  21229659.127   -23001818.67849 -17904178.59747  21229659.333    21229665.833
  20373207.898   -22896626.96349 -17836765.56548  20373208.541    20373214.228
  21851454.851    -1925725.47649  -1501306.18747  21851454.653    21851461.992
  21009905.594   -21109890.32349 -16430529.53247  21009905.145    21009912.251
  23723055.664    13935252.83749  10790255.41645  23723055.810    23723064.376
  22988580.586   -12946720.62249 -10068511.74846  22988580.487    22988588.843
 03  3 20 20 29 30.0000000  0  6G 6G30G 5G10G24G17
  21220137.424   -23051855.41849 -17943168.25447  21220137.654    21220144.116
  20378470.458   -22868971.92049 -17815216.20448  20378471.128    20378476.825
  21867998.402    -1838788.80849  -1433563.41247  21867998.190    21868005.542
  21013157.594   -21092801.00649 -16417213.18247  21013157.144    21013164.237
  23739135.339    14019751.56649  10856098.54345  23739135.419    23739144.021
  22975255.338   -13016745.14549 -10123076.27646  22975255.232    22975263.589
 03  3 20 20 30  0.0000000  0  6G 6G30G 5G10G24G17
  21210648.712   -23101719.10049 -17982023.05947  21210648.913    21210655.388
  20383843.065   -22840738.93149 -17793216.49548  20383843.719    20383849.429
  21884604.439    -1751523.79049  -1365564.77047  21884604.254    21884611.619
  21016529.002   -21075084.20849 -16403407.88647  21016528.550    21016535.663
  23755215.607    14104253.30549  10921944.00545  23755215.626    23755224.222
  22961971.754   -13086551.11249 -10177470.49346  22961971.598    22961979.969
 03  3 20 20 30 30.0000000  0  6G 6G30G 5G10G24G17
  21201193.210   -23151408.03449 -18020741.69947  21201193.419    21201199.868
  20389325.521   -22811928.50949 -17770766.84048  20389326.173    20389331.904
  21901272.540    -1663932.55049  -1297311.93847  21901272.335    21901279.724
  21020019.745   -21056740.22749 -16389113.88247  21020019.303    21020026.418
  23771296.054    14188756.88849  10987790.91845  23771296.175    23771304.743
  22948729.917   -13156137.34149 -10231693.49646  22948729.725    22948738.074
 03  3 20 20 31  0.0000000  0  6G 6G30G 5G10G24G17
  21191771.225   -23200920.95149 -18059323.17947  21191771.432    21191777.876
  20394917.706   -22782541.46049 -17747867.86348  20394918.342    20394924.104
  21918002.305    -1576017.38449  -1228806.69547  21918002.123    21918009.517
  21023629.723   -21037769.71349 -16374331.66647  21023629.274    21023636.395
  23787376.836    14273261.88549  11053638.91245  23787376.891    23787385.524
  22935529.902   -13225503.78849 -10285745.23246  22935529.713    22935538.060
 03  3 20 20 31 30.0000000  0  6G 6G30G 5G10G24G17
  21182382.869   -23250256.97049 -18097766.81847  21182383.081    21182389.523
  20400619.361   -22752579.24149 -17724520.70548  20400620.005    20400625.751
  21934793.177    -1487781.07049  -1160051.20647  21934792.999    21934800.418
  21027358.624   -21018174.05549 -16359062.33347  21027358.183    21027365.294
  23803457.520    14357766.34449  11119486.49645  23803457.579    23803466.324
  22922371.638   -13294650.50049 -10339625.74446  22922371.443    22922379.841
 03  3 20 20 32  0.0000000  0  6G 6G30G 5G10G24G17
  21173028.513   -23299414.58649 -18136071.44647  21173028.717    21173035.134
  20406430.354   -22722042.29549 -17700725.70548  20406431.002    20406436.755
  21951644.750    -1399225.82449  -1091047.20147  21951644.562    21951652.005
  21031206.412   -20997953.94249 -16343306.40747  21031205.979    21031213.079
  23819537.856    14442269.38649  11185332.98945  23819537.987    23819546.815
  22909255.298   -13363577.14949 -10393334.79346  22909255.143    22909263.523
 03  3 20 20 32 30.0000000  0  6G 6G30G 5G10G24G17
  21163708.329   -23348392.45549 -18174236.00647  21163708.539    21163714.946
  20412350.492   -22690931.78849 -17676483.77648  20412351.133    20412356.897
  21968556.550    -1310354.18849  -1021796.65647  21968556.345    21968563.833
  21035172.806   -20977110.41249 -16327064.69947  21035172.363    21035179.476
  23835617.800    14526769.78249  11251177.39645  23835617.885    23835626.786
  22896180.855   -13432283.49149 -10446872.16046  22896180.694    22896189.106
 03  3 20 20 33  0.0000000  0  6G 6G30G 5G10G24G17
  21154422.582   -23397189.32949 -18212259.53647  21154422.778    21154429.200
  20418379.651   -22659248.57149 -17651795.57448  20418380.289    20418386.055
  21985528.031    -1221168.68049   -952301.54147  21985527.826    21985535.317
  21039257.660   -20955644.27049 -16310337.83747  21039257.215    21039264.345
  23851696.967    14611266.18549  11317018.70245  23851697.033    23851706.018
  22883148.486   -13500769.38449 -10500237.75646  22883148.256    22883156.646
 03  3 20 20 33 30.0000000  0  6G 6G30G 5G10G24G17
  21145171.474   -23445804.21349 -18250141.25847  21145171.672    21145178.061
  20424517.523   -22626993.86949 -17626662.06448  20424518.170    20424523.943
  22002558.769    -1131671.90849   -882563.88547  22002558.566    22002566.093
  21043460.771   -20933556.76249 -16293126.79747  21043460.326    21043467.468
  23867775.201    14695757.46849  11382856.00345  23867775.193    23867784.276
  22870158.077   -13569034.42149 -10553431.25746  22870157.839    22870166.235
 03  3 20 20 34  0.0000000  0  6G 6G30G 5G10G24G17
  21135955.339   -23494235.31949 -18287879.77547  21135955.542    21135961.942
  20430763.998   -22594168.39149 -17601083.79248  20430764.626    20430770.425
  22019648.345    -1041865.89649   -812585.26147  22019648.135    22019655.677
  21047781.973   -20910848.68649 -16275432.19947  21047781.504    21047788.664
  23883852.284    14780242.84149  11448688.72145  23883852.283    23883861.334
  22857209.612   -13637078.45249 -10606452.54546  22857209.463    22857217.844
 03  3 20 20 34 30.0000000  0  6G 6G30G 5G10G24G17
  21126774.392   -23542481.44149 -18325474.15047  21126774.588    21126780.979
  20437118.920   -22560773.21449 -17575061.60248  20437119.556    20437125.344
  22036796.214     -951753.38849   -742367.80947  22036796.033    22036803.580
  21052221.125   -20887520.82749 -16257254.65347  21052220.681    21052227.836
  23899928.054    14864721.39849  11514516.10445  23899928.104    23899937.087
  22844303.340   -13704901.03749 -10659301.28146  22844303.248    22844311.601
 03  3 20 20 35  0.0000000  0  6G 6G30G 5G10G24G17
  21117628.884   -23590541.32449 -18362923.40447  21117629.090    21117635.491
  20443582.052   -22526809.31749 -17548596.25548  20443582.682    20443588.465
  22054002.027     -861336.65249   -671913.29547  22054001.842    22054009.395
  21056777.925   -20863574.54049 -16238595.21747  21056777.466    21056784.663
  23916002.277    14949191.66949  11580337.03845  23916002.376    23916011.292
  22831439.288   -13772502.30549 -10711977.55946  22831439.124    22831447.452
 03  3 20 20 35 30.0000000  0  6G 6G30G 5G10G24G17
  21108519.109   -23638413.51049 -18400226.40347  21108519.306    21108525.713
  20450153.163   -22492277.95849 -17521688.72848  20450153.793    20450159.591
  22071265.261     -770618.08549   -601223.59347  22071265.051    22071272.658
  21061452.292   -20839010.65649 -16219454.53547  21061451.840    21061459.037
  23932074.684    15033652.92049  11646150.92945  23932074.819    23932083.799
  22818617.416   -13839881.61749 -10764480.88246  22818617.280    22818625.596
 03  3 20 20 36  0.0000000  0  6G 6G30G 5G10G24G17
  21099445.172   -23686097.40749 -18437382.67647  21099445.358    21099451.770
  20456832.001   -22457180.65049 -17494340.20548  20456832.629    20456838.415
  22088585.288     -679601.02049   -530301.30247  22088585.061    22088592.699
  21066243.815   -20813831.01149 -16199834.03847  21066243.363    21066250.574
  23948145.068    15118103.04549  11711956.16845  23948145.205    23948154.188
  22805837.641   -13907039.59649 -10816811.75146  22805837.497    22805845.792
 03  3 20 20 36 30.0000000  0  6G 6G30G 5G10G24G17
  21090407.415   -23733591.01349 -18474390.67347  21090407.615    21090414.025
  20463618.409   -22421517.85349 -17466551.03848  20463619.041    20463624.838
  22105961.831     -588287.05449   -459147.65447  22105961.611    22105969.279
  21071152.432   -20788036.04249 -16179734.06847  21071151.975    21071159.196
  23964213.291    15202542.15149  11777752.80745  23964213.390    23964222.461
  22793100.280   -13973974.87549 -10868969.07846  22793100.125    22793108.380
 03  3 20 20 37  0.0000000  0  6G 6G30G 5G10G24G17
  21081406.106   -23780893.11449 -18511249.44347  21081406.306    21081412.712
  20470512.168   -22385291.00049 -17438322.35448  20470512.799    20470518.595
  22123394.394     -496678.80949   -387764.70247  22123394.183    22123401.868
  21076177.895   -20761627.08549 -16159155.66847  21076177.436    21076184.678
  23980279.108    15286968.50349  11843539.50345  23980279.198    23980288.292
  22780405.193   -14040687.84849 -10920953.17946  22780405.044    22780413.321
 03  3 20 20 37 30.0000000  0  6G 6G30G 5G10G24G17
  21072441.524   -23828002.25349 -18547957.85347  21072441.712    21072448.135
  20477513.038   -22348501.23749 -17409655.03548  20477513.672    20477519.475
  22140882.428     -404778.83549   -316154.42747  22140882.206    22140889.902
  21081319.966   -20734605.34149 -16138099.77747  21081319.496    21081326.770
  23996342.446    15371381.36449  11909315.69845  23996342.558    23996351.598
  22767752.380   -14107178.51549 -10972764.05646  22767752.253    22767760.492
 03  3 20 20 38  0.0000000  0  6G 6G30G 5G10G24G17
  21063513.914   -23874917.09849 -18584514.86547  21063514.103    21063520.518
  20484620.864   -22311149.52749 -17380549.83848  20484621.492    20484627.315
  22158425.500     -312589.63049   -244318.78147  22158425.301    22158433.041
  21086578.428   -20706971.78749 -16116567.14947  21086577.986    21086585.236
  24012402.966    15455779.87849  11975080.69545  24012403.070    24012412.123
  22755142.058   -14173446.26049 -11024401.22446  22755141.873    22755150.101
 03  3 20 20 38 30.0000000  0  6G 6G30G 5G10G24G17
  21054623.538   -23921636.33549 -18620919.45147  21054623.717    21054630.154
  20491835.331   -22273237.28849 -17351007.86348  20491835.957    20491841.783
  22176023.132     -220113.75149   -172259.75447  22176022.949    22176030.693
  21091953.089   -20678727.82549 -16094558.87447  21091952.665    21091959.919
  24028460.534    15540163.03149  12040833.72845  24028460.772    24028469.768
  22742574.048   -14239491.40849 -11075864.94446  22742573.894    22742582.111
 03  3 20 20 39  0.0000000  0  6G 6G30G 5G10G24G17
  21045770.673   -23968158.27549 -18657170.30347  21045770.856    21045777.295
  20499156.296   -22234765.47349 -17321029.86248  20499156.939    20499162.775
  22193674.879     -127353.55849    -99979.17947  22193674.699    22193682.465
  21097443.713   -20649874.56349 -16072075.82347  21097443.264    21097450.521
  24044515.150    15624529.85749  12106574.04445  24044515.298    24044524.321
  22730048.577   -14305313.13049 -11127154.56646  22730048.405    22730056.610
 03  3 20 20 39 30.0000000  0  6G 6G30G 5G10G24G17
  21036955.546   -24014481.99249 -18693266.69647  21036955.729    21036962.190
  20506583.439   -22195735.62849 -17290617.02548  20506584.077    20506589.917
  22211380.225      -34311.82749    -27479.22447  22211380.011    22211387.813
  21103049.891   -20620413.70349 -16049119.32247  21103049.453    21103056.715
  24060566.318    15708879.09049  12172300.63545  24060566.476    24060575.457
  22717565.576   -14370911.66549 -11178270.27546  22717565.397    22717573.557
 03  3 20 20 40  0.0000000  0  6G 6G30G 5G10G24G17
  21028178.431   -24060605.92449 -18729207.41847  21028178.615    21028185.067
  20514116.543   -22156148.97449 -17259770.31348  20514117.192    20514123.029
  22229138.591       59008.93349     45238.15147  22229138.417    22229146.262
  21108771.596   -20590345.97249 -16025689.93347  21108771.152    21108778.411
  24076614.001    15793209.86649  12238012.84445  24076614.137    24076623.211
  22705125.103   -14436286.60349 -11229211.75446  22705124.949    22705133.127
 03  3 20 20 40 30.0000000  0  6G 6G30G 5G10G24G17
  21019439.581   -24106528.81749 -18764991.48847  21019439.775    21019446.243
  20521755.351   -22116006.96249 -17228490.85948  20521756.004    20521761.825
  22246949.603      152606.04049    118170.85847  22246949.437    22246957.297
  21114608.494   -20559672.93849 -16001788.88447  21114608.051    21114615.316
  24092657.909    15877521.02249  12303709.78345  24092658.149    24092667.222
  22692727.184   -14501438.03149 -11279979.06846  22692727.012    22692735.179
 03  3 20 20 41  0.0000000  0  6G 6G30G 5G10G24G17
  21010739.352   -24152248.84749 -18800617.47447  21010739.538    21010746.013
  20529499.701   -22075310.36849 -17196779.25848  20529500.343    20529506.180
  22264812.884      246477.65049    191317.45146  22264812.701    22264820.580
  21120560.372   -20528395.55549 -15977416.90847  21120559.921    21120567.203
  24108698.023    15961812.06049  12369391.03145  24108698.265    24108707.276
  22680371.831   -14566365.42449 -11330571.80446  22680371.686    22680379.854
 03  3 20 20 41 30.0000000  0  6G 6G30G 5G10G24G17
  21002077.878   -24197765.05449 -18836084.64447  21002078.064    21002084.548
  20537349.254   -22034060.95249 -17164636.88848  20537349.888    20537355.720
  22282727.811      340620.78149    264675.61846  22282727.628    22282735.526
  21126626.939   -20496515.67249 -15952575.44847  21126626.471    21126633.761
  24124734.020    16046081.67349  12435055.58245  24124734.313    24124743.315
  22668059.145   -14631068.99449 -11380990.13946  22668058.989    22668067.152
 03  3 20 20 42  0.0000000  0  6G 6G30G 5G10G24G17
  20993455.454   -24243076.08349 -18871391.93247  20993455.643    20993462.123
  20545303.661   -21992260.25349 -17132064.94848  20545304.292    20545310.143
  22300693.891      435032.66749    338243.18346  22300693.701    22300701.615
  21132807.901   -20464034.53949 -15927265.48847  21132807.442    21132814.717
  24140765.839    16130328.96449  12500702.73945  24140766.155    24140775.029
  22655789.113   -14695548.55849 -11431233.92346  22655788.954    22655797.061
 03  3 20 20 42 30.0000000  0  6G 6G30G 5G10G24G17
  20984872.384   -24288180.34749 -18906538.10447  20984872.585    20984879.058
  20553362.797   -21949909.48949 -17099064.38248  20553363.423    20553369.279
  22318710.659      529711.02049    412018.36946  22318710.468    22318718.404
  21139103.033   -20430953.46749 -15901488.03947  21139102.574    21139109.864
  24156793.109    16214552.56549  12566331.42545  24156793.400    24156802.344
  22643561.603   -14759804.26049 -11481303.26146  22643561.458    22643569.588
 03  3 20 20 43  0.0000000  0  6G 6G30G 5G10G24G17
  20976328.982   -24333076.29049 -18941521.94447  20976329.189    20976335.650
  20561526.381   -21907009.76149 -17065636.05648  20561527.001    20561532.881
  22336777.727      624653.50249    485999.38946  22336777.541    22336785.501
  21145512.038   -20397273.85049 -15875244.19347  21145511.587    21145518.870
  24172815.746    16298752.25449  12631941.49845  24172815.978    24172825.149
  22631376.837   -14823835.66849 -11531197.83046  22631376.664    22631384.731
 03  3 20 20 43 30.0000000  0  6G 6G30G 5G10G24G17
  20967825.538   -24377762.18249 -18976342.11347  20967825.736    20967832.186
  20569794.188   -21863562.35449 -17031780.96748  20569794.797    20569800.683
  22354894.616      719857.94049    560184.54646  22354894.438    22354902.445
  21152034.770   -20362996.73749 -15848534.76947  21152034.311    21152041.613
  24188833.822    16382927.56049  12697532.57545  24188834.108    24188843.350
  22619234.791   -14887642.27249 -11580917.22646  22619234.640    22619242.723
 03  3 20 20 44  0.0000000  0  6G 6G30G 5G10G24G17
  20959362.199   -24422237.29949 -19010998.04147  20959362.405    20959368.852
  20578165.789   -21819569.19849 -16997500.62148  20578166.412    20578172.323
  22373060.689      815320.98049    634571.21746  22373060.502    22373068.580
  21158670.806   -20328124.29149 -15821361.44747  21158670.327    21158677.624
  24204846.884    16467076.62849  12763103.18445  24204847.213    24204856.365
  22607135.470   -14951224.47549 -11630461.76146  22607135.306    22607143.406
 03  3 20 20 44 30.0000000  0  6G 6G30G 5G10G24G17
  20950939.295   -24466499.93649 -19045488.39747  20950939.476    20950945.928
  20586641.017   -21775031.74449 -16962796.14148  20586641.634    20586647.553
  22391275.538      911040.27249    709157.56246  22391275.342    22391283.467
  21165419.899   -20292657.74149 -15793725.18947  21165419.425    21165426.735
  24220854.882    16551198.72549  12828652.79845  24220855.031    24220864.349
  22595078.850   -15014582.01149 -11679831.22246  22595078.752    22595086.843
 03  3 20 20 45  0.0000000  0  6G 6G30G 5G10G24G17
  20942557.018   -24510549.03749 -19079812.36247  20942557.209    20942563.650
  20595219.476   -21729951.75949 -16927668.91248  20595220.096    20595226.012
  22409538.615     1007012.87749    783941.29846  22409538.439    22409546.588
  21172281.605   -20256599.25049 -15765627.67947  21172281.135    21172288.437
  24236857.526    16635292.58349  12894180.40745  24236857.713    24236866.852
  22583064.968   -15077715.30449 -11729025.95646  22583064.840    22583072.913
 03  3 20 20 45 30.0000000  0  6G 6G30G 5G10G24G17
  20934215.757   -24554382.73449 -19113968.47547  20934215.954    20934222.364
  20603900.970   -21684330.47349 -16892119.89248  20603901.596    20603907.517
  22427849.451     1103236.54449    858920.67246  22427849.243    22427857.440
  21179255.783   -20219949.85249 -15737069.72147  21179255.317    21179262.607
  24252854.612    16719357.55849  12959685.49545  24252854.747    24252863.933
  22571093.895   -15140623.83449 -11778045.54546  22571093.687    22571101.761
 03  3 20 20 46  0.0000000  0  7G 6G30G 5G10G24G17G23
  20925913.531   -24598011.29349 -19147964.74547  20925913.711    20925920.128
  20612682.953   -21638180.79349 -16856159.13548  20612683.586    20612689.509
  22446205.431     1199697.33149    934084.80146  22446205.215    22446213.407
  21186339.875   -20182722.66749 -15708061.54147  21186339.412    21186346.719
  24268843.885    16803381.71049  13025158.78645  24268844.059    24268853.191
  22559163.312   -15203319.27449 -11826899.09246  22559163.127    22559171.204
  24469127.627    -5162530.60849  -3995988.51545  24469127.657    24469142.155
 03  3 20 20 46 30.0000000  0  7G 6G30G 5G10G24G17G23
  20917653.764   -24641416.49849 -19181786.97347  20917653.940    20917660.370
  20621568.395   -21591487.68849 -16819774.93448  20621569.025    20621574.964
  22464609.161     1296409.23549   1009444.61346  22464608.945    22464617.187
  21193536.763   -20144902.64849 -15678591.40847  21193536.320    21193543.621
  24284828.360    16887380.65949  13090612.42145  24284828.553    24284837.753
  22547276.538   -15265784.33749 -11875573.13147  22547276.356    22547284.454
  24448399.846    -5271453.55649  -4080863.00945  24448399.856    24448414.208
 03  3 20 20 47  0.0000000  0  7G 6G30G 5G10G24G17G23
  20909436.402   -24684598.95049 -19215435.63047  20909436.578    20909443.015
  20630556.544   -21544254.63949 -16782969.99948  20630557.173    20630563.141
  22483059.869     1393367.77349   1084996.60246  22483059.612    22483067.904
  21200845.767   -20106493.64749 -15648662.33147  21200845.320    21200852.618
  24300807.637    16971351.77049  13156044.37545  24300807.781    24300817.106
  22535433.299   -15328020.75449 -11924068.99547  22535433.134    22535441.246
  24427684.171    -5380312.86249  -4165687.92145  24427684.057    24427698.377
 03  3 20 20 47 30.0000000  0  7G 6G30G 5G10G24G17G23
  20901261.312   -24727559.18849 -19248911.12947  20901261.488    20901267.933
  20639646.763   -21496485.41049 -16745747.25848  20639647.379    20639653.367
  22501556.604     1490568.28249   1160737.15446  22501556.356    22501564.670
  21208266.142   -20067499.22149 -15618277.08147  21208265.713    21208272.999
  24316780.906    17055291.70749  13221452.03845  24316781.153    24316790.274
  22523633.088   -15390031.29349 -11972388.84447  22523632.854    22523640.971
  24406980.698    -5489108.15549  -4250462.94445  24406980.560    24406994.886
 03  3 20 20 48  0.0000000  0  8G 6G29G30G 5G10G24G17G23
  20893128.395   -24770297.88849 -19282214.00348  20893128.578    20893135.036
  24643260.589    -6438406.88249  -4974382.46445  24643260.816    24643275.897
  20648838.287   -21448183.67749 -16708109.58348  20648838.916    20648844.908
  22520098.476     1588006.05549   1236662.57946  22520098.220    22520106.534
  21215797.298   -20027922.89349 -15587438.40147  21215796.849    21215804.157
  24332747.845    17139197.74649  13286833.28645  24332748.049    24332757.313
  22511875.472   -15451817.58349 -12020533.96247  22511875.253    22511883.378
  24386289.520    -5597838.95249  -4335187.77445  24386289.404    24386303.573
 03  3 20 20 48 30.0000000  0  8G 6G29G30G 5G10G24G17G23
  20885038.392   -24812811.10949 -19315341.18348  20885038.579    20885045.034
  24629749.634    -6509405.99749  -5029706.12945  24629749.939    24629764.883
  20658131.304   -21399348.64549 -16670056.35048  20658131.943    20658137.951
  22538685.410     1685680.71249   1312772.58546  22538685.213    22538693.507
  21223439.263   -19987763.98249 -15556145.76347  21223438.829    21223446.158
  24348708.554    17223071.39249  13352189.29645  24348708.720    24348717.982
  22500160.974   -15513377.40749 -12068502.61247  22500160.803    22500168.927
  24365611.471    -5706500.24349  -4419858.40745  24365611.389    24365625.519
 03  3 20 20 49  0.0000000  0  8G 6G29G30G 5G10G24G17G23
  20876991.537   -24855097.71549 -19348291.78148  20876991.709    20876998.160
  24616254.542    -6580322.49549  -5084965.39545  24616254.802    24616269.673
  20667525.441   -21349982.26649 -16631589.07948  20667526.059    20667532.104
  22557316.930     1783589.48449   1389065.02946  22557316.705    22557325.028
  21231191.726   -19947024.50649 -15524400.73447  21231191.292    21231198.630
  24364662.930    17306911.68849  13417519.32645  24364663.144    24364672.440
  22488489.576   -15574710.83449 -12116294.85447  22488489.383    22488497.499
  24344947.165    -5815089.77349  -4504473.15745  24344947.094    24344961.093
 03  3 20 20 49 30.0000000  0  8G 6G29G30G 5G10G24G17G23
  20868987.922   -24897156.90549 -19381065.17148  20868988.110    20868994.558
  24602775.426    -6651154.13349  -5140158.56445  24602775.703    24602790.618
  20677020.219   -21300086.94349 -16592709.64647  20677020.846    20677026.898
  22575992.383     1881729.19649   1465537.41246  22575992.166    22576000.510
  21239054.207   -19905707.04949 -15492205.33347  21239053.769    21239061.096
  24380610.587    17390716.97249  13482822.05345  24380610.815    24380620.104
  22476861.162   -15635818.30249 -12163911.03147  22476860.973    22476869.098
  24324296.831    -5923605.84249  -4589030.67245  24324296.810    24324310.595
 03  3 20 20 50  0.0000000  0  8G 6G29G30G 5G10G24G17G23
  20861027.816   -24938987.53149 -19413660.46048  20861028.021    20861034.446
  24589313.158    -6721898.01649  -5195283.34845  24589313.443    24589328.264
  20686615.306   -21249664.57749 -16553419.52947  20686615.924    20686621.986
  22594711.194     1980097.03249   1542187.54846  22594710.997    22594719.399
  21247026.333   -19863813.41149 -15459560.95447  21247025.900    21247033.234
  24396551.372    17474486.19249  13548096.67645  24396551.569    24396560.978
  22465275.668   -15696700.29449 -12211351.50647  22465275.503    22465283.606
  24303660.922    -6032046.26849  -4673529.27245  24303661.016    24303674.554
 03  3 20 20 50 30.0000000  0  8G 6G29G30G 5G10G24G17G23
  20853111.428   -24980588.38949 -19446076.70648  20853111.651    20853118.070
  24575867.977    -6792551.74449  -5250337.86845  24575868.302    24575883.044
  20696310.261   -21198717.39649 -16513720.46647  20696310.872    20696316.941
  22613472.930     2078689.81749   1619012.97146  22613472.718    22613481.120
  21255107.651   -19821345.76549 -15426469.30347  21255107.225    21255114.542
  24412485.178    17558218.56749  13613342.59145  24412485.397    24412494.815
  22453733.169   -15757356.60849 -12258616.13947  22453732.994    22453741.050
  24283039.901    -6140408.59249  -4757967.01745  24283039.992    24283053.439
 03  3 20 20 51  0.0000000  0  8G 6G29G30G 5G10G24G17G23
  20845239.054   -25021958.10249 -19478312.84248  20845239.251    20845245.673
  24562440.390    -6863112.29449  -5305319.77145  24562440.727    24562455.186
  20706104.789   -21147246.98249 -16473613.69147  20706105.411    20706111.486
  22632276.891     2177504.99049   1696011.68946  22632276.721    22632285.130
  21263297.825   -19778306.35149 -15392932.11947  21263297.385    21263304.686
  24428411.780    17641912.93749  13678558.89245  24428412.023    24428421.420
  22442233.498   -15817787.67149 -12305705.23947  22442233.325    22442241.361
  24262434.241    -6248690.36549  -4842342.01645  24262434.357    24262447.696
 03  3 20 20 51 30.0000000  0  8G 6G29G30G 5G10G24G17G23
  20837410.896   -25063095.25849 -19510367.76048  20837411.100    20837417.492
  24549031.265    -6933576.76749  -5360226.85545  24549031.590    24549045.795
  20715998.483   -21095255.39149 -16433100.80047  20715999.102    20716005.187
  22651122.699     2276539.81749   1773181.57946  22651122.534    22651130.934
  21271596.486   -19734696.79549 -15358950.66547  21271596.040    21271603.324
  24444331.047    17725568.37949  13743744.86545  24444331.211    24444340.500
  22430776.616   -15877993.72749 -12352619.01747  22430776.467    22430784.467
  24241844.486    -6356889.28249  -4926652.47945  24241844.441    24241857.710
 03  3 20 20 52  0.0000000  0  8G 6G29G30G 5G10G24G17G23
  20829627.328   -25103998.23749 -19542240.20948  20829627.549    20829633.909
  24535640.932    -7003942.25949  -5415056.82345  24535641.200    24535655.290
  20725991.047   -21042744.26049 -16392183.07847  20725991.685    20725997.780
  22670009.774     2375791.74349   1850520.62146  22670009.599    22670018.070
  21280003.293   -19690518.66149 -15324526.17147  21280002.881    21280010.167
  24460242.676    17809184.22249  13808899.99245  24460242.826    24460252.163
  22419362.632   -15937974.62949 -12399357.35747  22419362.448    22419370.469
  24221270.900    -6465002.61149  -5010896.25645  24221270.844    24221283.884
 03  3 20 20 52 30.0000000  0  8G 6G29G30G 5G10G24G17G23
  20821888.684   -25144665.23449 -19573928.77848  20821888.886    20821895.232
  24522270.019    -7074205.41849  -5469807.02545  24522270.366    24522284.493
  20736082.212   -20989715.01649 -16350861.63147  20736082.839    20736088.945
  22688937.782     2475258.49149   1928027.06646  22688937.615    22688946.115
  21288518.031   -19645773.49749 -15289659.83147  21288517.606    21288524.883
  24476146.734    17892760.00749  13874023.86345  24476146.875    24476156.324
  22407991.486   -15997730.15749 -12445920.08147  22407991.331    22407999.315
  24200714.138    -6573027.38749  -5095071.03945  24200714.105    24200727.001
 03  3 20 20 53  0.0000000  0  8G 6G29G30G 5G10G24G17G23
  20814195.156   -25185094.98449 -19605432.47348  20814195.362    20814201.684
  24508919.295    -7144363.36449  -5524475.25345  24508919.679    24508933.730
  20746271.634   -20936169.52549 -16309137.91347  20746272.245    20746278.384
  22707906.120     2574937.21449   2005698.67446  22707905.944    22707914.475
  21297140.295   -19600463.45049 -15254353.32747  21297139.867    21297147.130
  24492042.979    17976295.24749  13939116.17845  24492043.141    24492052.591
  22396663.332   -16057260.31449 -12492307.19247  22396663.123    22396671.111
  24180174.745    -6680961.46549  -5179175.15445  24180174.634    24180187.410
 03  3 20 20 53 30.0000000  0  8G 6G29G30G 5G10G24G17G23
  20806546.937   -25225286.73249 -19636750.71948  20806547.127    20806553.451
  24495588.789    -7214413.88149  -5579059.79645  24495589.057    24495603.071
  20756558.744   -20882110.64149 -16267014.15047  20756559.353    20756565.466
  22726914.136     2674824.53849   2083532.82246  22726913.945    22726922.508
  21305869.531   -19554591.15649 -15218608.70547  21305869.094    21305876.341
  24507931.251    18059787.98449  14004175.36145  24507931.302    24507940.781
  22385377.820   -16116565.71049 -12538519.17047  22385377.646    22385385.603
  24159652.949    -6788803.07749  -5263207.23845  24159652.731    24159665.411
 03  3 20 20 54  0.0000000  0  8G 6G29G30G 5G10G24G17G23
  20798944.451   -25265238.06749 -19667881.63048  20798944.640    20798950.941
  24482279.556    -7284353.30249  -5633557.75045  24482279.932    24482293.692
  20766943.369   -20827539.20749 -16224490.99747  20766943.994    20766950.098
  22745961.530     2774918.85749   2161528.26646  22745961.318    22745969.939
  21314705.560   -19508157.71249 -15182426.82947  21314705.107    21314712.351
  24523811.400    18143238.51749  14069201.66945  24523811.499    24523821.013
  22374135.302   -16175645.48049 -12584555.32947  22374135.119    22374143.061
  24139149.332    -6896548.82949  -5347164.66145  24139149.076    24139161.762
 03  3 20 20 54 30.0000000  0  8G 6G29G30G 5G10G24G17G23
  20791387.982   -25304947.62449 -19698824.13848  20791388.181    20791394.485
  24468992.098    -7354178.44149  -5687966.65645  24468992.308    24469006.209
  20777425.156   -20772457.27549 -16181570.05247  20777425.768    20777431.908
  22765047.741     2875217.31949   2239682.79246  22765047.556    22765056.228
  21323647.966   -19461165.20049 -15145809.31647  21323647.506    21323654.753
  24539683.423    18226645.96849  14134194.38645  24539683.550    24539693.095
  22362935.691   -16234499.83449 -12630415.84347  22362935.492    22362943.404
  24118664.438    -7004196.31749  -5431045.52145  24118664.107    24118676.651
 03  3 20 20 55  0.0000000  0  8G 6G29G30G 5G10G24G17G23
  20783877.837   -25344413.78849 -19729576.99448  20783878.031    20783884.349
  24455726.883    -7423886.57549  -5742284.38445  24455727.143    24455741.068
  20788003.739   -20716866.53449 -16138252.63547  20788004.354    20788010.499
  22784172.381     2975717.47349   2317994.45946  22784172.196    22784180.879
  21332696.410   -19413615.33849 -15108757.50747  21332695.942    21332703.187
  24555547.077    18310010.02849  14199153.28545  24555547.198    24555556.799
  22351778.890   -16293128.95749 -12676100.84547  22351778.715    22351786.659
  24098198.705    -7111742.89349  -5514847.74745  24098198.405    24098210.756
 03  3 20 20 55 30.0000000  0  8G 6G29G30G 5G10G24G17G23
  20776414.280   -25383635.07149 -19760139.03148  20776414.477    20776420.781
  24442484.561    -7493474.47649  -5796508.45645  24442484.721    24442498.419
  20798678.786   -20660768.98949 -16094540.30347  20798679.414    20798685.567
  22803334.850     3076416.63249   2396461.20546  22803334.700    22803343.400
  21341850.536   -19365510.15549 -15071272.98147  21341850.075    21341857.335
  24571402.309    18393329.57749  14264077.52945  24571402.442    24571412.061
  22340665.055   -16351532.40349 -12721609.99847  22340664.889    22340672.825
  24077752.692    -7219186.02549  -5598569.37045  24077752.369    24077764.558
 03  3 20 20 56  0.0000000  0  8G 6G29G30G 5G10G24G17G23
  20768997.614   -25422609.97349 -19790509.08648  20768997.792    20769004.089
  24429265.506    -7562939.41349  -5850636.67745  24429265.801    24429279.407
  20809449.837   -20604166.72749 -16050434.68747  20809450.467    20809456.633
  22822534.721     3177312.05849   2475080.87946  22822534.538    22822543.262
  21351109.925   -19316851.98349 -15033357.55347  21351109.454    21351116.721
  24587248.903    18476604.02949  14328966.59245  24587249.021    24587258.753
  22329594.141   -16409710.60849 -12766943.64747  22329593.944    22329601.888
  24057326.822    -7326523.33949  -5682208.56345  24057326.589    24057338.674
 03  3 20 20 56 30.0000000  0  8G 6G29G30G 5G10G24G17G23
  20761628.093   -25461336.96749 -19820685.96348  20761628.264    20761634.558
  24416070.480    -7632278.44549  -5904666.83345  24416070.686    24416084.474
  20820316.630   -20547061.59149 -16005937.22047  20820317.254    20820323.436
  22841771.442     3278401.06649   2553851.40946  22841771.261    22841780.031
  21360474.171   -19267642.63149 -14995012.63047  21360473.692    21360480.960
  24603086.932    18559832.82249  14393820.10945  24603087.107    24603096.771
  22318566.059   -16467663.57849 -12812101.77547  22318565.859    22318573.777
  24036921.537    -7433752.28849  -5765763.31545  24036921.397    24036933.294
 03  3 20 20 57  0.0000000  0  8G 6G29G30G 5G10G24G17G23
  20754305.978   -25499814.92149 -19850668.79048  20754306.153    20754312.440
  24402900.030    -7701488.73749  -5958596.64445  24402900.195    24402913.833
  20831278.704   -20489455.82449 -15961049.65347  20831279.315    20831285.495
  22861044.425     3379680.88549   2632770.60746  22861044.218    22861053.038
  21369942.849   -19217884.34349 -14956239.97447  21369942.377    21369949.672
  24618916.061    18643014.79849  14458637.13945  24618916.149    24618925.866
  22307580.713   -16525391.68049 -12857084.67647  22307580.514    22307588.435
  24016537.360    -7540870.45949  -5849231.75645  24016537.138    24016548.983
 03  3 20 20 57 30.0000000  0  8G 6G29G30G 5G10G24G17G23
  20747031.579   -25538042.13549 -19880456.23448  20747031.749    20747038.043
  24389754.596    -7770567.27749  -6012423.80645  24389754.656    24389768.381
  20842335.633   -20431351.43349 -15915773.55147  20842336.251    20842342.423
  22880353.291     3481148.89849   2711836.46346  22880353.051    22880361.896
  21379515.635   -19167579.23949 -14917041.22347  21379515.159    21379522.447
  24634736.153    18726149.32649  14523417.17945  24634736.177    24634745.936
  22296638.334   -16582894.26849 -12901891.85447  22296638.119    22296646.028
  23996174.783    -7647875.27349  -5932611.86745  23996174.594    23996186.432
 03  3 20 20 58  0.0000000  0  8G 6G29G30G 5G10G24G17G23
  20739805.160   -25576017.23649 -19910047.22748  20739805.351    20739811.638
  24376634.645    -7839511.11149  -6066145.99445  24376634.827    24376648.543
  20853487.085   -20372750.30349 -15870110.37947  20853487.711    20853493.891
  22899697.385     3582802.50049   2791046.91646  22899697.199    22899706.068
  21389192.076   -19116729.36049 -14877417.97647  21389191.591    21389198.885
  24650547.035    18809235.74849  14588159.74245  24650547.041    24650556.785
  22285738.662   -16640171.95049 -12946523.76947  22285738.504    22285746.408
  23975834.310    -7754764.26649  -6015901.75045  23975834.166    23975845.839
 03  3 20 20 58 30.0000000  0  8G 6G29G30G 5G10G24G17G23
  20732627.008   -25613738.64449 -19939440.53348  20732627.211    20732633.491
  24363541.081    -7908317.10149  -6119760.80745  24363541.243    24363554.849
  20864732.669   -20313654.61349 -15824061.83447  20864733.276    20864739.482
  22919076.403     3684639.06849   2870399.94646  22919076.144    22919085.047
  21398971.764   -19065336.73649 -14837371.80947  21398971.300    21398978.615
  24666348.634    18892273.61849  14652864.46645  24666348.682    24666358.491
  22274881.926   -16697224.52449 -12990980.29047  22274881.740    22274889.634
  23955516.371    -7861534.88349  -6099099.38645  23955516.131    23955527.969
 03  3 20 20 59  0.0000000  0  8G 6G29G30G 5G10G24G17G23
  20725497.434   -25651204.72449 -19968634.88348  20725497.656    20725503.934
  24350474.321    -7976982.56149  -6173266.08745  24350474.449    24350487.897
  20876072.005   -20254066.24049 -15777629.37947  20876072.616    20876078.822
  22938489.664     3786655.92349   2949893.45646  22938489.444    22938498.357
  21408854.390   -19013403.38049 -14796904.29347  21408853.909    21408861.237
  24682140.846    18975262.12449  14717530.74945  24682140.979    24682150.593
  22264067.886   -16754052.62549 -13035261.89547  22264067.707    22264075.596
  23935221.478    -7968184.67049  -6182202.88245  23935221.151    23935232.887
 03  3 20 20 59 30.0000000  0  8G 6G29G30G 5G10G24G17G23
  20718416.796   -25688413.88549 -19997629.03748  20718416.998    20718423.280
  24337434.832    -8045504.26249  -6226659.41845  24337434.955    24337448.004
  20887504.686   -20193987.25749 -15730814.63547  20887505.301    20887511.506
  22957936.680     3888850.28849   3029525.28146  22957936.451    22957945.374
  21418839.481   -18960931.57749 -14756017.20847  21418838.976    21418846.321
  24697923.614    19058200.82249  14782158.17145  24697923.752    24697933.363
  22253296.642   -16810655.88849 -13079368.30147  22253296.423    22253304.313
  23914950.031    -8074710.96149  -6265210.16445  23914949.725    23914961.350
 03  3 20 21  0  0.0000000  0  8G 6G29G30G 5G10G24G17G23
  20711385.289   -25725364.77349 -20026421.93848  20711385.466    20711391.757
  24324423.276    -8113879.37749  -6279938.45945  24324423.482    24324436.521
  20899030.344   -20133419.85749 -15683619.30247  20899030.942    20899037.132
  22977417.028     3991219.37049   3109293.25346  22977416.805    22977425.664
  21428926.553   -18907923.64749 -14714712.35647  21428926.053    21428933.422
  24713696.814    19141088.74149  14846746.06545  24713696.974    24713706.675
  22242568.137   -16867034.30449 -13123299.49247  22242567.961    22242575.838
  23894702.533    -8181111.59649  -6348119.53445  23894702.162    23894713.838
 03  3 20 21  0 30.0000000  0  8G 6G29G30G 5G10G24G17G23
  20704403.311   -25762055.40149 -20055012.04048  20704403.470    20704409.763
  24311440.242    -8182104.39049  -6333100.57245  24311440.571    24311453.435
  20910648.606   -20072365.71049 -15636044.69047  20910649.219    20910655.393
  22996930.174     4093761.25149   3189195.85246  22996929.947    22996938.878
  21439115.355   -18854381.23849 -14672991.03547  21439114.879    21439122.230
  24729460.191    19223925.72849  14911294.26245  24729460.110    24729469.945
  22231882.450   -16923187.75549 -13167055.38147  22231882.258    22231890.169
  23874479.492    -8287383.49249  -6430928.60745  23874479.132    23874490.667
 03  3 20 21  1  0.0000000  0  8G 6G29G30G 5G10G24G17G23
  20697471.016   -25798484.89549 -20083398.65948  20697471.189    20697477.469
  24298486.393    -8250177.10749  -6386144.03945  24298486.658    24298499.272
  20922358.981   -20010827.48349 -15588092.86947  20922359.602    20922365.780
  23016475.584     4196472.54949   3269230.47346  23016475.375    23016484.346
  21449405.427   -18800306.75149 -14630855.10647  21449404.946    21449412.309
  24745213.730    19306710.92949  14975802.11945  24745213.836    24745223.575
  22221239.480   -16979117.03049 -13210636.60447  22221239.266    22221247.161
  23854281.326    -8393524.70049  -6513635.83945  23854281.025    23854292.450
 03  3 20 21  1 30.0000000  0  8G 6G29G30G 5G10G24G17G23
  20690588.748   -25834651.59149 -20111580.50248  20690588.893    20690595.176
  24285562.019    -8318094.20649  -6439066.22245  24285562.286    24285574.911
  20934161.068   -19948807.17349 -15539765.40547  20934161.691    20934167.871
  23036052.787     4299350.82749   3349395.20546  23036052.552    23036061.569
  21459796.265   -18745702.51649 -14588306.38147  21459795.792    21459803.189
  24760957.379    19389443.72549  15040269.11645  24760957.655    24760967.300
  22210639.161   -17034821.94849 -13254043.00247  22210638.945    22210646.834
  23834108.546    -8499532.44249  -6596239.08245  23834108.270    23834119.635
 03  3 20 21  2  0.0000000  0  8G 6G29G30G 5G10G24G17G23
  20683756.708   -25870554.08149 -20139556.46948  20683756.873    20683763.156
  24272667.767    -8385853.04449  -6491865.10245  24272668.032    24272680.540
  20946054.520   -19886306.96749 -15491063.99347  20946055.138    20946061.312
  23055661.240     4402393.35949   3429687.92546  23055661.018    23055670.094
  21470287.523   -18690570.73349 -14545346.58147  21470287.030    21470294.453
  24776690.860    19472123.34049  15104694.67445  24776691.144    24776700.802
  22200081.536   -17090302.65849 -13297274.68847  22200081.304    22200089.195
  23813961.651    -8605404.30749  -6678736.46145  23813961.368    23813972.652
 03  3 20 21  2 30.0000000  0  8G 6G29G30G 5G10G24G17G23
  20676975.353   -25906190.33549 -20167324.98548  20676975.498    20676981.790
  24259804.366    -8453450.04349  -6544537.87445  24259804.636    24259816.997
  20958038.891   -19823328.86449 -15441990.19647  20958039.501    20958045.701
  23075300.526     4505597.86649   3510106.85446  23075300.322    23075309.423
  21480878.841   -18634913.18049 -14501977.09147  21480878.337    21480885.774
  24792414.142    19554749.37749  15169078.48945  24792414.448    24792424.262
  22189566.552   -17145558.81449 -13340331.40647  22189566.343    22189574.243
  23793841.113    -8711137.34849  -6761125.66645  23793840.947    23793852.106
 03  3 20 21  3  0.0000000  0  8G 6G29G30G 5G10G24G17G23
  20670244.956   -25941558.98149 -20194884.97048  20670245.097    20670251.401
  24246972.236    -8520882.61549  -6597082.51145  24246972.560    24246984.766
  20970113.790   -19759874.98449 -15392545.66047  20970114.392    20970120.613
  23094970.116     4608961.43449   3590649.72246  23094969.895    23094979.015
  21491569.651   -18578732.60049 -14458200.04547  21491569.146    21491576.609
  24808127.192    19637321.24049  15233420.09245  24808127.390    24808137.087
  22179094.274   -17200590.84649 -13383213.48247  22179094.063    22179101.963
  23773747.477    -8816729.40349  -6843405.01245  23773747.328    23773758.393
 03  3 20 21  3 30.0000000  0  8G 6G29G30G 5G10G24G17G23
  20663565.734   -25976658.55649 -20222235.29948  20663565.861    20663572.148
  24234171.886    -8588147.68449  -6649496.64845  24234172.343    24234184.340
  20982278.781   -19695947.67049 -15342732.21647  20982279.400    20982285.625
  23114669.433     4712481.55949   3671314.57746  23114669.277    23114678.411
  21502359.624   -18522031.17349 -14414017.14947  21502359.107    21502366.588
  24823829.775    19719838.42549  15297719.07845  24823829.861    24823839.798
  22168664.609   -17255398.90849 -13425921.03947  22168664.403    22168672.283
  23753681.182    -8922177.90549  -6925572.51945  23753680.939    23753692.017
 03  3 20 21  4  0.0000000  0  8G 6G29G30G 5G10G24G17G23
  20656937.972   -26011487.54849 -20249374.78148  20656938.119    20656944.428
  24221403.983    -8655242.40549  -6701778.02845  24221404.510    24221416.491
  20994533.459   -19631549.07049 -15292551.53747  20994534.076    20994540.327
  23134398.028     4816155.32049   3752099.15746  23134397.860    23134407.063
  21513248.207   -18464811.33549 -14369430.29347  21513247.708    21513255.165
  24839521.829    19802300.34749  15361975.00945  24839521.837    24839531.820
  22158277.585   -17309983.04549 -13468454.10747  22158277.394    22158285.260
  23733642.668    -9027480.40349  -7007626.24345  23733642.391    23733653.403
 03  3 20 21  4 30.0000000  0  8G 6G29G30G 5G10G24G17G23
  20650361.949   -26046044.71949 -20276302.45248  20650362.122    20650368.430
  24208669.159    -8722164.11649  -6753924.61245  24208669.407    24208681.407
  21006877.344   -19566681.62849 -15242005.53147  21006877.981    21006884.260
  23154155.355     4919979.96049   3833001.29346  23154155.112    23154164.391
  21524234.992   -18407075.48649 -14324441.34347  21524234.512    21524241.989
  24855203.224    19884706.24549  15426187.28445  24855203.201    24855213.278
  22147933.156   -17364343.29349 -13510812.72047  22147932.965    22147940.832
  23713632.400    -9132634.63649  -7089564.44745  23713632.125    23713643.014
 03  3 20 21  5  0.0000000  0  8G 6G29G30G 5G10G24G17G23
  20643837.981   -26080328.34549 -20303016.97148  20643838.168    20643844.478
  24195967.797    -8788909.43849  -6805933.72745  24195968.011    24195980.085
  21019310.077   -19501347.31349 -15191095.72347  21019310.694    21019317.008
  23173940.934     5023953.18949   3914019.20946  23173940.694    23173949.997
  21535319.641   -18348825.36849 -14279051.66747  21535319.139    21535326.639
  24870873.912    19967055.77949  15490355.64045  24870874.161    24870883.866
  22137631.266   -17418479.84149 -13552997.02347  22137631.087    22137638.947
  23693650.788    -9237637.95149  -7171385.05645  23693650.568    23693661.302
 03  3 20 21  5 30.0000000  0  8G 6G29G30G 5G10G24G17G23
  20637366.452   -26114336.60049 -20329516.90948  20637366.618    20637372.940
  24183300.557    -8855475.27649  -6857803.00945  24183300.799    24183312.942
  21031831.220   -19435548.64249 -15139824.07747  21031831.816    21031838.150
  23193754.282     5128072.28449   3995150.79146  23193754.048    23193763.415
  21546501.682   -18290063.53349 -14233263.24447  21546501.207    21546508.658
  24886533.807    20049348.42449  15554479.66545  24886534.051    24886543.822
  22127371.944   -17472392.95249 -13595007.21347  22127371.759    22127379.607
  23673698.352    -9342487.88549  -7253086.17345  23673697.991    23673708.817
 03  3 20 21  6  0.0000000  0  8G 6G29G30G 5G10G15G17G23
  20630945.862   -26148076.95849 -20355808.10548  20630946.053    20630952.362
  24170666.394    -8921867.85249  -6909537.27245  24170666.577    24170678.846
  21044438.620   -19369296.50749 -15088199.09047  21044439.228    21044445.563
  23213593.196     5232325.55349   4076386.91246  23213592.924    23213602.383
  21557779.000   -18230801.02449 -14187084.68847  21557778.540    21557785.984
  24765596.471    -5875821.64849  -4558226.20545  24765596.125    24765606.833
  22117153.499   -17526091.16849 -13636849.95247  22117153.333    22117161.166
  23653773.889    -9447190.70849  -7334672.64045  23653773.564    23653784.373
 03  3 20 21  6 30.0000000  0  8G 6G29G30G 5G10G15G17G23
  20624578.156   -26181539.54749 -20381882.85648  20624578.331    20624584.631
  24158067.242    -8988075.73049  -6961127.60245  24158067.429    24158079.689
  21057133.448   -19302585.02549 -15036216.16647  21057134.049    21057140.384
  23233458.628     5336718.73949   4157732.05446  23233458.401    23233467.940
  21569152.699   -18171032.02549 -14140511.46647  21569152.226    21569159.680
  24749178.553    -5962097.66049  -4625454.24245  24749178.031    24749188.685
  22106977.411   -17579566.88949 -13678519.32847  22106977.198    22106985.046
  23633879.474    -9551735.78449  -7416136.19745  23633879.186    23633889.941
 03  3 20 21  7  0.0000000  0  8G 6G29G30G 5G10G15G17G23
  20618264.630   -26214717.52949 -20407735.83548  20618264.792    20618271.108
  24145504.866    -9054090.67849  -7012567.62245  24145505.014    24145517.265
  21069916.205   -19235411.33349 -14983873.08147  21069916.810    21069923.158
  23253351.233     5441254.38149   4239188.20646  23253351.010    23253360.624
  21580623.302   -18110753.60549 -14093541.29447  21580622.846    21580630.286
  24732783.994    -6048250.86849  -4692586.55945  24732783.581    24732794.117
  22096844.650   -17632814.68749 -13720011.10247  22096844.463    22096852.307
  23614016.633    -9656115.30049  -7497470.76345  23614016.337    23614027.117
 03  3 20 21  7 30.0000000  0  8G 6G29G30G 5G10G15G17G23
  20612005.027   -26247611.83149 -20433367.76048  20612005.196    20612011.539
  24132979.238    -9119912.59449  -7063857.23845  24132979.397    24132991.542
  21082786.024   -19167780.15749 -14931173.51447  21082786.640    21082792.987
  23273270.006     5545927.53149   4320751.50346  23273269.740    23273279.449
  21592189.919   -18049970.94049 -14046178.20247  21592189.458    21592196.903
  24716412.698    -6134283.16149  -4759624.64745  24716412.214    24716422.857
  22086754.637   -17685837.83149 -13761327.81747  22086754.488    22086762.312
  23594185.257    -9760329.24049  -7578676.30845  23594185.055    23594195.685
 03  3 20 21  8  0.0000000  0  8G 6G29G30G 5G10G15G17G23
  20605799.541   -26280221.92349 -20458778.22248  20605799.712    20605806.060
  24120490.672    -9185539.07349  -7114994.53945  24120490.890    24120503.150
  21095742.261   -19099694.80049 -14878120.04547  21095742.871    21095749.239
  23293214.220     5650734.40549   4402418.98546  23293214.003    23293223.691
  21603851.835   -17988687.14549 -13998424.62147  21603851.385    21603858.835
  24700064.170    -6220195.28849  -4826569.14645  24700063.702    24700074.170
  22076707.282   -17738636.97249 -13802469.98047  22076707.114    22076714.929
  23574385.689    -9864376.11549  -7659751.66645  23574385.533    23574396.102
 03  3 20 21  8 30.0000000  0  9G 6G29G26G30G 5G10G15G17G23
  20599648.193   -26312547.45449 -20483966.94548  20599648.350    20599654.708
  24108039.698    -9250968.45749  -7165978.26545  24108039.982    24108052.163
  24274715.206    -4595411.52949  -3559328.46645  24274715.716    24274731.065
  21108784.301   -19031158.55349 -14824715.23047  21108784.922    21108791.301
  23313183.230     5755671.34149   4484187.83846  23313183.009    23313192.722
  21615608.490   -17926905.64749 -13950283.21747  21615608.036    21615615.503
  24683738.252    -6305987.61949  -4893420.25545  24683737.794    24683748.702
  22066702.429   -17791212.84649 -13843438.17747  22066702.240    22066710.060
  23554618.085    -9968254.61049  -7740695.82845  23554618.037    23554628.578
 03  3 20 21  9  0.0000000  0  9G 6G29G26G30G 5G10G15G17G23
  20593551.406   -26344586.27249 -20508932.26448  20593551.581    20593557.934
  24095626.933    -9316197.11649  -7216805.57745  24095627.225    24095639.451
  24257685.129    -4684904.68449  -3629063.10445  24257685.613    24257700.392
  21121911.747   -18962173.39649 -14770960.61947  21121912.384    21121918.785
  23333176.577     5860736.25449   4566056.39846  23333176.417    23333186.144
  21627459.440   -17864628.69349 -13901755.74347  21627458.982    21627466.433
  24667435.186    -6391659.74349  -4960177.68845  24667434.810    24667445.823
  22056740.014   -17843565.47349 -13884232.40647  22056739.827    22056747.659
  23534883.144   -10071961.79649  -7821506.50245  23534883.110    23534893.673
 03  3 20 21  9 30.0000000  0  9G 6G29G26G30G 5G10G15G17G23
  20587509.490   -26376336.75549 -20533672.90048  20587509.654    20587516.014
  24083252.906    -9381222.21949  -7267474.28945  24083253.272    24083265.438
  24240661.591    -4774362.60649  -3698770.27345  24240662.079    24240677.216
  21135124.196   -18892741.62349 -14716857.99747  21135124.828    21135131.248
  23353193.746     5965926.18149   4648022.35746  23353193.570    23353203.328
  21639404.242   -17801858.36149 -13852843.81147  21639403.802    21639411.257
  24651155.260    -6477211.24249  -5026841.16245  24651154.821    24651165.604
  22046819.996   -17895695.30349 -13924853.02747  22046819.824    22046827.626
  23515181.387   -10175495.07349  -7902181.66845  23515181.279    23515191.837
 03  3 20 21 10  0.0000000  0  9G 6G29G26G30G 5G10G15G17G23
  20581522.594   -26407798.11249 -20558188.23948  20581522.748    20581529.126
  24070918.007    -9446041.51349  -7317982.60745  24070918.451    24070930.436
  24223645.359    -4863782.38049  -3768447.76345  24223645.809    24223660.724
  21148421.107   -18822866.29549 -14662409.74747  21148421.722    21148428.160
  23373234.034     6071237.95149   4730083.27546  23373233.856    23373243.637
  21651442.359   -17738597.77149 -13803549.86247  21651441.919    21651449.380
  24634898.476    -6562642.10649  -5093410.63745  24634898.044    24634908.148
  22036942.268   -17947602.87949 -13965300.46747  22036942.113    22036949.914
  23495513.034   -10278852.61249  -7982719.89945  23495512.935    23495523.461
 03  3 20 21 10 30.0000000  0  9G 6G29G26G30G 5G10G15G17G23
  20575591.019   -26438968.80149 -20582477.09348  20575591.175    20575597.541
  24058622.827    -9510652.09649  -7368328.29645  24058623.243    24058635.315
  24206637.065    -4953160.78949  -3838093.02245  24206637.413    24206651.950
  21161801.884   -18752550.00449 -14607617.89047  21161802.509    21161808.970
  23393297.001     6176668.97349   4812237.11146  23393296.877    23393306.687
  21663573.260   -17674849.38249 -13753875.81647  21663572.851    21663580.324
  24618664.597    -6647952.26049  -5159886.05745  24618664.313    24618674.194
  22027106.791   -17999288.79849 -14005575.19547  22027106.621    22027114.416
  23475878.504   -10382032.15649  -8063119.43545  23475878.408    23475888.981
 03  3 20 21 11  0.0000000  0  9G 6G29G26G30G 5G10G15G17G23
  20569715.017   -26469847.34349 -20606538.29348  20569715.183    20569721.536
  24046368.008    -9575051.19949  -7418509.22845  24046368.377    24046380.264
  24189637.087    -5042495.13549  -3907703.91145  24189637.564    24189651.756
  21175266.062   -18681795.32849 -14552484.42847  21175266.698    21175273.180
  23413382.199     6282216.52149   4894481.74646  23413382.053    23413391.853
  21675796.519   -17610615.84949 -13703823.72647  21675796.098    21675803.587
  24602453.495    -6733141.57749  -5226267.28345  24602453.276    24602463.276
  22017313.448   -18050752.92249 -14045677.07247  22017313.301    22017321.099
  23456278.325   -10485031.34549  -8143378.42445  23456278.167    23456288.738
 03  3 20 21 11 30.0000000  0  9G 6G29G26G30G 5G10G15G17G23
  20563894.929   -26500432.10349 -20630370.57448  20563895.092    20563901.443
  24034154.006    -9639235.60349  -7468522.85545  24034154.352    24034166.137
  24172646.310    -5131781.21649  -3977277.22245  24172646.795    24172661.351
  21188813.278   -18610604.41549 -14497011.04847  21188813.919    21188820.394
  23433489.134     6387877.92849   4976815.10546  23433488.863    23433498.741
  21688111.571   -17545899.84449 -13653395.69547  21688111.143    21688118.635
  24586265.649    -6818209.16549  -5292553.66245  24586265.382    24586275.706
  22007562.342   -18101995.27449 -14085606.16047  22007562.182    22007569.969
  23436712.946   -10587847.51149  -8223494.81745  23436712.772    23436723.431
 03  3 20 21 12  0.0000000  0  9G 6G29G26G30G 5G10G15G17G23
  20558131.120   -26530720.99449 -20653972.30748  20558131.292    20558137.665
  24021981.447    -9703201.86649  -7518366.46045  24021981.769    24021993.557
  24155665.371    -5221015.57949  -4046810.21645  24155665.962    24155680.577
  21202443.206   -18538979.10549 -14441199.17947  21202443.813    21202450.283
  23453617.262     6493651.28149   5059235.67746  23453616.999    23453626.917
  21700518.082   -17480703.12649 -13602593.07747  21700517.664    21700525.190
  24570101.041    -6903154.11149  -5358744.48345  24570100.794    24570110.996
  21997853.424   -18153015.94049 -14125362.49747  21997853.263    21997861.049
  23417183.045   -10690477.53449  -8303466.15345  23417182.862    23417193.436
 03  3 20 21 12 30.0000000  0  9G 6G29G26G30G 5G10G15G17G23
  20552423.889   -26560712.85749 -20677342.59748  20552424.053    20552430.417
  24009850.964    -9766947.48349  -7568038.16245  24009851.216    24009862.993
  24138694.837    -5310194.83449  -4116300.25245  24138695.529    24138710.209
  21216155.227   -18466922.17749 -14385050.99147  21216155.831    21216162.346
  23473766.143     6599533.57749   5141741.15545  23473765.950    23473775.773
  21713015.599   -17415028.40749 -13551417.99547  21713015.172    21713022.702
  24553959.710    -6987976.39249  -5424839.71345  24553959.498    24553969.762
  21988186.682   -18203814.96549 -14164946.12747  21988186.525    21988194.305
  23397688.969   -10792919.33049  -8383290.82345  23397688.787    23397699.307
 03  3 20 21 13  0.0000000  0  9G 6G29G26G30G 5G10G15G17G23
  20546773.326   -26590406.57049 -20700480.56248  20546773.515    20546779.876
  23997762.882    -9830469.92249  -7617535.98245  23997763.115    23997774.798
  24121735.397    -5399316.45949  -4185745.42945  24121735.969    24121750.792
  21229948.758   -18394436.78749 -14328568.92947  21229949.402    21229955.901
  23493935.173     6705521.67549   5224329.06645  23493934.987    23493944.821
  21725603.473   -17348878.80649 -13499872.87047  21725603.008    21725610.544
  24537841.897    -7072676.46149  -5490839.74345  24537841.605    24537851.760
  21978561.951   -18254393.31749 -14204357.80647  21978561.738    21978569.530
  23378231.029   -10895170.95149  -8462967.31346  23378230.848    23378241.402
 03  3 20 21 13 30.0000000  0  9G 6G29G26G30G 5G10G15G17G23
  20541179.895   -26619800.46849 -20723384.90748  20541180.067    20541186.437
  23985717.723    -9893766.31049  -7666857.61945  23985718.013    23985729.885
  24104787.543    -5488376.89149  -4255142.88045  24104788.064    24104802.909
  21243823.418   -18321525.11349 -14271754.70047  21243824.066    21243830.586
  23514123.824     6811612.96349   5306997.40245  23514123.641    23514133.509
  21738281.294   -17282256.51849 -13447959.41647  21738280.831    21738288.372
  24521747.546    -7157253.59149  -5556743.94145  24521747.288    24521757.415
  21968979.231   -18304750.75249 -14243597.34147  21968979.032    21968986.819
  23358809.752   -10997229.89249  -8542493.65946  23358809.523    23358820.148
 03  3 20 21 14  0.0000000  0  9G 6G29G26G30G 5G10G15G17G23
  20535643.880   -26648892.49649 -20746054.02548  20535644.059    20535650.416
  23973716.395    -9956833.13049  -7716000.39745  23973716.711    23973728.447
  24087852.127    -5577372.16549  -4324489.58645  24087852.766    24087867.631
  21257778.848   -18248189.22849 -14214609.91647  21257779.495    21257785.995
  23534331.721     6917805.36449   5389744.50145  23534331.531    23534341.462
  21751048.695   -17215163.62849 -13395679.26447  21751048.193    21751055.747
  24505676.610    -7241706.96049  -5622551.70745  24505676.383    24505686.547
  21959438.544   -18354887.59449 -14282664.99247  21959438.307    21959446.071
  23339425.693   -11099093.25349  -8621867.61145  23339425.443    23339436.063
 03  3 20 21 14 30.0000000  0  9G 6G29G26G30G 5G10G15G17G23
  20530165.558   -26677681.25049 -20768486.83348  20530165.742    20530172.073
  23961759.199   -10019667.76149  -7764962.24745  23961759.459    23961771.260
  24070929.523    -5666299.32849  -4393783.21145  24070930.102    24070944.992
  21271814.450   -18174431.90449 -14157136.73747  21271815.089    21271821.608
  23554558.289     7024095.98749   5472568.15445  23554558.099    23554568.148
  21763905.025   -17147603.11349 -13343034.73047  21763904.542    21763912.084
  24489629.002    -7326036.44149  -5688262.93145  24489628.644    24489639.109
  21949939.785   -18404803.90849 -14321560.81147  21949939.543    21949947.311
  23320079.214   -11200758.83349  -8701087.44745  23320079.085    23320089.584
 03  3 20 21 15  0.0000000  0  9G 6G29G26G30G 5G10G15G17G23
  20524745.276   -26706165.02849 -20790681.99548  20524745.474    20524751.804
  23949846.772   -10082267.15349  -7813740.80245  23949847.067    23949858.732
  24054020.876    -5755154.61149  -4463020.83645  24054021.388    24054035.859
  21285929.797   -18100255.54149 -14099337.03847  21285930.427    21285936.982
  23574803.144     7130482.27749   5555466.32745  23574802.893    23574813.040
  21776849.939   -17079577.18949 -13290027.54347  21776849.461    21776856.985
  24473605.247    -7410241.61549  -5753877.29345  24473604.945    24473615.217
  21940482.950   -18454499.77649 -14360284.85947  21940482.720    21940490.468
  23300770.974   -11302224.08649  -8780151.18045  23300770.822    23300781.263
 03  3 20 21 15 30.0000000  0  9G 6G29G26G30G 5G10G15G17G23
  20519383.233   -26734342.86449 -20812638.75348  20519383.406    20519389.742
  23937979.489   -10144628.86349  -7862334.12345  23937979.861    23937991.623
  24037126.322    -5843935.37349  -4532200.38145  24037126.854    24037141.322
  21300124.304   -18025663.12549 -14041213.13647  21300124.930    21300131.502
  23595065.508     7236961.11149   5638436.61845  23595065.285    23595075.585
  21789882.797   -17011089.10149 -13236660.21947  21789882.308    21789889.861
  24457605.287    -7494322.88349  -5819395.11945  24457604.932    24457615.142
  21931067.925   -18503975.83849 -14398837.61947  21931067.718    21931075.464
  23281501.232   -11403487.13349  -8859057.35846  23281501.022    23281511.467
 03  3 20 21 16  0.0000000  0  9G 6G29G26G30G 5G10G15G17G23
  20514079.708   -26762213.06149 -20834355.79948  20514079.878    20514086.225
  23926158.186   -10206749.67449  -7910739.76645  23926158.575    23926170.019
  24020246.631    -5932637.95949  -4601318.98545  24020247.140    24020261.534
  21314397.539   -17950656.97749 -13982766.85547  21314398.179    21314404.754
  23615345.062     7343530.32949   5721477.33245  23615344.907    23615355.255
  21803003.197   -16942141.09249 -13182934.51747  21803002.695    21803010.251
  24441628.699    -7578279.52949  -5884815.83345  24441628.373    24441638.670
  21921694.820   -18553231.86149 -14437218.92247  21921694.587    21921702.333
  23262270.471   -11504545.19549  -8937803.80446  23262270.246    23262280.693
 03  3 20 21 16 30.0000000  0 10G 6G29G26G30G 5G10G18G15G17G23
  20508834.660   -26789776.16149 -20855833.54548  20508834.819    20508841.159
  23914382.697   -10268628.94149  -7958957.16245  23914383.097    23914394.689
  24003382.017    -6021260.69449  -4670375.38745  24003382.523    24003396.847
  21328748.639   -17875241.60049 -13924001.69147  21328749.264    21328755.897
  23635640.972     7450185.13749   5804584.73745  23635640.736    23635651.169
  21816210.180   -16872737.91949 -13128854.13747  21816209.672    21816217.251
  24768775.447    -6715159.64749  -5194435.09245  24768775.395    24768788.229
  24425675.455    -7662113.27849  -5950140.75645  24425675.107    24425685.743
  21912363.133   -18602270.30249 -14475430.66947  21912362.877    21912370.613
  23243078.690   -11605398.00449  -9016390.33045  23243078.502    23243088.952
 03  3 20 21 17  0.0000000  0 10G 6G29G26G30G 5G10G18G15G17G23
  20503648.438   -26817029.90649 -20877070.23848  20503648.599    20503654.929
  23902654.022   -10330262.98049  -8006983.50945  23902654.417    23902665.869
  23986533.325    -6109799.94949  -4739366.74245  23986533.801    23986548.169
  21343177.245   -17799418.97749 -13864919.20247  21343177.885    21343184.516
  23655952.828     7556923.54649   5887757.28745  23655952.575    23655963.093
  21829503.363   -16802881.59149 -13074420.65547  21829502.880    21829510.468
  24747568.117    -6826602.36149  -5281272.98345  24747567.976    24747580.921
  24409746.060    -7745823.06649  -6015369.10545  24409745.784    24409756.371
  21903072.866   -18651091.14549 -14513472.86447  21903072.578    21903080.325
  23223926.632   -11706042.48749  -9094814.51946  23223926.500    23223936.804
 03  3 20 21 17 30.0000000  0 10G 6G29G26G30G 5G10G18G15G17G23
  20498521.999   -26843969.51549 -20898062.14848  20498522.168    20498528.501
  23890973.186   -10391645.79249  -8054814.10745  23890973.503    23890985.005
  23969701.780    -6198248.69149  -4808287.57045  23969702.400    23969716.618
  21357683.480   -17723188.51349 -13805518.91247  21357684.093    21357690.759
  23676280.573     7663746.03549   5970995.34945  23676280.372    23676290.997
  21842882.932   -16732571.50949 -13019633.59547  21842882.417    21842890.035
  24726369.826    -6937997.81449  -5368074.09545  24726369.821    24726382.740
  24393840.809    -7829405.44249  -6080498.19145  24393840.536    24393850.942
  21893824.514   -18699691.12049 -14551342.95747  21893824.301    21893832.003
  23204815.313   -11806473.06549  -9173072.01646  23204815.121    23204825.413
 03  3 20 21 18  0.0000000  0 10G 6G29G26G30G 5G10G18G15G17G23
  20493455.536   -26870593.99149 -20918808.49648  20493455.716    20493462.048
  23879340.517   -10452775.19549  -8102447.21145  23879340.817    23879352.144
  23952887.988    -6286604.47349  -4877135.95845  23952888.701    23952902.810
  21372266.698   -17646553.36349 -13745803.28347  21372267.317    21372273.980
  23696623.701     7770649.38749   6054296.42945  23696623.519    23696634.329
  21856348.259   -16661810.69049 -12964495.31247  21856347.785    21856355.395
  24705180.896    -7049344.25049  -5454837.06045  24705180.920    24705193.616
  24377959.636    -7912860.76549  -6145528.24245  24377959.291    24377969.707
  21884618.187   -18748070.64049 -14589041.26547  21884617.964    21884625.674
  23185745.002   -11906687.89449  -9251161.40246  23185744.844    23185755.069
 03  3 20 21 18 30.0000000  0 10G 6G29G26G30G 5G10G18G15G17G23
  20488449.279   -26896902.17549 -20939308.38748  20488449.452    20488455.771
  23867756.496   -10513648.46649  -8149880.71845  23867756.816    23867768.330
  23936092.610    -6374864.04749  -4945909.34445  23936093.137    23936107.401
  21386926.388   -17569516.54549 -13685774.66047  21386927.008    21386933.681
  23716981.808     7877630.55149   6137658.12545  23716981.565    23716992.358
  21869898.799   -16590602.20049 -12909008.19647  21869898.334    21869905.956
  24684001.718    -7160640.04849  -5541560.57745  24684001.522    24684014.174
  24362102.769    -7996188.94249  -6210459.20645  24362102.358    24362112.924
  21875453.603   -18796230.81549 -14626568.65047  21875453.369    21875461.065
  23166716.041   -12006685.15149  -9329081.25446  23166715.966    23166726.082
 03  3 20 21 19  0.0000000  0 10G 6G29G26G30G 5G10G18G15G17G23
  20483503.283   -26922893.70349 -20959561.53048  20483503.446    20483509.765
  23856221.615   -10574263.95149  -8197113.36945  23856221.892    23856233.334
  23919315.911    -6463025.26849  -5014606.13445  23919316.412    23919330.479
  21401661.794   -17492081.74149 -13625435.93047  21401662.427    21401669.103
  23737353.955     7984685.89949   6221077.63845  23737353.761    23737364.553
  21883533.815   -16518949.89649 -12853175.24747  21883533.325    21883540.954
  24662832.328    -7271883.88249  -5628243.63445  24662832.128    24662844.534
  24346270.134    -8079390.74049  -6275291.72345  24346269.708    24346280.166
  21866330.481   -18844172.95549 -14663926.13747  21866330.275    21866337.944
  23147728.861   -12106463.41149  -9406830.44446  23147728.741    23147738.807
 03  3 20 21 19 30.0000000  0 10G 6G29G26G30G 5G10G18G15G17G23
  20478617.986   -26948566.17249 -20979566.05548  20478618.138    20478624.452
  23844736.480   -10634617.96949  -8244142.30445  23844736.812    23844748.098
  23902558.797    -6551083.80449  -5083222.89445  23902559.324    23902573.368
  21416472.560   -17414250.80349 -13564788.52947  21416473.184    21416479.875
  23757739.839     8091813.59649   6304553.51645  23757739.638    23757750.520
  21897252.953   -16446855.45449 -12796997.77747  21897252.448    21897260.057
  24641673.392    -7383072.72249  -5714883.82445  24641673.275    24641685.467
  24330461.481    -8162465.17649  -6340024.96445  24330460.992    24330471.711
  21857248.908   -18891896.57049 -14701113.34647  21857248.732    21857256.414
  23128783.915   -12206019.50049  -9484406.52846  23128783.756    23128793.870
 03  3 20 21 20  0.0000000  0 10G 6G29G26G30G 5G10G18G15G17G23
  20473793.526   -26973918.79849 -20999321.35048  20473793.678    20473800.011
  23833301.557   -10694708.67549  -8290966.04445  23833301.799    23833312.977
  23885821.617    -6639037.03849  -5151757.60445  23885822.149    23885836.200
  21431358.078   -17336027.23949 -13503835.19147  21431358.689    21431365.414
  23778138.910     8199010.23249   6388083.11345  23778138.697    23778149.574
  21911055.595   -16374322.33949 -12740478.48447  21911055.082    21911062.677
  24620525.200    -7494205.08249  -5801480.03245  24620525.065    24620537.234
  24314677.044    -8245412.79649  -6404659.41845  24314676.579    24314687.217
  21848208.904   -18939402.04449 -14738130.57447  21848208.740    21848216.421
  23109881.534   -12305351.76849  -9561808.19746  23109881.402    23109891.476
 03  3 20 21 20 30.0000000  0 10G 6G29G26G30G 5G10G18G15G17G23
  20469030.283   -26998949.80149 -21018826.03248  20469030.425    20469036.775
  23821917.248   -10754532.72149  -8337582.00045  23821917.440    23821928.586
  23869105.185    -6726881.13649  -5220207.25645  23869105.812    23869119.731
  21446317.865   -17257413.23849 -13442577.60147  21446318.473    21446325.202
  23798550.680     8306273.78049   6471664.84845  23798550.466    23798561.403
  21924941.269   -16301352.79149 -12683619.12047  21924940.729    21924948.320
  24599388.331    -7605278.18049  -5888030.09945  24599388.358    24599400.236
  24298916.727    -8328232.86749  -6469194.47145  24298916.380    24298926.800
  21839210.329   -18986689.81249 -14774978.16847  21839210.119    21839217.822
  23091022.236   -12404457.71549  -9639033.50746  23091022.099    23091032.133
 03  3 20 21 21  0.0000000  0 10G 6G29G26G30G 5G10G18G15G17G23
  20464328.569   -27023657.42949 -21038078.72748  20464328.730    20464335.069
  23810584.303   -10814086.94349  -8383987.71345  23810584.506    23810595.615
  23852410.269    -6814612.33249  -5288568.95945  23852410.851    23852424.727
  21461351.548   -17178411.13449 -13381017.59047  21461352.145    21461358.925
  23818974.662     8413601.71049   6555296.75345  23818974.457    23818985.423
  21938909.450   -16227949.34349 -12626421.64847  21938908.939    21938916.550
  24578263.206    -7716289.71849  -5974532.19645  24578263.323    24578274.976
  24283180.682    -8410925.00649  -6533629.81345  24283180.544    24283191.072
  21830253.212   -19033759.81849 -14811656.09047  21830253.030    21830260.700
  23072206.500   -12503334.59249  -9716080.30946  23072206.384    23072216.417
